[[{"header":{"parameterUnit":"m.s-1","parameterCategory":1,"la1":31.0,"la2":29.5877,"lo1":-88.7671,"lo2":-86.6584,"dy":0.0162,"dx":0.0185,"nx":115,"ny":88,"refTime":"2024-04-07T06:00:00:Z","depth":0,"parameterNumber":2,"parameterNumberName":"U-component_of_WINDS"},"data":[0.0,0.0,0.0,0.0,0.0,0.0,0.0,0.0,0.0,0.0,0.0,0.0,0.0,0.0,0.0,0.0,0.0,0.0,0.0,0.0,0.0,0.0,0.0,0.0,0.0,0.0,0.0,0.0,0.0,0.0,0.0,0.0,0.0,0.0,0.0,0.0,0.0,0.0,0.0,0.0,0.0,0.0,0.0,0.0,0.0,0.0,0.0,0.0,0.0,0.0,0.0,0.0,0.0,0.0,0.0,0.0,0.0,0.0,0.0,0.0,0.0,0.0,0.0,0.0,0.0,0.0,0.0,0.0,0.0,0.0,0.0,0.0,0.0,0.0,0.0,0.0,0.0,0.0,0.0,0.0,0.0,0.0,0.0,0.0,0.0,0.0,0.0,0.0,0.0,0.0,0.0,0.0,0.0,0.0,0.0,0.0,0.0,0.0,0.0,0.0,0.0,0.0,0.0,0.0,0.0,0.0,0.0,0.0,0.0,0.0,0.0,0.0,0.0,0.0,0.0,0.0,0.0,0.0,0.0,0.0,0.0,0.0,0.0,0.0,0.0,0.0,0.0,0.0,0.0,0.0,0.0,0.0,0.0,0.0,0.0,0.0,0.0,0.0,0.0,0.0,0.0,0.0,0.0,0.0,0.0,0.0,0.0,0.0,0.0,0.0,0.0,0.0,0.0,0.0,0.0,0.0,0.0,0.0,0.0,0.0,0.0,0.0,0.0,0.0,0.0,0.0,0.0,0.0,0.0,0.0,0.0,0.0,0.0,0.0,0.0,0.0,0.0,0.0,0.0,0.0,0.0,0.0,0.0,0.0,0.0,0.0,0.0,0.0,0.0,0.0,0.0,0.0,0.0,0.0,0.0,0.0,0.0,0.0,0.0,0.0,0.0,0.0,0.0,0.0,0.0,0.0,0.0,0.0,0.0,0.0,0.0,0.0,0.0,0.0,0.0,0.0,0.0,0.0,0.0,0.0,0.0,0.0,0.0,0.0,0.0,0.0,0.0,0.0,0.0,0.0,0.0,0.0,0.0,0.0,0.0,0.0,0.0,0.0,0.0,0.0,0.0,0.0,0.0,0.0,0.0,0.0,0.0,0.0,0.0,0.0,0.0,0.0,0.0,0.0,0.0,0.0,0.0,0.0,0.0,0.0,0.0,0.0,0.0,0.0,0.0,0.0,0.0,0.0,0.0,0.0,0.0,0.0,0.0,0.0,0.0,0.0,0.0,0.0,0.0,0.0,0.0,0.0,0.0,0.0,0.0,0.0,0.0,0.0,0.0,0.0,0.0,0.0,0.0,0.0,0.0,0.0,0.0,0.0,0.0,0.0,0.0,0.0,0.0,0.0,0.0,0.0,0.0,0.0,0.0,0.0,0.0,0.0,0.0,0.0,0.0,0.0,0.0,0.0,0.0,0.0,0.0,0.0,0.0,0.0,0.0,0.0,0.0,0.0,0.0,0.0,0.0,0.0,0.0,0.0,0.0,0.0,0.0,0.0,0.0,0.0,0.0,0.0,0.0,0.0,0.0,0.0,0.0,0.0,0.0,0.0,0.0,0.0,0.0,0.0,0.0,0.0,0.0,0.0,0.0,0.0,0.0,0.0,0.0,0.0,0.0,0.0,0.0,0.0,0.0,0.0,0.0,0.0,0.0,0.0,0.0,0.0,0.0,0.0,0.0,0.0,0.0,0.0,0.0,0.0,0.0,0.0,0.0,0.0,0.0,0.0,0.0,0.0,0.0,0.0,0.0,0.0,0.0,0.0,0.0,0.0,0.0,0.0,0.0,0.0,0.0,0.0,0.0,0.0,0.0,0.0,0.0,0.0,0.0,0.0,0.0,0.0,0.0,0.0,0.0,0.0,0.0,0.0,0.0,0.0,0.0,0.0,0.0,0.0,0.0,0.0,0.0,0.0,0.0,0.0,0.0,0.0,0.0,0.0,0.0,0.0,0.0,0.0,0.0,0.0,0.0,0.0,0.0,0.0,0.0,0.0,0.0,0.0,0.0,0.0,0.0,0.0,0.0,0.0,0.0,0.0,0.0,0.0,0.0,0.0,0.0,0.0,0.0,0.0,0.0,0.0,0.0,0.0,0.0,0.0,0.0,0.0,0.0,0.0,0.0,0.0,0.0,0.0,0.0,0.0,0.0,0.0,0.0,0.0,0.0,0.0,0.0,0.0,0.0,0.0,0.0,0.0,0.0,0.0,0.0,0.0,0.0,0.0,0.0,0.0,0.0,0.0,0.0,0.0,0.0,0.0,0.0,0.0,0.0,0.0,0.0,0.0,0.0,0.0,0.0,0.0,0.0,0.0,0.0,0.0,0.0,0.0,0.0,0.0,0.0,0.0,0.0,0.0,0.0,0.0,0.0,0.0,0.0,0.0,0.0,0.0,0.0,0.0,0.0,0.0,0.0,0.0,0.0,0.0,0.0,0.0,0.0,0.0,0.0,0.0,0.0,0.0,0.0,0.0,0.0,0.0,0.0,0.0,0.0,0.0,0.0,0.0,0.0,0.0,0.0,0.0,0.0,0.0,0.0,0.0,0.0,0.0,0.0,0.0,0.0,0.0,0.0,0.0,0.0,0.0,0.0,0.0,0.0,0.0,0.0,0.0,0.0,0.0,0.0,0.0,0.0,0.0,0.0,0.0,0.0,0.0,0.0,0.0,0.0,0.0,0.0,0.0,0.0,0.0,0.0,0.0,0.0,0.0,0.0,0.0,0.0,0.0,0.0,0.0,0.0,0.0,0.0,0.0,0.0,0.0,0.0,0.0,0.0,0.0,0.0,0.0,0.0,0.0,0.0,0.0,0.0,0.0,0.0,0.0,0.0,0.0,0.0,0.0,0.0,0.0,0.0,0.0,0.0,0.0,0.0,0.0,0.0,0.0,0.0,0.0,0.0,0.0,0.0,0.0,0.0,0.0,0.0,0.0,0.0,0.0,0.0,0.0,0.0,0.0,0.0,0.0,0.0,0.0,0.0,0.0,0.0,0.0,0.0,0.0,0.0,0.0,0.0,0.0,0.0,0.0,0.0,0.0,0.0,0.0,0.0,0.0,0.0,0.0,0.0,0.0,0.0,0.0,0.0,0.0,0.0,0.0,0.0,0.0,0.0,0.0,0.0,0.0,0.0,0.0,0.0,0.0,0.0,0.0,0.0,0.0,0.0,0.0,0.0,0.0,0.0,0.0,0.0,0.0,0.0,0.0,0.0,0.0,0.0,0.0,0.0,0.0,0.0,0.0,0.0,0.0,0.0,0.0,0.0,0.0,0.0,0.0,0.0,0.0,0.0,0.0,0.0,0.0,0.0,0.0,0.0,0.0,0.0,0.0,0.0,0.0,0.0,0.0,0.0,0.0,0.0,0.0,0.0,0.0,0.0,0.0,0.0,0.0,0.0,0.0,0.0,0.0,0.0,0.0,0.0,0.0,0.0,0.0,0.0,0.0,0.0,0.0,0.0,0.0,0.0,0.0,0.0,0.0,0.0,0.0,0.0,0.0,0.0,0.0,0.0,0.0,0.0,0.0,0.0,0.0,0.0,0.0,0.0,0.0,0.0,0.0,0.0,0.0,0.0,0.0,0.0,0.0,0.0,0.0,0.0,0.0,0.0,0.0,0.0,0.0,0.0,0.0,0.0,0.0,0.0,0.0,0.0,0.0,0.0,0.0,0.0,0.0,0.0,0.0,0.0,0.0,0.0,0.0,0.0,0.0,0.0,0.0,0.0,0.0,0.0,0.0,0.0,0.0,0.0,0.0,0.0,0.0,0.0,0.0,0.0,0.0,0.0,0.0,0.0,0.0,0.0,0.0,0.0,0.0,0.0,0.0,0.0,0.0,0.0,0.0,0.0,0.0,0.0,0.0,0.0,0.0,0.0,0.0,0.0,0.0,0.0,0.0,0.0,0.0,0.0,0.0,0.0,0.0,0.0,0.0,0.0,0.0,0.0,0.0,0.0,0.0,0.0,0.0,0.0,0.0,0.0,0.0,0.0,0.0,0.0,0.0,0.0,0.0,0.0,0.0,0.0,0.0,0.0,0.0,0.0,0.0,0.0,0.0,0.0,0.0,0.0,0.0,0.0,0.0,0.0,0.0,0.0,0.0,0.0,0.0,0.0,0.0,0.0,0.0,0.0,0.0,0.0,0.0,0.0,0.0,0.0,0.0,0.0,0.0,0.0,0.0,0.0,0.0,0.0,0.0,0.0,0.0,0.0,0.0,0.0,0.0,0.0,0.0,0.0,0.0,0.0,0.0,0.0,0.0,0.0,0.0,0.0,0.0,-3.0522,0.0,0.0,0.0,0.0,0.0,0.0,0.0,0.0,0.0,0.0,0.0,0.0,0.0,0.0,0.0,0.0,0.0,0.0,0.0,0.0,0.0,0.0,0.0,0.0,0.0,0.0,0.0,0.0,0.0,0.0,0.0,0.0,0.0,0.0,0.0,0.0,0.0,0.0,0.0,0.0,0.0,0.0,0.0,0.0,0.0,0.0,0.0,0.0,0.0,0.0,0.0,0.0,0.0,0.0,0.0,0.0,0.0,0.0,0.0,0.0,0.0,0.0,0.0,0.0,0.0,0.0,0.0,0.0,0.0,0.0,0.0,0.0,0.0,0.0,0.0,0.0,0.0,0.0,0.0,0.0,0.0,0.0,0.0,0.0,0.0,0.0,0.0,0.0,0.0,0.0,0.0,0.0,0.0,0.0,0.0,0.0,0.0,0.0,0.0,0.0,0.0,0.0,0.0,0.0,0.0,0.0,0.0,0.0,0.0,0.0,-3.1511,-3.1511,-3.1511,-3.1361,-3.1062,0.0,0.0,0.0,0.0,0.0,0.0,0.0,0.0,0.0,0.0,0.0,0.0,0.0,0.0,0.0,0.0,0.0,0.0,0.0,0.0,0.0,0.0,0.0,0.0,0.0,0.0,0.0,0.0,0.0,0.0,0.0,0.0,0.0,0.0,0.0,0.0,0.0,0.0,0.0,0.0,0.0,0.0,0.0,0.0,0.0,0.0,0.0,0.0,0.0,0.0,0.0,0.0,0.0,0.0,0.0,0.0,0.0,0.0,0.0,0.0,0.0,0.0,0.0,0.0,0.0,0.0,0.0,0.0,0.0,0.0,0.0,0.0,0.0,0.0,0.0,0.0,0.0,0.0,0.0,0.0,0.0,0.0,0.0,0.0,0.0,0.0,0.0,0.0,0.0,0.0,0.0,0.0,0.0,0.0,0.0,0.0,0.0,0.0,0.0,0.0,0.0,0.0,0.0,0.0,0.0,0.0,0.0,0.0,0.0,0.0,0.0,0.0,-3.1511,-3.1511,-3.1511,0.0,0.0,0.0,0.0,0.0,0.0,0.0,0.0,0.0,0.0,0.0,0.0,0.0,0.0,0.0,0.0,0.0,0.0,0.0,0.0,0.0,0.0,0.0,0.0,0.0,0.0,0.0,0.0,0.0,0.0,0.0,0.0,0.0,0.0,0.0,0.0,0.0,0.0,0.0,0.0,0.0,0.0,0.0,0.0,0.0,0.0,0.0,0.0,0.0,0.0,0.0,0.0,0.0,0.0,0.0,0.0,0.0,0.0,0.0,0.0,0.0,0.0,0.0,0.0,0.0,0.0,0.0,0.0,0.0,0.0,0.0,0.0,0.0,0.0,0.0,0.0,0.0,0.0,0.0,0.0,0.0,0.0,0.0,0.0,0.0,0.0,0.0,0.0,0.0,0.0,0.0,0.0,0.0,0.0,0.0,0.0,0.0,0.0,0.0,0.0,0.0,0.0,0.0,0.0,0.0,0.0,0.0,0.0,0.0,0.0,-3.1511,-3.1511,-3.1511,0.0,-3.1511,0.0,0.0,0.0,0.0,0.0,0.0,0.0,0.0,0.0,0.0,0.0,0.0,0.0,0.0,0.0,0.0,0.0,0.0,0.0,0.0,0.0,0.0,0.0,0.0,0.0,0.0,0.0,0.0,0.0,0.0,0.0,0.0,0.0,0.0,0.0,0.0,0.0,0.0,0.0,0.0,0.0,0.0,0.0,0.0,0.0,0.0,0.0,0.0,0.0,0.0,0.0,0.0,0.0,0.0,0.0,0.0,0.0,0.0,0.0,0.0,0.0,0.0,0.0,0.0,0.0,0.0,0.0,0.0,0.0,0.0,0.0,0.0,0.0,0.0,0.0,0.0,0.0,0.0,0.0,0.0,0.0,0.0,0.0,0.0,0.0,0.0,0.0,0.0,0.0,0.0,0.0,0.0,0.0,0.0,0.0,0.0,0.0,0.0,0.0,0.0,0.0,0.0,0.0,0.0,0.0,0.0,0.0,0.0,0.0,0.0,-3.1899,-3.1511,-3.1511,-3.1511,0.0,0.0,0.0,0.0,0.0,0.0,0.0,0.0,0.0,0.0,0.0,0.0,0.0,0.0,0.0,0.0,0.0,0.0,0.0,0.0,0.0,0.0,0.0,0.0,0.0,0.0,0.0,0.0,0.0,0.0,0.0,0.0,0.0,0.0,0.0,0.0,0.0,0.0,0.0,0.0,0.0,0.0,0.0,0.0,0.0,0.0,0.0,0.0,0.0,0.0,0.0,0.0,0.0,0.0,0.0,0.0,0.0,0.0,0.0,0.0,0.0,0.0,0.0,0.0,0.0,0.0,0.0,0.0,0.0,0.0,0.0,0.0,0.0,0.0,0.0,0.0,0.0,0.0,0.0,0.0,0.0,0.0,0.0,0.0,0.0,0.0,0.0,0.0,0.0,0.0,0.0,0.0,0.0,0.0,0.0,0.0,0.0,0.0,0.0,0.0,0.0,0.0,0.0,0.0,0.0,0.0,0.0,0.0,0.0,0.0,-3.1959,-3.1989,-3.154,-3.1511,-3.1421,-3.1241,0.0,0.0,0.0,0.0,0.0,0.0,0.0,0.0,0.0,0.0,0.0,0.0,0.0,0.0,0.0,0.0,0.0,0.0,0.0,0.0,0.0,0.0,0.0,0.0,0.0,0.0,0.0,0.0,0.0,0.0,0.0,0.0,0.0,0.0,0.0,0.0,0.0,0.0,0.0,0.0,0.0,0.0,0.0,0.0,0.0,0.0,0.0,0.0,0.0,0.0,0.0,0.0,0.0,0.0,0.0,0.0,0.0,0.0,0.0,0.0,0.0,0.0,0.0,0.0,0.0,0.0,0.0,0.0,0.0,0.0,0.0,0.0,0.0,0.0,0.0,0.0,0.0,0.0,0.0,0.0,0.0,0.0,0.0,0.0,0.0,0.0,0.0,0.0,0.0,0.0,0.0,0.0,0.0,0.0,0.0,0.0,0.0,0.0,0.0,0.0,0.0,0.0,0.0,0.0,0.0,0.0,0.0,0.0,-3.1511,-3.154,-3.154,-3.1511,-3.1511,-3.1182,0.0,0.0,0.0,0.0,0.0,0.0,0.0,0.0,0.0,0.0,0.0,0.0,0.0,0.0,0.0,0.0,0.0,0.0,0.0,0.0,0.0,0.0,0.0,0.0,0.0,0.0,0.0,0.0,0.0,0.0,0.0,0.0,0.0,0.0,0.0,0.0,0.0,0.0,0.0,0.0,0.0,0.0,0.0,0.0,0.0,0.0,0.0,0.0,0.0,0.0,0.0,0.0,0.0,0.0,0.0,0.0,0.0,0.0,0.0,0.0,0.0,0.0,0.0,0.0,0.0,0.0,0.0,0.0,0.0,0.0,0.0,0.0,0.0,0.0,0.0,0.0,0.0,0.0,0.0,0.0,0.0,0.0,0.0,0.0,0.0,0.0,0.0,0.0,0.0,0.0,0.0,0.0,0.0,0.0,0.0,0.0,0.0,0.0,0.0,0.0,0.0,0.0,0.0,0.0,0.0,0.0,0.0,0.0,0.0,-3.1511,-3.1511,-3.169,-3.2108,-3.172,-3.1182,0.0,0.0,0.0,0.0,0.0,0.0,0.0,0.0,0.0,0.0,0.0,0.0,0.0,0.0,0.0,0.0,0.0,0.0,0.0,0.0,0.0,0.0,0.0,0.0,0.0,0.0,0.0,0.0,0.0,0.0,0.0,0.0,0.0,0.0,0.0,0.0,0.0,0.0,0.0,0.0,0.0,0.0,0.0,0.0,0.0,0.0,0.0,0.0,0.0,0.0,0.0,0.0,0.0,0.0,0.0,0.0,0.0,0.0,0.0,0.0,0.0,0.0,0.0,0.0,0.0,0.0,0.0,0.0,0.0,0.0,0.0,0.0,0.0,0.0,0.0,0.0,0.0,0.0,0.0,0.0,0.0,0.0,0.0,0.0,0.0,0.0,0.0,0.0,0.0,0.0,0.0,0.0,0.0,0.0,0.0,0.0,0.0,0.0,0.0,0.0,0.0,0.0,0.0,0.0,0.0,0.0,0.0,0.0,0.0,-3.1809,0.0,-3.2258,-3.2437,-3.2049,-3.1301,0.0,0.0,0.0,0.0,0.0,0.0,0.0,0.0,0.0,0.0,0.0,0.0,0.0,0.0,0.0,0.0,0.0,0.0,0.0,0.0,0.0,0.0,0.0,0.0,0.0,0.0,0.0,0.0,0.0,0.0,0.0,0.0,0.0,0.0,0.0,0.0,0.0,0.0,0.0,0.0,0.0,0.0,0.0,0.0,0.0,0.0,0.0,0.0,0.0,0.0,0.0,0.0,0.0,0.0,0.0,0.0,0.0,0.0,0.0,0.0,0.0,0.0,0.0,0.0,0.0,0.0,0.0,0.0,0.0,0.0,0.0,0.0,0.0,0.0,0.0,0.0,0.0,0.0,0.0,0.0,0.0,0.0,0.0,0.0,0.0,0.0,0.0,0.0,0.0,0.0,0.0,0.0,0.0,0.0,0.0,0.0,0.0,0.0,0.0,0.0,0.0,0.0,0.0,0.0,0.0,0.0,0.0,0.0,-3.1899,-3.2527,-3.3185,-3.3245,-3.2557,-3.2557,-3.1599,0.0,0.0,0.0,0.0,0.0,0.0,0.0,0.0,0.0,0.0,0.0,0.0,0.0,0.0,0.0,0.0,0.0,0.0,0.0,0.0,0.0,0.0,0.0,0.0,0.0,0.0,0.0,0.0,0.0,0.0,0.0,0.0,0.0,0.0,0.0,0.0,0.0,0.0,0.0,0.0,0.0,0.0,0.0,0.0,0.0,0.0,0.0,0.0,0.0,0.0,0.0,0.0,0.0,0.0,0.0,0.0,0.0,0.0,0.0,0.0,0.0,0.0,0.0,0.0,0.0,0.0,0.0,0.0,0.0,0.0,0.0,0.0,0.0,0.0,0.0,0.0,0.0,0.0,0.0,0.0,0.0,0.0,0.0,0.0,0.0,0.0,0.0,0.0,0.0,0.0,0.0,0.0,0.0,0.0,0.0,0.0,0.0,0.0,0.0,0.0,0.0,0.0,0.0,0.0,0.0,0.0,0.0,0.0,0.0,-3.3903,-3.4532,-3.4562,-3.3903,-3.3425,-3.2467,0.0,0.0,0.0,0.0,0.0,0.0,0.0,0.0,0.0,0.0,0.0,0.0,0.0,0.0,0.0,0.0,0.0,0.0,0.0,0.0,0.0,0.0,0.0,0.0,0.0,0.0,0.0,0.0,0.0,0.0,0.0,0.0,0.0,0.0,0.0,0.0,0.0,0.0,0.0,0.0,0.0,0.0,0.0,0.0,0.0,0.0,0.0,0.0,0.0,0.0,0.0,0.0,0.0,0.0,0.0,0.0,0.0,0.0,0.0,0.0,0.0,0.0,0.0,0.0,0.0,0.0,0.0,0.0,0.0,0.0,0.0,0.0,0.0,0.0,0.0,0.0,0.0,0.0,0.0,0.0,0.0,0.0,0.0,0.0,0.0,0.0,0.0,0.0,0.0,0.0,0.0,0.0,0.0,0.0,0.0,0.0,0.0,0.0,0.0,0.0,0.0,0.0,0.0,0.0,0.0,0.0,0.0,0.0,0.0,-3.7079,-3.7225,-3.6982,-3.6227,-3.5332,-3.3988,-3.208,0.0,0.0,0.0,0.0,0.0,0.0,0.0,0.0,0.0,0.0,0.0,0.0,0.0,0.0,0.0,0.0,0.0,0.0,0.0,0.0,0.0,0.0,0.0,0.0,0.0,0.0,0.0,0.0,0.0,0.0,0.0,0.0,0.0,0.0,0.0,0.0,0.0,0.0,0.0,0.0,0.0,0.0,0.0,0.0,0.0,0.0,0.0,0.0,0.0,0.0,0.0,0.0,0.0,0.0,0.0,0.0,0.0,0.0,0.0,0.0,0.0,0.0,0.0,0.0,0.0,0.0,0.0,0.0,0.0,0.0,0.0,0.0,0.0,0.0,0.0,0.0,0.0,0.0,0.0,0.0,0.0,0.0,0.0,0.0,0.0,0.0,0.0,0.0,0.0,0.0,0.0,0.0,0.0,0.0,0.0,0.0,0.0,0.0,0.0,0.0,0.0,0.0,0.0,0.0,0.0,0.0,0.0,0.0,-4.1564,-4.1107,-4.0338,-3.9327,-3.802,-3.6018,0.0,0.0,0.0,0.0,0.0,0.0,0.0,0.0,0.0,0.0,0.0,0.0,0.0,0.0,0.0,0.0,0.0,0.0,0.0,0.0,0.0,0.0,0.0,0.0,0.0,0.0,0.0,0.0,0.0,0.0,0.0,0.0,0.0,0.0,0.0,0.0,0.0,0.0,0.0,0.0,0.0,0.0,0.0,0.0,0.0,0.0,0.0,0.0,0.0,0.0,0.0,0.0,0.0,0.0,0.0,0.0,0.0,0.0,0.0,0.0,0.0,0.0,0.0,0.0,0.0,0.0,0.0,0.0,0.0,0.0,0.0,0.0,0.0,0.0,0.0,0.0,0.0,0.0,0.0,0.0,0.0,0.0,0.0,0.0,0.0,0.0,0.0,0.0,0.0,0.0,0.0,0.0,0.0,0.0,0.0,0.0,0.0,0.0,0.0,0.0,0.0,0.0,0.0,0.0,0.0,0.0,0.0,0.0,0.0,-4.3872,-4.5312,-4.4739,-4.208,-3.9909,-3.7784,0.0,0.0,0.0,0.0,0.0,0.0,0.0,0.0,0.0,0.0,0.0,0.0,0.0,0.0,0.0,0.0,0.0,0.0,0.0,0.0,0.0,0.0,0.0,0.0,0.0,0.0,0.0,0.0,0.0,0.0,0.0,0.0,0.0,0.0,0.0,0.0,0.0,0.0,0.0,0.0,0.0,0.0,0.0,0.0,0.0,0.0,0.0,0.0,0.0,0.0,0.0,0.0,0.0,0.0,0.0,0.0,0.0,0.0,0.0,0.0,0.0,0.0,0.0,0.0,0.0,0.0,0.0,0.0,0.0,0.0,0.0,0.0,0.0,0.0,0.0,0.0,0.0,0.0,0.0,0.0,0.0,0.0,0.0,0.0,0.0,0.0,0.0,0.0,0.0,0.0,0.0,0.0,0.0,0.0,0.0,0.0,0.0,0.0,0.0,0.0,0.0,0.0,0.0,0.0,0.0,0.0,0.0,0.0,-4.3105,-4.6153,-4.8231,-4.8275,-4.6279,-4.2834,-3.9949,0.0,0.0,0.0,0.0,0.0,0.0,0.0,0.0,0.0,0.0,0.0,0.0,0.0,0.0,0.0,0.0,0.0,0.0,0.0,0.0,0.0,0.0,0.0,0.0,0.0,0.0,0.0,0.0,0.0,0.0,0.0,0.0,0.0,0.0,0.0,0.0,0.0,0.0,0.0,0.0,0.0,0.0,0.0,0.0,0.0,0.0,0.0,0.0,0.0,0.0,0.0,0.0,0.0,0.0,0.0,0.0,0.0,0.0,0.0,0.0,0.0,0.0,0.0,0.0,0.0,0.0,0.0,0.0,0.0,0.0,0.0,0.0,0.0,0.0,0.0,0.0,0.0,0.0,0.0,0.0,0.0,0.0,0.0,0.0,0.0,0.0,0.0,0.0,0.0,0.0,0.0,0.0,0.0,0.0,0.0,0.0,0.0,0.0,0.0,0.0,0.0,0.0,0.0,0.0,0.0,0.0,0.0,0.0,-4.5373,-4.8173,-5.0054,-5.0989,-5.0616,-4.596,-4.2121,0.0,0.0,0.0,0.0,0.0,0.0,0.0,0.0,0.0,0.0,0.0,0.0,0.0,0.0,0.0,0.0,0.0,0.0,0.0,0.0,0.0,0.0,0.0,0.0,0.0,0.0,0.0,0.0,0.0,0.0,0.0,0.0,0.0,0.0,0.0,0.0,0.0,0.0,0.0,0.0,0.0,0.0,0.0,0.0,0.0,0.0,0.0,0.0,0.0,0.0,0.0,0.0,0.0,0.0,0.0,0.0,0.0,0.0,0.0,0.0,0.0,0.0,0.0,0.0,0.0,0.0,0.0,0.0,0.0,0.0,0.0,0.0,0.0,0.0,0.0,0.0,0.0,0.0,0.0,0.0,0.0,0.0,0.0,0.0,0.0,0.0,0.0,0.0,0.0,0.0,0.0,0.0,0.0,0.0,0.0,0.0,0.0,0.0,0.0,0.0,0.0,0.0,0.0,0.0,0.0,0.0,0.0,0.0,-4.6227,-4.9507,-5.0853,-5.1311,-5.0876,-4.704,-4.3546,0.0,0.0,0.0,0.0,0.0,0.0,0.0,0.0,0.0,0.0,0.0,0.0,0.0,0.0,0.0,0.0,0.0,0.0,0.0,0.0,0.0,0.0,0.0,0.0,0.0,0.0,0.0,0.0,0.0,0.0,0.0,0.0,0.0,0.0,0.0,0.0,0.0,0.0,0.0,0.0,0.0,0.0,0.0,0.0,0.0,0.0,0.0,0.0,-2.9322,0.0,0.0,0.0,0.0,0.0,0.0,0.0,0.0,0.0,0.0,0.0,0.0,0.0,0.0,0.0,0.0,0.0,0.0,0.0,0.0,0.0,0.0,0.0,0.0,0.0,0.0,0.0,0.0,0.0,0.0,0.0,0.0,0.0,0.0,0.0,0.0,0.0,0.0,0.0,0.0,0.0,0.0,0.0,0.0,0.0,0.0,0.0,0.0,0.0,0.0,0.0,0.0,0.0,0.0,0.0,0.0,0.0,0.0,0.0,-4.7339,-5.0285,-5.1681,-5.1982,-5.1028,-4.7812,-4.4435,0.0,0.0,0.0,0.0,0.0,0.0,0.0,0.0,0.0,0.0,0.0,0.0,0.0,0.0,0.0,0.0,0.0,0.0,0.0,0.0,0.0,0.0,0.0,0.0,0.0,0.0,0.0,0.0,0.0,0.0,0.0,0.0,0.0,0.0,0.0,0.0,0.0,0.0,0.0,0.0,0.0,0.0,0.0,0.0,0.0,0.0,0.0,0.0,0.0,0.0,0.0,0.0,0.0,0.0,0.0,0.0,0.0,0.0,0.0,0.0,0.0,0.0,0.0,0.0,0.0,0.0,0.0,0.0,0.0,0.0,0.0,0.0,0.0,0.0,0.0,0.0,0.0,0.0,0.0,0.0,0.0,0.0,0.0,0.0,0.0,0.0,0.0,0.0,0.0,0.0,0.0,0.0,0.0,0.0,0.0,0.0,0.0,0.0,0.0,0.0,0.0,0.0,0.0,0.0,0.0,0.0,0.0,-4.531,-4.8424,-5.0841,-5.2338,-5.243,-5.1186,-4.8193,-4.4887,-4.121,0.0,0.0,0.0,0.0,0.0,0.0,0.0,0.0,0.0,0.0,0.0,0.0,0.0,0.0,0.0,0.0,0.0,0.0,0.0,0.0,0.0,0.0,0.0,0.0,0.0,0.0,0.0,0.0,0.0,0.0,0.0,0.0,0.0,0.0,0.0,0.0,0.0,0.0,-2.9924,-3.1659,0.0,0.0,0.0,0.0,0.0,0.0,0.0,0.0,-3.1809,0.0,0.0,0.0,0.0,0.0,0.0,0.0,0.0,0.0,0.0,0.0,0.0,0.0,0.0,0.0,0.0,0.0,0.0,0.0,0.0,0.0,0.0,0.0,0.0,0.0,0.0,0.0,0.0,0.0,0.0,0.0,0.0,0.0,0.0,0.0,0.0,0.0,0.0,0.0,0.0,0.0,0.0,0.0,0.0,0.0,0.0,0.0,0.0,0.0,0.0,0.0,0.0,0.0,0.0,0.0,0.0,-4.3342,-4.6338,-4.9054,-5.1487,-5.2342,-5.1922,-5.0146,-4.7848,-4.4637,-4.0491,0.0,0.0,0.0,0.0,0.0,0.0,0.0,0.0,0.0,0.0,0.0,0.0,0.0,0.0,0.0,0.0,0.0,0.0,0.0,0.0,0.0,0.0,0.0,0.0,0.0,0.0,0.0,0.0,0.0,0.0,0.0,0.0,0.0,0.0,0.0,0.0,0.0,0.0,0.0,-3.3245,-3.4144,0.0,0.0,0.0,0.0,0.0,0.0,0.0,0.0,-3.2706,0.0,0.0,0.0,0.0,0.0,0.0,0.0,0.0,0.0,0.0,0.0,0.0,0.0,0.0,0.0,0.0,0.0,0.0,0.0,0.0,0.0,0.0,0.0,0.0,0.0,0.0,0.0,0.0,0.0,0.0,0.0,0.0,0.0,0.0,0.0,0.0,0.0,0.0,0.0,0.0,0.0,0.0,0.0,0.0,0.0,0.0,0.0,0.0,0.0,0.0,0.0,0.0,0.0,0.0,0.0,-4.3283,-4.6406,-4.9002,-5.1167,-5.1836,-5.1179,-4.9273,-4.7056,-4.3823,0.0,0.0,0.0,0.0,0.0,0.0,0.0,0.0,0.0,0.0,0.0,0.0,0.0,0.0,0.0,0.0,0.0,0.0,0.0,0.0,0.0,0.0,0.0,0.0,0.0,0.0,0.0,0.0,0.0,0.0,0.0,0.0,0.0,0.0,0.0,0.0,0.0,0.0,0.0,0.0,-3.4983,-3.5998,-3.5998,0.0,0.0,0.0,0.0,0.0,0.0,-3.525,-3.4711,0.0,0.0,0.0,0.0,0.0,0.0,0.0,0.0,0.0,0.0,0.0,0.0,0.0,0.0,0.0,0.0,0.0,0.0,0.0,0.0,0.0,0.0,0.0,0.0,0.0,0.0,0.0,0.0,0.0,0.0,0.0,0.0,0.0,0.0,0.0,0.0,0.0,0.0,0.0,0.0,0.0,0.0,0.0,0.0,0.0,0.0,0.0,0.0,0.0,0.0,0.0,0.0,0.0,0.0,0.0,-4.3105,-4.6288,-4.8872,-5.0725,-5.1311,-5.0575,-4.8583,-4.6159,-4.2992,0.0,0.0,0.0,0.0,0.0,0.0,0.0,0.0,0.0,0.0,0.0,0.0,0.0,0.0,0.0,0.0,0.0,0.0,0.0,0.0,0.0,0.0,0.0,0.0,0.0,0.0,0.0,0.0,0.0,0.0,0.0,0.0,0.0,0.0,0.0,0.0,0.0,0.0,0.0,0.0,0.0,-3.7913,-3.8153,-3.8212,0.0,0.0,0.0,0.0,-3.7943,-3.7494,0.0,0.0,0.0,0.0,0.0,0.0,0.0,0.0,0.0,0.0,0.0,0.0,0.0,0.0,0.0,0.0,0.0,0.0,0.0,0.0,0.0,0.0,0.0,0.0,0.0,0.0,0.0,0.0,0.0,0.0,0.0,0.0,0.0,0.0,0.0,0.0,0.0,0.0,0.0,0.0,0.0,0.0,0.0,0.0,0.0,0.0,0.0,0.0,0.0,0.0,0.0,0.0,0.0,0.0,0.0,0.0,-4.364,-4.6602,-4.8971,-5.0729,-5.1338,-5.0539,-4.8223,-4.5719,-4.241,0.0,0.0,0.0,0.0,0.0,0.0,0.0,0.0,0.0,0.0,0.0,0.0,0.0,0.0,0.0,0.0,0.0,0.0,0.0,0.0,0.0,0.0,0.0,0.0,0.0,0.0,0.0,0.0,0.0,0.0,0.0,0.0,0.0,0.0,0.0,0.0,0.0,0.0,0.0,0.0,0.0,-3.9619,-4.0756,-4.0935,-4.0696,0.0,0.0,-3.9978,-4.0038,-3.9499,0.0,0.0,0.0,0.0,0.0,0.0,0.0,0.0,0.0,0.0,0.0,0.0,0.0,0.0,0.0,0.0,0.0,0.0,0.0,0.0,0.0,0.0,0.0,0.0,0.0,0.0,0.0,0.0,0.0,0.0,0.0,0.0,0.0,0.0,0.0,0.0,0.0,0.0,0.0,0.0,0.0,0.0,0.0,0.0,0.0,0.0,0.0,0.0,0.0,0.0,0.0,0.0,0.0,0.0,0.0,-3.9254,-4.3081,-4.6222,-4.8519,-4.9966,-5.0462,-4.964,-4.7401,-4.52,-4.2145,0.0,0.0,0.0,0.0,0.0,0.0,0.0,0.0,0.0,0.0,0.0,0.0,0.0,0.0,0.0,0.0,0.0,0.0,0.0,0.0,0.0,0.0,0.0,0.0,0.0,0.0,0.0,0.0,0.0,0.0,0.0,0.0,0.0,0.0,0.0,0.0,0.0,0.0,0.0,0.0,0.0,0.0,-4.2761,-4.303,0.0,0.0,0.0,-4.2761,-4.312,0.0,0.0,0.0,0.0,0.0,0.0,0.0,0.0,0.0,0.0,0.0,0.0,0.0,0.0,0.0,0.0,0.0,0.0,0.0,0.0,0.0,0.0,0.0,0.0,0.0,0.0,0.0,0.0,0.0,0.0,0.0,0.0,0.0,0.0,0.0,0.0,0.0,0.0,0.0,0.0,0.0,0.0,0.0,0.0,0.0,0.0,0.0,0.0,0.0,0.0,0.0,0.0,0.0,0.0,0.0,0.0,0.0,-4.2284,-4.5681,-4.7997,-4.9203,-4.9798,-4.9114,-4.7009,-4.4918,0.0,0.0,0.0,0.0,0.0,0.0,0.0,0.0,0.0,0.0,0.0,0.0,0.0,0.0,0.0,0.0,0.0,0.0,0.0,0.0,0.0,0.0,0.0,0.0,0.0,0.0,0.0,-2.5266,0.0,0.0,0.0,0.0,0.0,0.0,0.0,0.0,0.0,0.0,0.0,0.0,0.0,0.0,-4.2102,-4.4706,-4.5214,-4.5484,0.0,0.0,-4.5424,-4.5753,-4.4695,-4.3419,0.0,0.0,0.0,0.0,0.0,0.0,0.0,0.0,0.0,0.0,0.0,0.0,0.0,0.0,0.0,0.0,0.0,0.0,0.0,0.0,0.0,0.0,0.0,0.0,0.0,0.0,0.0,0.0,0.0,0.0,0.0,0.0,0.0,0.0,0.0,0.0,0.0,0.0,0.0,0.0,0.0,0.0,0.0,0.0,0.0,0.0,0.0,0.0,0.0,0.0,0.0,0.0,0.0,0.0,-3.8122,-4.1571,-4.5051,-4.7501,-4.8897,-4.9735,-4.9292,-4.7567,-4.512,-4.1982,0.0,0.0,0.0,0.0,0.0,0.0,0.0,0.0,0.0,0.0,0.0,0.0,0.0,0.0,0.0,0.0,0.0,0.0,0.0,0.0,0.0,0.0,0.0,0.0,0.0,0.0,0.0,0.0,0.0,0.0,0.0,0.0,0.0,0.0,0.0,0.0,0.0,0.0,0.0,0.0,0.0,-4.4137,-4.6741,-4.7638,-4.8027,0.0,-4.8027,-4.7818,-4.7249,-4.5883,-4.4269,-4.2426,0.0,0.0,0.0,0.0,0.0,0.0,0.0,0.0,0.0,0.0,0.0,0.0,0.0,0.0,0.0,0.0,0.0,0.0,0.0,0.0,0.0,0.0,0.0,0.0,0.0,0.0,0.0,0.0,0.0,0.0,0.0,0.0,0.0,0.0,0.0,0.0,0.0,0.0,0.0,0.0,0.0,0.0,0.0,0.0,0.0,0.0,0.0,0.0,0.0,0.0,0.0,0.0,0.0,-3.809,-4.0769,-4.472,-4.7265,-4.8255,-4.9267,-4.9002,-4.7338,-4.5028,-4.2308,0.0,0.0,0.0,0.0,0.0,0.0,0.0,0.0,0.0,0.0,0.0,0.0,0.0,0.0,0.0,0.0,0.0,0.0,0.0,0.0,0.0,0.0,0.0,0.0,0.0,0.0,0.0,0.0,-2.6962,-2.7598,-2.8204,0.0,0.0,0.0,0.0,0.0,0.0,0.0,0.0,0.0,0.0,-4.4915,-4.7519,-4.8476,0.0,0.0,-4.8999,-4.8596,-4.8313,-4.665,-4.482,-4.3189,-4.0421,0.0,0.0,0.0,0.0,0.0,0.0,0.0,0.0,0.0,0.0,0.0,0.0,0.0,0.0,0.0,0.0,0.0,0.0,0.0,0.0,0.0,0.0,0.0,0.0,0.0,0.0,0.0,0.0,0.0,0.0,0.0,0.0,0.0,0.0,0.0,0.0,0.0,0.0,0.0,0.0,0.0,0.0,0.0,0.0,0.0,0.0,0.0,0.0,0.0,0.0,0.0,0.0,-3.7985,-4.0466,-4.4516,-4.701,-4.7883,-4.8862,-4.8711,-4.738,-4.5221,-4.2836,0.0,0.0,0.0,0.0,0.0,0.0,0.0,0.0,0.0,0.0,0.0,0.0,0.0,0.0,0.0,0.0,0.0,0.0,0.0,0.0,0.0,0.0,0.0,0.0,0.0,0.0,0.0,0.0,-2.7167,-2.7754,-2.845,0.0,0.0,0.0,0.0,0.0,0.0,0.0,0.0,0.0,0.0,-4.5813,-4.8237,-4.9359,-4.9942,-5.0166,-4.9624,-4.8997,-4.8432,-4.6741,-4.4948,-4.3341,0.0,0.0,0.0,0.0,0.0,0.0,0.0,0.0,0.0,0.0,0.0,0.0,0.0,0.0,0.0,0.0,0.0,0.0,0.0,0.0,0.0,0.0,0.0,0.0,0.0,0.0,0.0,-3.3401,0.0,0.0,-3.1888,0.0,0.0,0.0,0.0,0.0,0.0,0.0,0.0,0.0,0.0,0.0,0.0,0.0,0.0,0.0,0.0,0.0,0.0,0.0,0.0,0.0,0.0,-3.7667,-4.0765,-4.4432,-4.6828,-4.7857,-4.8485,-4.851,-4.7832,-4.5748,-4.3482,-4.12,0.0,0.0,0.0,0.0,0.0,0.0,0.0,0.0,0.0,0.0,0.0,0.0,0.0,0.0,0.0,0.0,0.0,0.0,0.0,0.0,0.0,0.0,0.0,0.0,0.0,0.0,-2.6472,-2.7407,-2.8249,0.0,0.0,0.0,0.0,0.0,0.0,0.0,0.0,0.0,0.0,-4.4616,-4.698,-4.897,-5.0331,-5.084,-5.0255,-4.9981,-4.9189,-4.7347,-4.6078,-4.4658,0.0,0.0,0.0,0.0,0.0,0.0,0.0,0.0,0.0,0.0,0.0,0.0,0.0,0.0,0.0,0.0,0.0,0.0,0.0,0.0,0.0,0.0,0.0,0.0,0.0,0.0,0.0,-3.6347,-3.5763,0.0,0.0,0.0,0.0,0.0,0.0,0.0,0.0,0.0,0.0,0.0,-3.8642,-3.8667,0.0,0.0,0.0,0.0,0.0,0.0,0.0,0.0,0.0,0.0,0.0,0.0,-3.8209,-4.0656,-4.4342,-4.6677,-4.738,-4.8309,-4.8335,-4.7405,-4.5598,-4.271,-3.8693,0.0,0.0,0.0,0.0,0.0,0.0,0.0,0.0,0.0,0.0,0.0,0.0,0.0,0.0,0.0,0.0,0.0,0.0,0.0,0.0,0.0,0.0,0.0,0.0,0.0,-2.7334,0.0,0.0,0.0,0.0,0.0,0.0,0.0,0.0,0.0,0.0,0.0,-4.0307,-4.2701,-4.5304,-4.7369,-4.8476,-4.9374,-4.9853,0.0,0.0,0.0,0.0,0.0,0.0,0.0,0.0,0.0,0.0,0.0,0.0,0.0,0.0,-3.7734,-3.5549,-3.4981,-3.4831,-3.4831,0.0,0.0,0.0,0.0,0.0,0.0,0.0,0.0,0.0,0.0,0.0,0.0,0.0,0.0,-3.8763,0.0,-3.7467,0.0,0.0,0.0,0.0,0.0,0.0,0.0,0.0,-3.9647,-4.0601,-4.1656,-4.1856,-4.1609,0.0,-3.9624,-3.7457,0.0,0.0,0.0,0.0,0.0,0.0,0.0,0.0,-3.8768,-4.1103,-4.4543,-4.6577,-4.7068,-4.8008,-4.8033,-4.7068,-4.5321,-4.2359,-3.8191,-3.6659,-3.4826,0.0,0.0,0.0,0.0,0.0,0.0,0.0,0.0,0.0,0.0,0.0,0.0,0.0,0.0,0.0,0.0,0.0,0.0,0.0,0.0,0.0,0.0,0.0,-2.839,0.0,0.0,0.0,0.0,0.0,0.0,0.0,0.0,0.0,-3.7375,-3.9563,-4.1803,-4.3748,-4.5903,-4.7549,-4.8207,0.0,0.0,0.0,0.0,0.0,0.0,0.0,-4.5155,-4.4539,-4.4486,-4.4531,-4.456,-4.4295,-4.3968,-4.3549,0.0,0.0,-3.8841,-3.8182,-3.8182,-3.8182,-3.8217,-3.8362,-3.902,-3.914,-3.92,0.0,0.0,0.0,0.0,0.0,0.0,0.0,0.0,-4.1559,-4.1178,0.0,-3.9521,0.0,0.0,0.0,0.0,-3.5759,-3.7387,0.0,0.0,-4.1756,-4.2916,-4.389,-4.4468,-4.4166,-4.3112,-4.2564,-4.1433,-3.9647,-3.6006,0.0,0.0,0.0,0.0,0.0,0.0,-3.9446,-4.2187,-4.492,-4.6577,-4.7104,-4.7631,-4.7631,-4.7004,-4.492,-4.2484,-3.9873,-3.8642,-3.7036,-3.4831,-3.3194,0.0,0.0,0.0,0.0,0.0,0.0,0.0,0.0,0.0,0.0,0.0,0.0,0.0,0.0,0.0,0.0,0.0,0.0,0.0,0.0,-2.923,0.0,0.0,0.0,0.0,0.0,0.0,0.0,0.0,0.0,0.0,-3.9896,-4.1462,-4.3189,-4.5065,0.0,0.0,0.0,0.0,-4.903,-4.8386,-4.8089,-4.7496,-4.6351,-4.5898,-4.5561,-4.4971,0.0,0.0,-4.7206,-4.7339,-4.7309,-4.7339,-4.7219,-4.6142,-4.2372,-4.1624,-4.1534,-4.1572,-4.1534,-4.1811,-4.2381,-4.256,-4.271,-4.8298,0.0,0.0,0.0,0.0,-4.3073,-4.3727,-4.4457,-4.4719,-4.4342,-4.3413,-4.271,0.0,0.0,0.0,0.0,0.0,0.0,-4.148,-4.3438,-4.4192,-4.5121,-4.614,-4.6728,-4.6602,-4.5924,-4.4995,-4.4091,-4.3112,-4.0501,-3.8015,-3.5751,0.0,0.0,0.0,0.0,-4.0777,-4.2785,-4.5472,-4.6778,-4.6552,-4.7431,-4.7079,-4.5372,-4.3966,-4.2484,-4.0902,-3.9798,-3.8366,-3.6558,-3.5278,0.0,0.0,0.0,0.0,0.0,0.0,0.0,0.0,0.0,0.0,0.0,0.0,0.0,0.0,0.0,0.0,0.0,0.0,0.0,-3.1087,-3.1487,-3.172,0.0,0.0,0.0,0.0,0.0,0.0,0.0,0.0,0.0,-4.3245,-4.4035,-4.4855,0.0,0.0,-4.7369,-4.7549,-4.7758,-4.7967,-4.8237,-4.8089,0.0,-4.8075,-4.803,-4.7881,-4.7748,-4.8075,-4.8432,-4.8686,-4.8716,-4.876,-4.8716,-4.8716,-4.8297,-4.7322,-4.5843,-4.4975,-4.4915,-4.4915,-4.5125,-4.5723,-4.5873,-4.5933,-5.2472,-4.8636,-4.6793,-4.6078,-4.6125,-4.6451,-4.7179,-4.8109,-4.7983,-4.7556,-4.6828,-4.5648,-4.4267,-4.276,-4.1982,0.0,0.0,0.0,-4.3815,-4.5321,-4.6326,-4.7129,-4.7807,-4.856,-4.851,-4.7757,-4.6677,-4.5849,-4.5271,-4.3288,-4.1304,-3.9372,0.0,0.0,-3.8868,-4.0601,-4.2308,-4.3991,-4.625,-4.7179,-4.6652,-4.6853,-4.62,-4.4694,-4.3765,-4.2785,-4.1706,-4.0802,-3.9672,-3.8241,-3.691,-3.5332,0.0,0.0,0.0,0.0,0.0,0.0,0.0,0.0,0.0,0.0,0.0,-2.659,-2.7404,0.0,0.0,0.0,-3.0699,-3.2275,-3.4009,-3.4027,0.0,0.0,0.0,0.0,0.0,0.0,0.0,-4.0157,-4.1994,-4.382,-4.5565,-4.6433,-4.692,-4.707,-4.7668,-4.8087,-4.8087,0.0,-4.8207,-4.864,-4.8566,-4.8596,-4.9014,-4.9073,-4.9133,-4.9356,-4.9552,-4.9763,-5.0002,-5.0032,-5.0032,-5.0032,-5.0032,-5.0032,-5.0032,-4.9045,-4.8057,-4.7608,-4.7489,-4.7638,-4.8027,-4.8087,-4.8087,-5.6319,-5.4587,-5.0962,-4.9565,-4.9866,-4.9891,-5.077,-5.2076,-5.1096,-5.0594,-5.0343,-4.836,-4.7104,-4.6451,-4.5372,0.0,-4.4242,-4.5271,-4.6075,-4.6702,-4.8209,-4.8937,-4.9012,-4.9967,-4.9891,-4.8887,-4.7782,-4.6979,-4.6376,-4.4794,-4.3966,-4.3865,-4.1404,-4.0651,-4.1551,-4.2635,-4.3991,-4.5598,-4.7179,-4.7732,-4.7143,-4.6024,-4.5171,-4.4644,-4.4016,-4.3187,-4.2263,-4.158,-4.0724,-3.9722,-3.8165,-3.681,-3.5558,0.0,0.0,0.0,0.0,0.0,0.0,0.0,0.0,0.0,0.0,0.0,0.0,0.0,0.0,0.0,-3.3751,0.0,-3.695,-3.6795,0.0,0.0,0.0,-3.8094,-3.882,-4.0158,-4.1493,-4.2779,0.0,0.0,-4.7094,-4.8432,-4.9105,-4.8506,-4.8925,-4.9299,-4.9299,-4.9269,-4.9329,-4.9359,-4.9389,-4.9374,-4.9523,-4.9523,-4.9703,-5.0166,-5.0285,-5.0465,-5.102,-5.1139,-5.1199,-5.1139,-5.1199,-5.1199,-5.1199,-5.105,-5.084,-4.9583,-4.9449,-4.9449,-4.9479,-4.9479,-4.9449,-5.8453,-5.7549,-5.5365,-5.3557,-5.2176,-5.2553,-5.2729,-5.2729,-5.2879,-5.2226,-5.1046,-5.0544,-4.9515,-4.8159,-4.7456,-4.7305,-4.7606,-4.792,-4.851,-4.9439,-4.9841,-5.0268,-5.067,-5.0494,-5.0268,-4.9967,-4.8912,-4.8083,-4.7481,-4.6301,-4.5497,-4.507,-4.4418,-4.4016,-4.3865,-4.4543,-4.5497,-4.6728,-4.7933,-4.8284,-4.7682,-4.5824,-4.4769,-4.4618,-4.3263,-4.2489,-4.2213,-4.1229,-4.04,-3.9722,-3.8919,-3.7789,-3.6282,-3.4776,0.0,0.0,0.0,0.0,0.0,0.0,0.0,0.0,0.0,-2.9829,-3.127,0.0,-3.2089,0.0,-3.5109,-3.6891,-3.8345,-3.8765,0.0,0.0,-4.1,-4.1881,-4.327,-4.3934,-4.4877,-4.6504,-4.7155,-4.7822,-4.8626,-4.9448,-4.9897,-4.9793,-4.9464,-4.9299,-4.9299,-4.9299,-4.9479,-4.9883,-5.0002,-5.0182,-5.0631,-5.075,-5.075,-5.0913,-5.0943,-5.105,-5.1199,-5.1229,-5.1229,-5.1229,-5.1229,-5.1229,-5.1229,-5.1229,-5.1139,-5.081,-5.075,-5.075,-5.075,-5.075,-5.075,-6.001,-5.8981,-5.8052,-5.6545,-5.4762,-5.4536,-5.4436,-5.4411,-5.4436,-5.3808,-5.2703,-5.1975,-5.0996,-4.9891,-4.954,-4.959,-4.9866,-4.9891,-5.0218,-5.0795,-5.1071,-5.1071,-5.0896,-5.082,-5.0519,-5.0017,-4.9188,-4.8611,-4.8234,-4.7205,-4.6527,-4.6225,-4.6225,-4.6175,-4.6125,-4.6677,-4.7255,-4.7857,-4.8209,-4.8109,-4.7531,-4.5648,-4.4392,-4.389,-4.276,-4.2087,-4.1806,-4.0978,-4.0375,-4.0049,-3.9295,-3.8341,-3.7186,-3.583,-3.4379,0.0,0.0,0.0,0.0,0.0,0.0,0.0,0.0,0.0,0.0,0.0,-3.4363,-3.5927,-3.7495,-3.9043,-4.0561,-4.1233,-4.2025,-4.3109,-4.3957,-4.4906,-4.602,-4.6638,-4.7377,-4.8432,-4.8805,-4.9178,-4.9673,-5.0226,-5.0614,-5.0644,-5.0361,-5.0122,-5.0152,-5.0122,-5.0272,-5.0554,-5.0614,-5.0734,-5.1169,-5.1229,-5.1229,-5.1229,-5.1229,-5.1229,-5.1229,-5.1229,-5.1229,-5.1229,-5.1229,-5.1229,-5.1229,-5.1229,-5.1229,-5.1229,-5.1229,-5.1229,-5.1229,-5.1229,-5.1229,-6.1115,-5.9709,-5.9558,-5.8579,-5.7072,-5.6043,-5.5817,-5.6168,-5.5717,-5.5139,-5.4486,-5.298,-5.2,-5.1498,-5.1498,-5.1498,-5.1498,-5.1498,-5.1498,-5.1523,-5.2,-5.1649,-5.067,-5.1071,-5.072,-4.969,-4.9138,-4.8837,-4.88,-4.7807,-4.7305,-4.7193,-4.7305,-4.7581,-4.8033,-4.8661,-4.8937,-4.8862,-4.8234,-4.7657,-4.7129,-4.5497,-4.4091,-4.3037,-4.2359,-4.1806,-4.12,-4.0701,-4.0425,-4.0375,-3.9496,-3.8718,-3.8115,-3.6684,-3.5533,0.0,-3.3495,0.0,0.0,0.0,0.0,0.0,0.0,0.0,0.0,-3.5683,-3.69,-3.8979,-4.0112,-4.1448,-4.2988,-4.3883,-4.4621,-4.5435,-4.6553,-4.7437,-4.7936,-4.8711,-4.9266,-4.9494,-5.0002,-5.0315,-5.0345,-5.0823,-5.1229,-5.1319,-5.1319,-5.1349,-5.1439,-5.1289,-5.1139,-5.1229,-5.1229,-5.1169,-5.1199,-5.1229,-5.1229,-5.1229,-5.1229,-5.1229,-5.1229,-5.1229,-5.1229,-5.1229,-5.1229,-5.1229,-5.1229,-5.1229,-5.1229,-5.1229,-5.1229,-5.1229,-5.1229,-5.1229,-5.1229,-6.1567,-6.0788,-5.9885,-5.883,-5.7675,-5.7022,-5.652,-5.6194,-5.6093,-5.5491,-5.4536,-5.3758,-5.3105,-5.2628,-5.2628,-5.2628,-5.2628,-5.2628,-5.2628,-5.2603,-5.2729,-5.2427,-5.1774,-5.1448,-5.0921,-5.0268,-4.969,-4.9213,-4.8761,-4.856,-4.8234,-4.7782,-4.8234,-4.851,-4.8661,0.0,0.0,0.0,-4.8435,-4.7657,-4.7104,-4.5497,-4.4091,-4.3011,-4.2007,0.0,-4.0676,-4.0149,-3.9848,-3.9848,-3.9647,0.0,0.0,0.0,0.0,0.0,0.0,0.0,0.0,0.0,0.0,0.0,-3.7756,-3.7781,-3.7437,-3.8316,-3.9474,-4.0773,-4.1718,-4.2865,-4.4452,-4.5518,-4.6537,-4.7655,-4.8494,-4.9228,-4.9852,-5.0453,-5.0794,-5.084,-5.096,-5.105,-5.1079,-5.1139,-5.1439,-5.1917,-5.2007,-5.2247,-5.2695,-5.1887,-5.1259,-5.1229,-5.1229,-5.1229,-5.1229,-5.1229,-5.1229,-5.1229,-5.1229,-5.1229,-5.1259,-5.1229,-5.1229,-5.1229,-5.1229,-5.1229,-5.1229,-5.1229,-5.1229,-5.1229,-5.1229,-5.1229,-5.1229,-5.1229,-5.1229,-6.2179,-6.1368,-6.0784,-5.9744,0.0,-5.8146,-5.7415,-5.651,-5.6292,-5.5742,-5.4913,-5.4084,-5.3557,-5.3306,-5.303,-5.2861,-5.2861,-5.2861,-5.2861,-5.2929,-5.3136,-5.275,-5.1942,-5.1864,-5.1216,-5.0276,-4.9999,-4.9593,-4.9188,-4.8976,-4.8611,-4.8335,-4.8611,-4.8786,-4.8786,-4.9339,-4.959,-4.959,-4.8234,-4.7129,-4.6301,-4.4945,-4.3689,-4.2665,-4.1781,0.0,0.0,0.0,0.0,0.0,0.0,0.0,0.0,-3.8843,0.0,-3.7712,-3.7588,-3.7637,-3.7783,-3.8313,-3.9018,-3.9853,-4.1235,-4.1338,-3.9779,-4.0438,-4.1513,-4.2968,-4.373,-4.4908,-4.6837,-4.8021,-4.9016,-4.9907,-5.0671,-5.1254,-5.1628,-5.1947,-5.2187,-5.2187,-5.2187,-5.2187,-5.2187,-5.2187,-5.2306,-5.2636,-5.2695,-5.2785,-5.3025,-5.2336,-5.1618,-5.1289,-5.1229,-5.1229,-5.1229,-5.1229,-5.1229,-5.1229,-5.1229,-5.1349,-5.1648,-5.1439,-5.1319,-5.1588,-5.1439,-5.1229,-5.1229,-5.1229,-5.1229,-5.1229,-5.1229,-5.1229,-5.1229,-5.1229,-5.1229,-6.2947,-6.1917,-6.1891,-6.0912,-5.9415,-5.9415,-5.8551,-5.7091,-5.6558,0.0,0.0,-5.4522,-5.4018,-5.3892,-5.3362,-5.3042,-5.3067,-5.3067,-5.2998,-5.2998,-5.3341,-5.2987,-5.2063,-5.2291,-5.1702,-5.0474,-5.0283,-5.004,-4.9654,-4.9202,-4.8912,-4.8976,-4.8912,-4.8862,-4.8786,-4.8786,-4.8887,-4.9088,-4.7732,-4.6502,-4.5497,-4.4392,-4.3288,-4.2238,-4.1731,-4.1229,-4.0623,-4.0224,-3.9973,-3.9998,-3.9998,-3.9824,-3.9473,-3.9851,-3.9927,-3.9626,-4.0081,-4.0463,-4.0798,-4.1437,-4.2162,-4.2866,-4.4466,-4.449,-4.2344,-4.2651,-4.3588,-4.512,-4.5848,-4.708,-4.9105,-5.0271,-5.1177,-5.1657,-5.2387,-5.2783,-5.2783,-5.3028,-5.3114,-5.3174,-5.3114,-5.3174,-5.3114,-5.3114,-5.3234,-5.3324,-5.3354,-5.3384,-5.3294,-5.2815,-5.2217,-5.1798,-5.1738,-5.1648,-5.1588,-5.1648,-5.1588,-5.1678,-5.1648,-5.1768,-5.2127,-5.1917,-5.1828,-5.2276,-5.1917,-5.1678,-5.1588,-5.1528,-5.1409,-5.1409,-5.1289,-5.1229,-5.1229,-5.1229,-5.1229,-6.4137,-6.3061,-6.3061,-6.2062,-6.0434,-6.0559,-5.9686,-5.8193,-5.7163,-5.6543,-5.6315,-5.5701,-5.5165,-5.4679,-5.4117,-5.3861,-5.3861,-5.3546,-5.341,-5.341,-5.3478,-5.3326,-5.2905,-5.2773,-5.2401,-5.1717,-5.0908,-5.0359,-5.004,-4.9643,-4.949,-4.9464,-4.949,-4.9238,-4.8812,-4.8786,-4.8335,-4.7481,-4.6778,-4.6125,-4.5472,-4.4367,-4.3288,-4.2288,-4.2137,-4.1781,-4.12,-4.11,-4.105,-4.105,-4.105,-4.1185,-4.1375,-4.1451,-4.1715,-4.2059,-4.2654,-4.3123,-4.3467,-4.4648,-4.5952,-4.7244,-4.765,-4.7027,-4.5302,-4.5555,-4.6251,-4.6964,-4.7812,-4.8781,-5.0114,-5.1052,-5.1795,-5.2267,-5.2615,-5.2812,-5.2872,-5.3117,-5.3264,-5.3264,-5.3174,-5.3234,-5.3294,-5.3264,-5.3503,-5.3922,-5.4072,-5.4072,-5.3952,-5.3473,-5.3054,-5.2935,-5.2905,-5.2905,-5.2755,-5.2875,-5.2785,-5.2905,-5.2815,-5.2815,-5.2995,-5.2875,-5.2845,-5.2995,-5.2875,-5.2815,-5.2815,-5.2426,-5.2127,-5.2007,-5.1618,-5.1289,-5.1259,-5.1229,-5.1229,-6.5525,-6.447,-6.4416,-6.3578,-6.2199,-6.1226,-6.0564,-6.0219,-5.9289,-5.8525,-5.7885,-5.7477,-5.6971,-5.6463,-5.5887,-5.5334,-5.4846,-5.4712,-5.4511,-5.4309,-5.4537,-5.4493,-5.4249,-5.4352,-5.39,-5.2865,-5.2387,-5.1721,-5.0956,-5.0778,-5.0715,-5.0652,-5.0487,-5.0104,-4.9532,-4.8951,-4.8271,-4.7556,-4.6426,-4.5598,-4.502,-4.394,-4.3112,-4.261,-4.2389,-4.2087,-4.1781,-4.1505,-4.1383,-4.1544,-4.1544,-4.191,-4.2672,-4.3033,-4.3612,-4.4436,-4.504,-4.5681,-4.6276,-4.7513,-4.8813,-5.0157,-5.0511,-5.0706,-5.0547,-4.8899,-4.8246,-4.9036,-4.9714,-5.0604,-5.1737,-5.2601,-5.3216,-5.368,-5.3932,-5.4082,-5.4132,-5.4232,-5.4281,-5.4281,-5.4281,-5.4251,-5.4281,-5.4281,-5.4371,-5.47,-5.473,-5.473,-5.473,-5.4461,-5.3982,-5.3354,-5.3174,-5.3174,-5.3253,-5.3174,-5.3174,-5.3174,-5.3174,-5.3354,-5.3593,-5.3503,-5.3384,-5.3623,-5.3473,-5.3204,-5.3204,-5.2935,-5.2636,-5.2217,-5.2007,-5.1678,-5.1379,-5.1229,-5.099,-6.7134,-6.6046,-6.6018,-6.5321,-6.4025,-6.2258,-6.1829,-6.2192,-6.1734,-6.1057,-6.0222,-5.9519,-5.8899,-5.8416,-5.7811,-5.7088,-5.6423,-5.6066,-5.5815,-5.5525,-5.571,-5.5773,-5.58,-5.6013,-5.5573,-5.4521,-5.4235,-5.3397,-5.2332,-5.2092,-5.1951,-5.181,-5.1471,-5.0979,-5.0346,-4.9439,-4.8753,-4.815,-4.6831,-4.5666,-4.4819,-4.374,-4.3212,-4.3313,-4.2922,-4.275,-4.2826,-4.2528,-4.2493,-4.2735,-4.2843,-4.3293,-4.4301,-4.4853,-4.568,-4.6784,-4.751,-4.8408,-4.9527,-5.0556,-5.1623,-5.2721,-5.3159,-5.3859,-5.4633,-5.244,-5.0831,-5.1276,-5.1623,-5.2186,-5.314,-5.3912,-5.4539,-5.4824,-5.5027,-5.5119,-5.5179,-5.5209,-5.5209,-5.5209,-5.5209,-5.5149,-5.5209,-5.5209,-5.5149,-5.5149,-5.5209,-5.5209,-5.5209,-5.5269,-5.491,-5.4221,-5.3862,-5.3952,-5.3912,-5.4102,-5.4102,-5.3922,-5.3922,-5.4132,-5.4341,-5.3982,-5.3862,-5.4281,-5.4042,-5.3803,-5.3732,-5.3503,-5.3264,-5.2845,-5.2456,-5.1947,-5.1349,-5.1229,-5.087,-6.9043,-6.8011,-6.7925,-6.7179,-6.5917,-6.4589,-6.3879,-6.3777,-6.3944,-6.398,-6.3598,-6.1629,-6.0689,-6.0469,-5.9449,-5.8898,-5.8631,-5.753,-5.6963,-5.6898,-5.6639,-5.6807,-5.7314,-5.7256,-5.7266,-5.7169,-5.6239,-5.5231,-5.4317,-5.3645,-5.3059,-5.2518,-5.2218,-5.1769,-5.1233,-5.0769,-5.0098,-4.902,-4.829,-4.714,-4.5431,-4.4317,-4.3966,-4.4468,-4.4225,-4.4345,-4.4783,-4.5289,-4.5576,-4.5659,-4.5887,-4.633,-4.6937,-4.732,-4.8002,-4.9133,-5.0037,-5.1412,-5.3245,-5.415,-5.4739,-5.543,-5.5537,-5.5733,-5.6148,-5.583,-5.5046,-5.4046,-5.3439,-5.3658,-5.4149,-5.4576,-5.4943,-5.5167,-5.5269,-5.5209,-5.5209,-5.5209,-5.5209,-5.5209,-5.5209,-5.5209,-5.5239,-5.5329,-5.5299,-5.5388,-5.5418,-5.5418,-5.5448,-5.5777,-5.6047,-5.5918,-5.5918,-5.5837,-5.5837,-5.6376,-5.6137,-5.5918,-5.5888,-5.5628,-5.5299,-5.5089,-5.5059,-5.4999,-5.497,-5.482,-5.473,-5.4551,-5.4102,-5.3653,-5.2965,-5.2007,-5.1409,-5.1229,-5.09,-6.9991,-6.9174,-6.9174,-6.8444,-6.713,-6.5682,-6.5065,-6.5158,-6.5065,-6.5129,-6.5256,-6.4329,-6.3501,-6.2715,-6.2203,-6.1478,-6.058,-6.0018,-5.9458,-5.8871,-5.8529,-5.862,-5.9058,-5.8862,-5.8738,-5.8706,-5.8151,-5.7519,-5.6749,-5.6089,-5.5423,-5.4846,-5.4336,-5.3555,-5.2648,-5.2145,-5.1503,-5.0664,-4.9705,-4.889,-4.8055,-4.6326,-4.551,-4.569,-4.5649,-4.5793,-4.6195,-4.6477,-4.6813,-4.7287,-4.7479,-4.8081,-4.9146,-4.9337,-5.0183,-5.1774,-5.3156,-5.4244,-5.5089,-5.5674,-5.6265,-5.6917,-5.7137,-5.7393,-5.7856,-5.7642,-5.7043,-5.648,-5.5784,-5.5506,-5.5715,-5.5976,-5.6064,-5.5867,-5.5777,-5.5628,-5.5239,-5.5209,-5.5209,-5.5209,-5.5209,-5.5359,-5.5718,-5.6107,-5.6286,-5.6316,-5.6286,-5.6256,-5.6316,-5.6555,-5.6675,-5.6765,-5.7034,-5.7094,-5.6855,-5.6885,-5.6944,-5.6825,-5.6735,-5.6555,-5.6346,-5.5927,-5.5777,-5.5799,-5.5478,-5.5269,-5.5119,-5.4999,-5.47,-5.4192,-5.3174,-5.2007,-5.1349,-5.1229,-5.1079,-7.0726,-7.0229,-7.0022,-6.9246,-6.8122,-6.6778,-6.6218,-6.6257,-6.5978,-6.604,-6.6257,-6.6257,-6.5742,-6.4835,-6.4443,-6.3582,-6.2583,-6.229,-6.1672,-6.079,-6.0426,-6.0369,-6.056,-6.0348,-6.018,-6.0048,-5.999,-5.9556,-5.8835,-5.8173,-5.7624,-5.7158,-5.6443,-5.5606,-5.4694,-5.4051,-5.3371,-5.2711,-5.1894,-5.1431,-5.1047,-4.9432,-4.8038,-4.7344,-4.7242,-4.7383,-4.782,-4.8127,-4.857,-4.9173,-4.9363,-5.0017,-5.111,-5.1415,-5.244,-5.4306,-5.5733,-5.652,-5.652,-5.7043,-5.7666,-5.8262,-5.8543,-5.8949,-5.9398,-5.9219,-5.8949,-5.8865,-5.8161,-5.7494,-5.6862,-5.6989,-5.6885,-5.6496,-5.6436,-5.6196,-5.5807,-5.5718,-5.5748,-5.5718,-5.5837,-5.5867,-5.6346,-5.6765,-5.7004,-5.7004,-5.7034,-5.7094,-5.7154,-5.7214,-5.7393,-5.7393,-5.7932,-5.8052,-5.7543,-5.7633,-5.7573,-5.7393,-5.7393,-5.7304,-5.7184,-5.6645,-5.6226,-5.6047,-5.5688,-5.5388,-5.5239,-5.5119,-5.497,-5.4221,-5.3294,-5.2306,-5.1708,-5.1439,-5.1259,-7.1452,-7.0794,-7.026,-6.9568,-6.8851,-6.8103,-6.7476,-6.6876,-6.6846,-6.6937,-6.6876,-6.6937,-6.6908,-6.6695,-6.5485,-6.4914,-6.4676,-6.3901,-6.3164,-6.2489,-6.2157,-6.1837,-6.1554,-6.1524,-6.1673,-6.1821,-6.1584,-6.1055,-6.0149,-5.9568,-5.919,-5.9103,-5.8176,-5.7657,-5.7311,-5.6565,-5.5937,-5.5225,-5.4998,-5.4855,-5.4257,-5.3518,-5.1738,-4.9505,-4.9025,-4.9306,-4.9907,-5.0906,-5.1455,-5.1537,-5.2051,-5.2537,-5.2943,-5.381,-5.4929,-5.6403,-5.7428,-5.7975,-5.8065,-5.8596,-5.9194,-5.9847,-5.9907,-6.0236,-6.0745,-6.0745,-6.0685,-6.0894,-6.0091,-5.9075,-5.764,-5.7423,-5.7244,-5.7094,-5.7064,-5.7004,-5.6974,-5.6825,-5.7004,-5.6944,-5.6885,-5.6944,-5.7034,-5.7064,-5.7244,-5.7244,-5.7184,-5.7214,-5.7363,-5.7752,-5.8022,-5.8201,-5.853,-5.883,-5.8291,-5.8351,-5.8471,-5.8291,-5.8022,-5.7932,-5.7423,-5.7004,-5.6705,-5.6376,-5.6107,-5.5777,-5.5388,-5.5059,-5.485,-5.4341,-5.3743,-5.2935,-5.2067,-5.1588,-5.1349,-7.1128,-7.0799,-6.9782,-6.9213,-6.8884,-6.7807,-6.7208,-6.6999,-6.6999,-6.6999,-6.6999,-6.6999,-6.6999,-6.6999,-6.6485,-6.6034,-6.5618,-6.5258,-6.4752,-6.4159,-6.3829,-6.3621,-6.3504,-6.3354,-6.3118,-6.3032,-6.2913,-6.2558,-6.2025,-6.1402,-6.0962,-6.0671,-5.9997,-5.924,-5.8519,-5.8086,-5.7537,-5.6703,-5.6299,-5.5952,-5.5776,-5.5169,-5.4271,-5.3216,-5.1982,-5.1532,-5.192,-5.2326,-5.2873,-5.3732,-5.3975,-5.4391,-5.5118,-5.6001,-5.6793,-5.7327,-5.822,-5.8919,-5.9338,-5.9578,-6.0027,-6.0655,-6.0745,-6.0835,-6.1044,-6.1104,-6.1104,-6.1074,-6.0924,-6.0296,-5.9757,-5.8919,-5.8201,-5.7842,-5.7752,-5.7603,-5.7214,-5.7094,-5.7094,-5.7154,-5.7453,-5.7752,-5.7812,-5.8112,-5.8381,-5.8381,-5.8381,-5.8351,-5.8381,-5.862,-5.871,-5.877,-5.8919,-5.9039,-5.883,-5.889,-5.8979,-5.886,-5.871,-5.868,-5.8351,-5.7872,-5.7573,-5.6944,-5.6615,-5.6107,-5.5628,-5.5209,-5.494,-5.4461,-5.3892,-5.3294,-5.2396,-5.1947,-5.1618,-7.0799,-7.05,-6.9662,-6.9034,-6.8585,-6.7687,-6.7178,-6.6999,-6.6999,-6.6999,-6.6999,-6.6999,-6.6999,-6.6999,-6.6999,-6.6759,-6.634,-6.6311,-6.5981,-6.5323,-6.5113,-6.4964,-6.4695,-6.4485,-6.4248,-6.407,-6.407,-6.386,-6.3408,-6.2929,-6.2485,-6.2074,-6.1392,-6.0687,-5.9959,-5.946,-5.882,-5.8182,-5.7596,-5.7273,-5.7214,-5.6657,-5.6334,-5.6104,-5.4847,-5.3975,-5.3975,-5.4134,-5.4574,-5.5354,-5.5548,-5.6001,-5.6811,-5.747,-5.7934,-5.8202,-5.8931,-5.9608,-6.0027,-6.0266,-6.0715,-6.1373,-6.1433,-6.1493,-6.1672,-6.1732,-6.1732,-6.1732,-6.1493,-6.1433,-6.1224,-6.0416,-5.9488,-5.889,-5.874,-5.8471,-5.7842,-5.7782,-5.7782,-5.7872,-5.8171,-5.8411,-5.8501,-5.883,-5.9009,-5.9099,-5.9099,-5.9099,-5.9099,-5.9099,-5.9099,-5.9099,-5.9069,-5.9249,-5.9308,-5.9488,-5.9279,-5.9129,-5.9308,-5.9338,-5.9039,-5.862,-5.8171,-5.7543,-5.6974,-5.6376,-5.5867,-5.5418,-5.4999,-5.4581,-5.4192,-5.3683,-5.2965,-5.2336,-5.1887,-7.056,-7.0051,-6.9901,-6.9123,-6.8106,-6.7867,-6.7537,-6.7029,-6.6999,-6.6999,-6.6999,-6.6999,-6.6999,-6.6999,-6.6999,-6.6969,-6.6909,-6.6879,-6.658,-6.6041,-6.5951,-6.5652,-6.5174,-6.5144,-6.5054,-6.4964,-6.4934,-6.4576,-6.4036,-6.3947,-6.3647,-6.3049,-6.2423,-6.2034,-6.1975,-6.0753,-6.0121,-5.9767,-5.9205,-5.8991,-5.9009,-5.828,-5.7981,-5.7945,-5.7295,-5.6598,-5.5957,-5.6297,-5.6502,-5.6674,-5.6885,-5.7423,-5.7915,-5.8208,-5.8447,-5.9045,-5.9727,-6.0086,-6.0236,-6.0805,-6.1403,-6.1972,-6.2121,-6.2301,-6.272,-6.2869,-6.2869,-6.278,-6.2421,-6.2091,-6.2002,-6.1523,-6.0805,-6.0206,-5.9937,-5.9578,-5.9189,-5.9069,-5.9069,-5.8979,-5.8979,-5.9069,-5.9099,-5.9069,-5.9099,-5.9099,-5.9099,-5.9099,-5.9099,-5.9099,-5.9099,-5.9099,-5.9129,-5.9249,-5.9668,-6.0027,-5.9668,-5.9398,-5.9697,-5.9817,-5.9279,-5.883,-5.853,-5.7962,-5.7483,-5.6885,-5.6107,-5.5658,-5.5359,-5.497,-5.4551,-5.4042,-5.3294,-5.2576,-5.2007,-7.053,-6.9931,-6.9482,-6.8794,-6.7956,-6.7508,-6.7148,-6.6999,-6.6999,-6.6999,-6.6999,-6.6999,-6.6999,-6.6999,-6.6999,-6.6999,-6.6999,-6.6999,-6.6879,-6.67,-6.667,-6.655,-6.64,-6.637,-6.6131,-6.5682,-6.5233,-6.4875,-6.4755,-6.4695,-6.4366,-6.3797,-6.3498,-6.2929,-6.2181,-6.1642,-6.1074,-6.0146,-5.9877,-5.9578,-5.9159,-5.8919,-5.88,-5.877,-5.859,-5.831,-5.8118,-5.7391,-5.7258,-5.7623,-5.7759,-5.8112,-5.871,-5.9219,-5.9548,-5.9817,-6.0416,-6.1044,-6.1433,-6.1672,-6.2091,-6.26,-6.278,-6.2839,-6.3049,-6.3109,-6.3139,-6.3109,-6.2869,-6.278,-6.272,-6.26,-6.1972,-6.0924,-6.0386,-6.0057,-5.9757,-5.9398,-5.9129,-5.9099,-5.9099,-5.9099,-5.9099,-5.9099,-5.9099,-5.9099,-5.9099,-5.9099,-5.9099,-5.9099,-5.9099,-5.9099,-5.9159,-5.9279,-5.9787,-6.0266,-6.0356,-6.0086,-6.0206,-6.0057,-5.9548,-5.9069,-5.874,-5.8411,-5.7902,-5.7334,-5.6555,-5.6098,-5.5777,-5.5388,-5.5029,-5.4311,-5.3443,-5.2815,-5.2306,-7.053,-6.9931,-6.9273,-6.8615,-6.7989,-6.7268,-6.6999,-6.6999,-6.6999,-6.6999,-6.6999,-6.6999,-6.6999,-6.6999,-6.6999,-6.6999,-6.6999,-6.6999,-6.7119,-6.7268,-6.7059,-6.6999,-6.6999,-6.6999,-6.6819,-6.64,-6.5951,-6.5622,-6.5413,-6.5383,-6.5054,-6.4485,-6.4366,-6.3887,-6.2869,-6.254,-6.1882,-6.0954,-6.0595,-6.0266,-5.9937,-5.9847,-5.9847,-5.9847,-5.9847,-5.9847,-5.9787,-5.9009,-5.856,-5.856,-5.871,-5.9069,-5.9488,-6.0057,-6.0446,-6.0595,-6.1074,-6.1672,-6.2091,-6.251,-6.2959,-6.3348,-6.3647,-6.3797,-6.3797,-6.3797,-6.3797,-6.3797,-6.3558,-6.3408,-6.3408,-6.3169,-6.269,-6.1972,-6.1283,-6.0625,-6.0206,-5.9727,-5.9368,-5.9219,-5.9099,-5.9099,-5.9099,-5.9099,-5.9099,-5.9099,-5.9099,-5.9099,-5.9099,-5.9099,-5.9129,-5.9129,-5.9129,-5.9428,-5.9907,-6.0416,-6.0954,-6.0864,-6.0745,-6.0326,-5.9817,-5.9308,-5.8919,-5.865,-5.8231,-5.7902,-5.7184,-5.6765,-5.6406,-5.5957,-5.5508,-5.485,-5.4132,-5.3354,-5.2755,-7.053,-6.9931,-6.9333,-6.8645,-6.7956,-6.7358,-6.7059,-6.6999,-6.6999,-6.6999,-6.6999,-6.6999,-6.6999,-6.6999,-6.6999,-6.6999,-6.6999,-6.6999,-6.7328,-6.7597,-6.7418,-6.7178,-6.7328,-6.7358,-6.7298,-6.7208,-6.7148,-6.6759,-6.6251,-6.6221,-6.5742,-6.5144,-6.5054,-6.4725,-6.4006,-6.3438,-6.278,-6.2091,-6.1493,-6.1134,-6.1014,-6.1014,-6.1014,-6.0984,-6.0954,-6.0954,-6.0864,-6.0745,-6.0296,-5.9488,-5.9787,-6.0086,-6.0266,-6.0805,-6.1164,-6.1194,-6.1822,-6.2211,-6.251,-6.3348,-6.3977,-6.4066,-6.4515,-6.5024,-6.4844,-6.4755,-6.4784,-6.4755,-6.4366,-6.4066,-6.3947,-6.3677,-6.3288,-6.3049,-6.2301,-6.1433,-6.0356,-6.0146,-5.9907,-5.9398,-5.9189,-5.9129,-5.9159,-5.9099,-5.9099,-5.9099,-5.9099,-5.9099,-5.9159,-5.9189,-5.9189,-5.9279,-5.9428,-5.9877,-6.0475,-6.0954,-6.1433,-6.1433,-6.1224,-6.0745,-6.0057,-5.9488,-5.9099,-5.883,-5.862,-5.8291,-5.7902,-5.7423,-5.6915,-5.6436,-5.5957,-5.5478,-5.479,-5.3982,-5.3264,-7.053,-6.9991,-6.9812,-6.9064,-6.8046,-6.7777,-6.7418,-6.7029,-6.6999,-6.7029,-6.6999,-6.6999,-6.6999,-6.6999,-6.6999,-6.6999,-6.7029,-6.7029,-6.7358,-6.7867,-6.7837,-6.8016,-6.8375,-6.8465,-6.8435,-6.8405,-6.8315,-6.8106,-6.7508,-6.7388,-6.6849,-6.5802,-6.5802,-6.5443,-6.4755,-6.4126,-6.3468,-6.2839,-6.2181,-6.1613,-6.1224,-6.1194,-6.1104,-6.1104,-6.1164,-6.1164,-6.1134,-6.1104,-6.1014,-6.0655,-6.0715,-6.0835,-6.0894,-6.1463,-6.1852,-6.2032,-6.2839,-6.3468,-6.3647,-6.4276,-6.4725,-6.4755,-6.4994,-6.5024,-6.5024,-6.5054,-6.5024,-6.4994,-6.4814,-6.4755,-6.4725,-6.4575,-6.4276,-6.3707,-6.2839,-6.1852,-6.1074,-6.0835,-6.0565,-5.9967,-5.9847,-5.9638,-5.9308,-5.9159,-5.9159,-5.9129,-5.9099,-5.9099,-5.9159,-5.9518,-5.9668,-5.9967,-6.0236,-6.0625,-6.1074,-6.1523,-6.1852,-6.1942,-6.1672,-6.1224,-6.0416,-5.9578,-5.9279,-5.9009,-5.8919,-5.865,-5.8321,-5.7902,-5.7393,-5.7004,-5.6526,-5.6077,-5.5269,-5.4461,-5.3803,-7.0709,-7.035,-7.0081,-6.9542,-6.8794,-6.8525,-6.8016,-6.7478,-6.7388,-6.7238,-6.7029,-6.6999,-6.6999,-6.6999,-6.6999,-6.7178,-6.7358,-6.7388,-6.7956,-6.8794,-6.9123,-6.9153,-6.9064,-6.9004,-6.9004,-6.9004,-6.9004,-6.8764,-6.8465,-6.8405,-6.7807,-6.7059,-6.6849,-6.637,-6.5443,-6.5084,-6.4366,-6.3588,-6.3049,-6.257,-6.2002,-6.1942,-6.1942,-6.1942,-6.1942,-6.1942,-6.1942,-6.1942,-6.1732,-6.1343,-6.1343,-6.1523,-6.1583,-6.2151,-6.26,-6.2869,-6.3617,-6.4096,-6.4515,-6.5054,-6.5413,-6.5503,-6.5652,-6.5832,-6.5892,-6.5862,-6.5862,-6.5892,-6.5622,-6.5473,-6.5383,-6.5203,-6.4725,-6.4036,-6.3318,-6.251,-6.1642,-6.1523,-6.1224,-6.0745,-6.0475,-6.0266,-5.9608,-5.9518,-5.9368,-5.9189,-5.9099,-5.9099,-5.9159,-5.9727,-6.0176,-6.0446,-6.0775,-6.1104,-6.1493,-6.1912,-6.2271,-6.2361,-6.2151,-6.1702,-6.0775,-5.9817,-5.9428,-5.9249,-5.9159,-5.9009,-5.868,-5.8381,-5.8171,-5.7723,-5.7214,-5.6615,-5.5837,-5.5089,-5.4431,-7.0949,-7.0859,-7.029,-7.0051,-6.9842,-6.9333,-6.8704,-6.8166,-6.8076,-6.7807,-6.7418,-6.7238,-6.7388,-6.7208,-6.7448,-6.7567,-6.8076,-6.8076,-6.8794,-6.9632,-7.0231,-7.0231,-6.9482,-6.9453,-6.9423,-6.9393,-6.9213,-6.9183,-6.9123,-6.9093,-6.8734,-6.8136,-6.8016,-6.7388,-6.649,-6.6131,-6.5413,-6.4485,-6.4096,-6.3797,-6.3378,-6.3258,-6.3288,-6.3258,-6.3258,-6.3288,-6.3288,-6.3228,-6.281,-6.1613,-6.1972,-6.2151,-6.2271,-6.281,-6.3348,-6.3857,-6.4186,-6.4635,-6.5114,-6.5712,-6.6101,-6.6191,-6.661,-6.6969,-6.6819,-6.6759,-6.6759,-6.6729,-6.643,-6.6161,-6.6011,-6.5562,-6.4934,-6.4336,-6.4036,-6.3378,-6.257,-6.2211,-6.1942,-6.1313,-6.1224,-6.0894,-6.0446,-6.0146,-6.0027,-5.9907,-5.9757,-5.9787,-5.9847,-6.0176,-6.0505,-6.0715,-6.1104,-6.1493,-6.1882,-6.2271,-6.257,-6.278,-6.251,-6.2061,-6.1134,-6.0296,-5.9757,-5.9428,-5.9219,-5.9099,-5.9039,-5.883,-5.868,-5.8411,-5.7872,-5.7244,-5.6555,-5.5807,-5.5089,-7.1368,-7.0889,-7.0769,-7.044,-6.9991,-6.9812,-6.9393,-6.8794,-6.8764,-6.8675,-6.8555,-6.8525,-6.8525,-6.8525,-6.8435,-6.8675,-6.8764,-6.8854,-6.9243,-6.9931,-7.062,-7.0769,-7.047,-7.041,-7.044,-7.041,-7.047,-7.0231,-6.9901,-6.9722,-6.9423,-6.8854,-6.8734,-6.8375,-6.7597,-6.6969,-6.643,-6.5622,-6.5084,-6.4725,-6.4545,-6.4485,-6.4485,-6.4485,-6.4515,-6.4575,-6.4605,-6.4605,-6.4455,-6.4066,-6.3378,-6.2959,-6.3049,-6.3468,-6.3887,-6.4276,-6.5054,-6.5592,-6.5862,-6.634,-6.6759,-6.6729,-6.6849,-6.6999,-6.6999,-6.6999,-6.6999,-6.6969,-6.6849,-6.67,-6.664,-6.6161,-6.5533,-6.4934,-6.4366,-6.3767,-6.3049,-6.2839,-6.251,-6.2091,-6.1882,-6.1642,-6.1014,-6.0894,-6.0775,-6.0685,-6.0625,-6.0655,-6.0685,-6.0715,-6.0984,-6.1194,-6.1642,-6.2061,-6.2331,-6.263,-6.278,-6.3047,-6.278,-6.2421,-6.1493,-6.0805,-6.0266,-5.9697,-5.9159,-5.9099,-5.9099,-5.9099,-5.8919,-5.871,-5.8441,-5.7723,-5.7034,-5.6346,-5.5628,-7.1487,-7.0919,-7.0919,-7.0709,-7.044,-7.041,-7.0051,-6.9542,-6.9453,-6.9273,-6.9034,-6.9004,-6.9004,-6.9004,-6.9004,-6.9123,-6.9482,-6.9782,-7.0081,-7.047,-7.0799,-7.0889,-7.0919,-7.0919,-7.0919,-7.0919,-7.0889,-7.0679,-7.047,-7.035,-7.0081,-6.9512,-6.9453,-6.9093,-6.8435,-6.7807,-6.7148,-6.646,-6.5832,-6.5383,-6.5084,-6.5024,-6.5024,-6.5024,-6.5024,-6.5024,-6.4994,-6.4994,-6.5024,-6.4844,-6.4395,-6.3977,-6.4006,-6.4306,-6.4605,-6.5054,-6.5503,-6.6191,-6.646,-6.6759,-6.6969,-6.6999,-6.6999,-6.6999,-6.6999,-6.6999,-6.6999,-6.6999,-6.6969,-6.6969,-6.6969,-6.6759,-6.6161,-6.5562,-6.4874,-6.4216,-6.3647,-6.3258,-6.2989,-6.263,-6.254,-6.2211,-6.1852,-6.1613,-6.1313,-6.1104,-6.0984,-6.0984,-6.1104,-6.1194,-6.1553,-6.1882,-6.2301,-6.263,-6.2869,-6.3047,-6.3017,-6.3107,-6.3047,-6.26,-6.1942,-6.1343,-6.0805,-6.0116,-5.9398,-5.9129,-5.9099,-5.9099,-5.9099,-5.8949,-5.862,-5.8022,-5.7453,-5.6795,-5.6017,-7.1607,-7.0919,-7.0919,-7.0919,-7.0919,-7.0889,-7.059,-7.0171,-7.0141,-6.9871,-6.9393,-6.9273,-6.9482,-6.9333,-6.9393,-6.9662,-7.0111,-7.053,-7.0769,-7.0829,-7.0859,-7.0919,-7.0919,-7.0919,-7.0919,-7.0919,-7.0919,-7.0859,-7.0859,-7.0859,-7.056,-7.0171,-7.0111,-6.9752,-6.9123,-6.8615,-6.8046,-6.7418,-6.6759,-6.6221,-6.5742,-6.5592,-6.5473,-6.5503,-6.5503,-6.5533,-6.5533,-6.5503,-6.5413,-6.5263,-6.5323,-6.5323,-6.5293,-6.5233,-6.5383,-6.5951,-6.6101,-6.643,-6.6759,-6.6969,-6.6999,-6.6999,-6.7148,-6.7059,-6.7029,-6.7119,-6.7148,-6.7029,-6.6999,-6.6999,-6.6969,-6.6909,-6.661,-6.6071,-6.5473,-6.4904,-6.4246,-6.3617,-6.3258,-6.3077,-6.2899,-6.26,-6.2421,-6.2211,-6.1882,-6.1583,-6.1463,-6.1403,-6.1553,-6.1642,-6.1972,-6.2151,-6.245,-6.272,-6.2959,-6.3137,-6.3137,-6.3137,-6.3137,-6.281,-6.2361,-6.1882,-6.1253,-6.0326,-5.9697,-5.9428,-5.9159,-5.9099,-5.9099,-5.9099,-5.8919,-5.8441,-5.7872,-5.7274,-5.6466,-7.2026,-7.0919,-7.0919,-7.0919,-7.0919,-7.0919,-7.0829,-7.0769,-7.0709,-7.0679,-7.056,-7.056,-7.05,-7.05,-7.056,-7.0679,-7.0709,-7.0859,-7.0919,-7.0919,-7.0919,-7.0919,-7.0919,-7.0919,-7.0919,-7.0919,-7.0919,-7.0919,-7.0919,-7.0889,-7.0799,-7.0739,-7.0709,-7.038,-6.9961,-6.9632,-6.9153,-6.8525,-6.7897,-6.7448,-6.7238,-6.6819,-6.649,-6.649,-6.643,-6.646,-6.655,-6.661,-6.667,-6.667,-6.667,-6.664,-6.646,-6.6101,-6.6011,-6.6131,-6.649,-6.6819,-6.7059,-6.7059,-6.6999,-6.7119,-6.7508,-6.7508,-6.7328,-6.7478,-6.7537,-6.7208,-6.7059,-6.7029,-6.6999,-6.6999,-6.667,-6.6191,-6.5862,-6.5533,-6.4904,-6.4276,-6.3707,-6.3438,-6.3258,-6.3019,-6.281,-6.269,-6.251,-6.2331,-6.2301,-6.2301,-6.2391,-6.2331,-6.2301,-6.2391,-6.245,-6.272,-6.2959,-6.3049,-6.3137,-6.3137,-6.3137,-6.3137,-6.269,-6.2331,-6.1672,-6.0864,-6.0146,-5.9668,-5.9458,-5.9189,-5.9099,-5.9099,-5.8979,-5.886,-5.8201,-5.7513,-5.6974,-7.2146,-7.0919,-7.0919,-7.0919,-7.0919,-7.0919,-7.0919,-7.0919,-7.0919,-7.0919,-7.0919,-7.0919,-7.0919,-7.0919,-7.0919,-7.0919,-7.0919,-7.0919,-7.0919,-7.0919,-7.0919,-7.0919,-7.0919,-7.0919,-7.0919,-7.0919,-7.0919,-7.0919,-7.0919,-7.0919,-7.0919,-7.0889,-7.0919,-7.0739,-7.044,-7.0081,-6.9871,-6.9393,-6.8884,-6.8495,-6.8435,-6.7837,-6.7418,-6.7089,-6.7029,-6.6999,-6.6999,-6.6999,-6.6969,-6.6969,-6.6969,-6.6999,-6.6999,-6.7029,-6.6849,-6.667,-6.6879,-6.7208,-6.7418,-6.7508,-6.7657,-6.8046,-6.8345,-6.8345,-6.8196,-6.8286,-6.8166,-6.7687,-6.7478,-6.7328,-6.7059,-6.7029,-6.6819,-6.655,-6.6251,-6.5892,-6.5503,-6.4904,-6.4455,-6.3977,-6.3528,-6.3258,-6.3137,-6.3047,-6.3107,-6.3137,-6.3166,-6.3137,-6.3166,-6.2899,-6.266,-6.269,-6.272,-6.281,-6.2989,-6.3019,-6.3137,-6.3137,-6.3137,-6.3137,-6.3077,-6.266,-6.2181,-6.1553,-6.0864,-6.0146,-5.9458,-5.9129,-5.9129,-5.9099,-5.9039,-5.886,-5.8321,-5.7782,-5.7274,-7.1996,-7.0919,-7.0919,-7.0919,-7.0919,-7.0919,-7.0919,-7.0919,-7.0919,-7.0919,-7.0919,-7.0919,-7.0919,-7.0919,-7.0919,-7.0919,-7.0919,-7.0919,-7.0919,-7.0919,-7.0919,-7.0919,-7.0919,-7.0919,-7.0919,-7.0919,-7.1158,-7.1009,-7.0919,-7.0919,-7.0919,-7.0919,-7.0919,-7.0919,-7.0769,-7.044,-7.0201,-6.9961,-6.9542,-6.9183,-6.8884,-6.8465,-6.7956,-6.7478,-6.7388,-6.7478,-6.7537,-6.7567,-6.7567,-6.7537,-6.7508,-6.7448,-6.7508,-6.7897,-6.7897,-6.7508,-6.7418,-6.7717,-6.7986,-6.8196,-6.8375,-6.8734,-6.9064,-6.9093,-6.8944,-6.8794,-6.8734,-6.8286,-6.8166,-6.7897,-6.7418,-6.7238,-6.7119,-6.6879,-6.652,-6.6191,-6.6041,-6.5682,-6.5293,-6.4725,-6.3977,-6.3737,-6.3797,-6.3737,-6.3857,-6.3498,-6.3498,-6.3199,-6.3199,-6.3166,-6.2929,-6.3047,-6.3047,-6.3047,-6.3107,-6.3107,-6.3137,-6.3137,-6.3137,-6.3137,-6.3137,-6.3047,-6.248,-6.1972,-6.1463,-6.0745,-5.9907,-5.9189,-5.9129,-5.9099,-5.9099,-5.8949,-5.862,-5.8231,-5.7752,-7.1577,-7.0919,-7.0919,-7.0919,-7.0919,-7.0919,-7.0919,-7.0919,-7.0919,-7.0919,-7.0919,-7.0919,-7.0919,-7.0919,-7.0919,-7.0919,-7.0919,-7.0919,-7.0919,-7.0919,-7.0919,-7.0919,-7.0919,-7.0919,-7.0919,-7.1009,-7.1457,-7.1368,-7.1128,-7.1009,-7.0949,-7.0979,-7.0949,-7.0919,-7.0889,-7.0739,-7.0799,-7.0679,-7.0171,-6.9602,-6.9123,-6.8944,-6.8794,-6.8675,-6.8645,-6.8585,-6.8495,-6.8495,-6.8555,-6.8615,-6.8675,-6.8734,-6.8764,-6.8794,-6.8854,-6.8794,-6.8764,-6.8794,-6.8854,-6.8884,-6.8974,-6.9303,-6.9572,-6.9482,-6.9393,-6.9213,-6.9153,-6.8944,-6.8884,-6.8585,-6.8046,-6.7867,-6.7567,-6.7268,-6.6999,-6.6849,-6.67,-6.6311,-6.5951,-6.5772,-6.5114,-6.4934,-6.4874,-6.4784,-6.4635,-6.4216,-6.3827,-6.3588,-6.3468,-6.3498,-6.3498,-6.3588,-6.3558,-6.3558,-6.3348,-6.3318,-6.3226,-6.3196,-6.3166,-6.3166,-6.3137,-6.3077,-6.278,-6.2271,-6.1822,-6.1343,-6.0595,-5.9907,-5.9368,-5.9219,-5.9368,-5.9279,-5.9069,-5.865,-5.8201,-7.1158,-7.0919,-7.0919,-7.0919,-7.0919,-7.0919,-7.0919,-7.0919,-7.0919,-7.0919,-7.0919,-7.0919,-7.0919,-7.0919,-7.0919,-7.0919,-7.0919,-7.0919,-7.0919,-7.0919,-7.0919,-7.0919,-7.0919,-7.0919,-7.0919,-7.1068,-7.1487,-7.1757,-7.1487,-7.1457,-7.1457,-7.1398,-7.1098,-7.0919,-7.0919,-7.0919,-7.0889,-7.0829,-7.059,-7.0171,-6.9722,-6.9512,-6.9363,-6.9064,-6.9034,-6.9064,-6.9064,-6.9004,-6.9004,-6.9004,-6.9004,-6.9004,-6.9093,-6.9303,-6.9542,-6.9572,-6.9901,-6.9901,-6.9632,-6.9572,-6.9722,-7.0021,-7.032,-7.035,-7.0111,-7.0021,-6.9842,-6.9572,-6.9572,-6.9243,-6.8734,-6.8585,-6.8166,-6.7807,-6.7508,-6.7238,-6.7089,-6.6849,-6.655,-6.643,-6.6311,-6.6041,-6.5712,-6.5383,-6.5173,-6.4814,-6.4575,-6.4425,-6.4366,-6.4425,-6.4395,-6.4336,-6.4276,-6.4186,-6.3887,-6.3707,-6.3438,-6.3348,-6.3169,-6.3169,-6.3166,-6.3017,-6.2869,-6.266,-6.2241,-6.1732,-6.1194,-6.0685,-6.0176,-5.9907,-5.9668,-5.9548,-5.9398,-5.9069,-5.868,-7.0919,-7.0919,-7.0919,-7.0919,-7.0919,-7.0919,-7.0919,-7.0919,-7.0919,-7.0919,-7.0919,-7.0919,-7.0919,-7.0919,-7.0919,-7.0919,-7.0919,-7.0919,-7.0919,-7.0919,-7.0919,-7.0919,-7.0919,-7.0919,-7.0919,-7.0949,-7.1876,-7.2146,-7.2235,-7.2265,-7.2295,-7.1906,-7.1457,-7.1098,-7.0949,-7.0919,-7.0919,-7.0889,-7.0859,-7.062,-7.029,-7.0201,-6.9931,-6.9662,-6.9482,-6.9482,-6.9453,-6.9542,-6.9542,-6.9572,-6.9602,-6.9662,-6.9722,-6.9991,-7.0201,-7.026,-7.053,-7.056,-7.032,-7.026,-7.047,-7.0739,-7.0919,-7.0799,-7.0799,-7.0889,-7.0769,-7.0231,-7.0201,-6.9871,-6.9423,-6.9243,-6.8884,-6.8435,-6.8016,-6.7657,-6.7328,-6.7148,-6.6939,-6.6759,-6.67,-6.6789,-6.643,-6.5951,-6.5652,-6.5383,-6.5263,-6.5203,-6.5144,-6.5054,-6.4994,-6.4844,-6.4784,-6.4665,-6.4485,-6.4186,-6.3887,-6.3677,-6.3528,-6.3408,-6.3468,-6.3378,-6.3258,-6.2989,-6.266,-6.2421,-6.2061,-6.1523,-6.0984,-6.0625,-6.0296,-5.9967,-5.9697,-5.9368,-5.9099,-7.0919,-7.0919,-7.0919,-7.0919,-7.0919,-7.0919,-7.0919,-7.0919,-7.0919,-7.0919,-7.0919,-7.0919,-7.0919,-7.0919,-7.0919,-7.0919,-7.0919,-7.0919,-7.0949,-7.0949,-7.0919,-7.1038,-7.1128,-7.1188,-7.1098,-7.1308,-7.2235,-7.2804,-7.2984,-7.3402,-7.2894,-7.2056,-7.1936,-7.1487,-7.1188,-7.1158,-7.0979,-7.0949,-7.0919,-7.0889,-7.0769,-7.0739,-7.0679,-7.0679,-7.0709,-7.0769,-7.0739,-7.062,-7.053,-7.053,-7.05,-7.05,-7.047,-7.059,-7.0679,-7.0739,-7.0769,-7.0799,-7.0709,-7.0679,-7.0799,-7.0889,-7.0919,-7.0919,-7.0919,-7.0919,-7.0829,-7.0739,-7.0679,-7.047,-7.0111,-6.9842,-6.9572,-6.9093,-6.8645,-6.8315,-6.7926,-6.7508,-6.7298,-6.7089,-6.7148,-6.7418,-6.7328,-6.6879,-6.634,-6.6041,-6.5922,-6.5892,-6.5592,-6.5503,-6.5353,-6.5233,-6.5173,-6.5114,-6.5054,-6.4814,-6.4665,-6.4515,-6.4366,-6.4156,-6.4036,-6.3917,-6.3827,-6.3408,-6.3109,-6.3049,-6.2869,-6.2181,-6.1613,-6.1253,-6.0924,-6.0655,-6.0176,-5.9727,-5.9458,-7.0919,-7.0919,-7.0919,-7.0919,-7.0919,-7.0919,-7.0919,-7.0919,-7.0919,-7.0919,-7.0919,-7.0919,-7.0919,-7.0919,-7.0919,-7.0919,-7.0919,-7.0919,-7.1158,-7.1398,-7.1517,-7.1757,-7.1936,-7.2056,-7.2176,-7.2295,-7.3043,-7.3522,-7.3582,-7.4121,-7.3911,-7.3283,-7.2744,-7.2445,-7.2116,-7.1607,-7.1278,-7.0949,-7.0919,-7.0919,-7.0919,-7.0919,-7.0919,-7.0919,-7.0919,-7.0919,-7.0889,-7.0889,-7.0889,-7.0919,-7.0919,-7.0919,-7.0919,-7.0919,-7.0919,-7.0919,-7.0919,-7.0919,-7.0919,-7.0919,-7.0919,-7.0919,-7.0919,-7.0919,-7.0919,-7.0919,-7.0919,-7.0889,-7.0919,-7.0709,-7.0649,-7.05,-7.029,-6.9752,-6.9303,-6.8944,-6.8585,-6.8166,-6.7986,-6.7867,-6.8106,-6.8375,-6.8166,-6.7867,-6.7268,-6.6759,-6.667,-6.652,-6.6191,-6.6011,-6.5922,-6.5892,-6.5892,-6.5742,-6.5682,-6.5592,-6.5473,-6.5323,-6.5173,-6.4934,-6.4725,-6.4635,-6.4485,-6.4006,-6.3558,-6.3408,-6.3139,-6.269,-6.2241,-6.1882,-6.1613,-6.1433,-6.0835,-6.0176,-5.9907,-7.0919,-7.0919,-7.0919,-7.0919,-7.0919,-7.0919,-7.0919,-7.0919,-7.0919,-7.0919,-7.0919,-7.0919,-7.0919,-7.0919,-7.0919,-7.1098,-7.1188,-7.1308,-7.1667,-7.1966,-7.2265,-7.2505,-7.2774,-7.2864,-7.2744,-7.3073,-7.3522,-7.3851,-7.3851,-7.454,-7.448,-7.4091,-7.3732,-7.3402,-7.2684,-7.2235,-7.1547,-7.1068,-7.0919,-7.0919,-7.0919,-7.0919,-7.0919,-7.0919,-7.0919,-7.0919,-7.0919,-7.0919,-7.0919,-7.0919,-7.0919,-7.0919,-7.0919,-7.0919,-7.0919,-7.0919,-7.0919,-7.0919,-7.0919,-7.0919,-7.0919,-7.0919,-7.0919,-7.0919,-7.0919,-7.0919,-7.0919,-7.0919,-7.0919,-7.0919,-7.0919,-7.0799,-7.0709,-7.0231,-6.9842,-6.9512,-6.9243,-6.8914,-6.8824,-6.8734,-6.8884,-6.8854,-6.8734,-6.8405,-6.7777,-6.7208,-6.6879,-6.6789,-6.6729,-6.661,-6.667,-6.667,-6.67,-6.655,-6.64,-6.6251,-6.6161,-6.6161,-6.5981,-6.5682,-6.5473,-6.5383,-6.5084,-6.4545,-6.4126,-6.3827,-6.3468,-6.3079,-6.278,-6.248,-6.2181,-6.1852,-6.1523,-6.0924,-6.0595,-7.0919,-7.0919,-7.0919,-7.0919,-7.0919,-7.0919,-7.0919,-7.0919,-7.0919,-7.0919,-7.0919,-7.0919,-7.0949,-7.0979,-7.1068,-7.1368,-7.1816,-7.1906,-7.2235,-7.2744,-7.2894,-7.2954,-7.3073,-7.3163,-7.3343,-7.3163,-7.3672,-7.4091,-7.4001,-7.4569,-7.4749,-7.4779,-7.448,-7.4061,-7.2984,-7.2265,-7.1607,-7.1038,-7.1068,-7.1009,-7.1009,-7.0979,-7.0919,-7.0919,-7.0919,-7.0919,-7.0919,-7.0919,-7.0919,-7.0919,-7.0919,-7.0919,-7.0919,-7.0919,-7.0919,-7.0919,-7.0919,-7.0919,-7.0919,-7.0919,-7.0919,-7.0919,-7.0919,-7.0919,-7.0919,-7.0919,-7.0919,-7.0919,-7.0919,-7.0919,-7.0919,-7.0889,-7.0829,-7.0679,-7.032,-7.0111,-6.9842,-6.9722,-6.9632,-6.9602,-6.9303,-6.9064,-6.9034,-6.8854,-6.8226,-6.7687,-6.7178,-6.7059,-6.7238,-6.7328,-6.7478,-6.7268,-6.7268,-6.6999,-6.6819,-6.6879,-6.6849,-6.6879,-6.67,-6.6311,-6.6131,-6.6041,-6.5622,-6.5084,-6.4784,-6.4515,-6.4036,-6.3528,-6.3348,-6.3109,-6.251,-6.2151,-6.1912,-6.1642,-6.1283,-7.0919,-7.0919,-7.0919,-7.0919,-7.0919,-7.0919,-7.0919,-7.0919,-7.0919,-7.0919,-7.0919,-7.0919,-7.1188,-7.1427,-7.1607,-7.1936,-7.2475,-7.2595,-7.2924,-7.3492,-7.3552,-7.3881,-7.4031,-7.4061,-7.4121,-7.427,-7.451,-7.451,-7.4569,-7.4809,-7.4839,-7.4869,-7.4809,-7.442,-7.3762,-7.3223,-7.2894,-7.2295,-7.1876,-7.1547,-7.1487,-7.1188,-7.0979,-7.0979,-7.0949,-7.0949,-7.0919,-7.0919,-7.0919,-7.0919,-7.0919,-7.0919,-7.0919,-7.0919,-7.0919,-7.0919,-7.0919,-7.0919,-7.0919,-7.0919,-7.0919,-7.0919,-7.0919,-7.0919,-7.0919,-7.0919,-7.0919,-7.0919,-7.0919,-7.0919,-7.0919,-7.0919,-7.0859,-7.0859,-7.0679,-7.0649,-7.05,-7.047,-7.041,-7.047,-7.029,-6.9901,-6.9752,-6.9632,-6.9093,-6.8764,-6.8375,-6.8196,-6.8286,-6.8315,-6.8375,-6.7897,-6.7687,-6.7388,-6.7238,-6.7388,-6.7268,-6.7119,-6.6999,-6.6789,-6.667,-6.655,-6.6281,-6.5772,-6.5473,-6.5203,-6.4635,-6.4186,-6.4066,-6.3767,-6.3258,-6.278,-6.251,-6.2241,-6.1882,-7.0919,-7.0919,-7.0919,-7.0919,-7.0919,-7.0919,-7.0919,-7.0919,-7.0919,-7.1009,-7.1218,-7.1278,-7.1607,-7.2086,-7.2295,-7.2595,-7.3223,-7.3253,-7.3612,-7.418,-7.424,-7.445,-7.4689,-7.4869,-7.4689,-7.4869,-7.4869,-7.4839,-7.4809,-7.4869,-7.4869,-7.4869,-7.4869,-7.4659,-7.424,-7.3941,-7.3462,-7.2834,-7.2385,-7.2265,-7.2146,-7.1876,-7.1547,-7.1368,-7.1248,-7.1158,-7.0979,-7.0919,-7.0919,-7.0919,-7.0919,-7.0919,-7.0919,-7.0919,-7.0919,-7.0919,-7.0919,-7.0919,-7.0919,-7.0919,-7.0919,-7.0919,-7.0919,-7.0919,-7.0919,-7.0919,-7.0919,-7.0919,-7.0919,-7.0919,-7.0919,-7.0919,-7.0919,-7.0919,-7.0889,-7.0859,-7.0859,-7.0769,-7.0769,-7.0859,-7.0859,-7.056,-7.038,-7.032,-7.0051,-6.9842,-6.9662,-6.9453,-6.9183,-6.9123,-6.9034,-6.8615,-6.8315,-6.8136,-6.7986,-6.7986,-6.7777,-6.7388,-6.7328,-6.7328,-6.6969,-6.6789,-6.661,-6.643,-6.6011,-6.5592,-6.5173,-6.4844,-6.4695,-6.4485,-6.4156,-6.3677,-6.3199,-6.2869,-6.254,-7.0859,-7.0889,-7.0889,-7.0919,-7.0919,-7.0919,-7.0919,-7.0919,-7.0949,-7.1278,-7.1846,-7.1846,-7.2295,-7.2834,-7.2954,-7.3313,-7.3821,-7.3911,-7.427,-7.4629,-7.4689,-7.4839,-7.4839,-7.4869,-7.4869,-7.4869,-7.4869,-7.4869,-7.4869,-7.4869,-7.4869,-7.4869,-7.4869,-7.4779,-7.4569,-7.427,-7.3791,-7.3432,-7.3073,-7.2984,-7.2864,-7.2744,-7.2325,-7.2056,-7.1906,-7.1607,-7.1338,-7.1098,-7.1009,-7.0949,-7.0919,-7.0919,-7.0919,-7.0919,-7.0919,-7.0919,-7.0919,-7.0919,-7.0919,-7.0919,-7.0919,-7.0919,-7.0919,-7.0919,-7.0919,-7.0919,-7.0919,-7.0919,-7.0919,-7.0919,-7.0919,-7.0919,-7.0919,-7.0919,-7.0919,-7.0889,-7.0889,-7.0889,-7.0889,-7.0889,-7.0889,-7.0769,-7.0739,-7.0709,-7.056,-7.05,-7.026,-7.0051,-6.9812,-6.9572,-6.9453,-6.9213,-6.9004,-6.8974,-6.8854,-6.8585,-6.8405,-6.8046,-6.7986,-6.7926,-6.7508,-6.7178,-6.7119,-6.6909,-6.643,-6.6041,-6.5802,-6.5533,-6.5263,-6.5054,-6.4904,-6.4485,-6.3947,-6.3647,-6.3348,-7.026,-7.029,-7.0709,-7.0919,-7.0919,-7.0919,-7.0919,-7.0949,-7.1368,-7.1757,-7.1906,-7.2415,-7.2984,-7.3582,-7.3612,-7.4031,-7.436,-7.4599,-7.4689,-7.4839,-7.4869,-7.4869,-7.4869,-7.4869,-7.4869,-7.4869,-7.4869,-7.4869,-7.4869,-7.4869,-7.4869,-7.4869,-7.4869,-7.4869,-7.4809,-7.4689,-7.442,-7.4151,-7.3791,-7.3672,-7.3492,-7.3283,-7.2924,-7.2714,-7.2624,-7.2235,-7.1787,-7.1607,-7.1457,-7.1068,-7.0979,-7.0919,-7.0919,-7.0919,-7.0919,-7.0919,-7.0919,-7.0919,-7.0919,-7.0919,-7.0979,-7.1009,-7.0979,-7.0919,-7.0919,-7.0919,-7.0919,-7.0919,-7.0919,-7.0919,-7.0919,-7.0919,-7.0919,-7.0919,-7.0919,-7.0919,-7.0919,-7.0919,-7.0919,-7.0919,-7.0919,-7.0919,-7.0919,-7.0889,-7.0769,-7.0859,-7.0799,-7.056,-7.038,-7.0141,-6.9961,-6.9752,-6.9662,-6.9632,-6.9243,-6.8974,-6.8854,-6.8734,-6.8704,-6.8615,-6.8345,-6.8046,-6.7807,-6.7448,-6.6999,-6.6759,-6.661,-6.6311,-6.5951,-6.5802,-6.5622,-6.5173,-6.4755,-6.4425,-6.4096,-6.9991,-7.0081,-7.0649,-7.0919,-7.0919,-7.0919,-7.0919,-7.1038,-7.1607,-7.1996,-7.2355,-7.2984,-7.3642,-7.421,-7.43,-7.448,-7.4809,-7.4809,-7.4839,-7.4839,-7.4869,-7.4869,-7.4869,-7.4869,-7.4869,-7.4869,-7.4869,-7.4869,-7.4869,-7.4869,-7.4869,-7.4869,-7.4869,-7.4869,-7.4839,-7.4839,-7.4839,-7.4689,-7.451,-7.433,-7.4091,-7.3821,-7.3642,-7.3343,-7.3313,-7.2924,-7.2415,-7.2295,-7.2026,-7.1727,-7.1697,-7.1697,-7.1727,-7.1727,-7.1727,-7.1787,-7.1816,-7.1846,-7.1846,-7.1816,-7.1577,-7.1368,-7.1278,-7.1128,-7.0979,-7.0919,-7.0919,-7.0919,-7.0919,-7.0919,-7.0919,-7.0919,-7.0919,-7.0919,-7.0919,-7.0919,-7.0919,-7.0919,-7.0919,-7.0919,-7.0919,-7.0919,-7.0919,-7.0919,-7.0919,-7.0919,-7.0919,-7.0829,-7.0739,-7.0649,-7.053,-7.038,-7.032,-7.026,-6.9842,-6.9542,-6.9542,-6.9482,-6.9393,-6.9273,-6.9093,-6.8764,-6.8345,-6.7986,-6.7597,-6.7328,-6.7029,-6.6939,-6.67,-6.649,-6.6311,-6.6071,-6.5622,-6.5114,-6.4784,-6.9842,-6.9931,-7.062,-7.0919,-7.0919,-7.0919,-7.0919,-7.0979,-7.1607,-7.2265,-7.2894,-7.3642,-7.427,-7.4659,-7.4719,-7.4749,-7.4869,-7.4869,-7.4869,-7.4869,-7.4869,-7.4869,-7.4869,-7.4869,-7.4869,-7.4869,-7.4869,-7.4869,-7.4869,-7.4869,-7.4869,-7.4869,-7.4869,-7.4869,-7.4869,-7.4869,-7.4869,-7.4839,-7.4809,-7.4719,-7.4749,-7.4719,-7.4599,-7.4091,-7.3881,-7.3672,-7.3163,-7.2984,-7.2954,-7.2924,-7.2864,-7.2774,-7.2744,-7.2714,-7.2744,-7.2744,-7.2595,-7.2595,-7.2565,-7.2565,-7.2355,-7.2146,-7.1966,-7.1637,-7.1398,-7.0979,-7.0919,-7.0919,-7.0919,-7.0919,-7.0919,-7.0919,-7.0919,-7.0919,-7.0919,-7.0919,-7.0919,-7.0919,-7.0919,-7.0919,-7.0919,-7.0919,-7.0919,-7.0919,-7.0919,-7.0919,-7.0919,-7.0919,-7.0919,-7.0919,-7.0859,-7.0799,-7.0709,-7.062,-7.059,-7.035,-7.032,-7.026,-7.0081,-6.9961,-6.9752,-6.9333,-6.8854,-6.8435,-6.8016,-6.7657,-6.7358,-6.7208,-6.7029,-6.6879,-6.6789,-6.6909,-6.652,-6.5892,-6.5503,-6.8764,-6.9333,-7.044,-7.0919,-7.0919,-7.0919,-7.0919,-7.0949,-7.1607,-7.2295,-7.3043,-7.4031,-7.4689,-7.4839,-7.4869,-7.4869,-7.4869,-7.4869,-7.4869,-7.4869,-7.4869,-7.4869,-7.4869,-7.4869,-7.4869,-7.4869,-7.4869,-7.4869,-7.4869,-7.4869,-7.4869,-7.4869,-7.4869,-7.4869,-7.4869,-7.4869,-7.4869,-7.4869,-7.4869,-7.4869,-7.4869,-7.4869,-7.4749,-7.4629,-7.454,-7.424,-7.3851,-7.3672,-7.3343,-7.3043,-7.2924,-7.2894,-7.2894,-7.2954,-7.2924,-7.2924,-7.3073,-7.3103,-7.3103,-7.3133,-7.2954,-7.2804,-7.2595,-7.2206,-7.1787,-7.1218,-7.0949,-7.0949,-7.0919,-7.0919,-7.0919,-7.0919,-7.0919,-7.0919,-7.0919,-7.0919,-7.0919,-7.0919,-7.0919,-7.0919,-7.0919,-7.0919,-7.0919,-7.0919,-7.0919,-7.0919,-7.0919,-7.0919,-7.0919,-7.0919,-7.0919,-7.0859,-7.0859,-7.0859,-7.0919,-7.0889,-7.0709,-7.0709,-7.056,-7.047,-7.035,-6.9991,-6.9512,-6.8884,-6.8375,-6.8136,-6.7807,-6.7298,-6.7178,-6.7178,-6.7119,-6.7178,-6.7029,-6.649,-6.6191,-6.8375,-6.9123,-7.038,-7.0919,-7.0919,-7.0919,-7.0919,-7.1068,-7.1936,-7.2565,-7.3013,-7.3941,-7.4599,-7.4809,-7.4869,-7.4869,-7.4869,-7.4869,-7.4869,-7.4869,-7.4869,-7.4869,-7.4869,-7.4869,-7.4869,-7.4869,-7.4869,-7.4869,-7.4869,-7.4869,-7.4869,-7.4869,-7.4869,-7.4869,-7.4869,-7.4869,-7.4869,-7.4869,-7.4869,-7.4869,-7.4869,-7.4869,-7.4869,-7.4869,-7.4779,-7.4599,-7.454,-7.433,-7.4151,-7.3881,-7.3881,-7.3881,-7.3911,-7.3911,-7.3851,-7.3851,-7.3851,-7.3791,-7.3732,-7.3672,-7.3552,-7.3462,-7.3343,-7.3013,-7.2505,-7.1966,-7.1427,-7.1338,-7.0979,-7.0919,-7.0919,-7.0919,-7.0919,-7.0919,-7.0919,-7.0919,-7.0919,-7.0919,-7.0919,-7.0919,-7.0919,-7.0919,-7.0919,-7.0919,-7.0919,-7.0919,-7.0919,-7.0919,-7.0919,-7.0919,-7.0919,-7.0919,-7.0919,-7.0919,-7.0919,-7.0919,-7.0859,-7.0889,-7.0919,-7.0799,-7.062,-7.05,-7.0201,-6.9572,-6.9093,-6.8854,-6.8465,-6.7956,-6.7627,-6.7627,-6.7508,-6.7388,-6.7208,-6.7059,-6.6759,-6.8286,-6.9123,-7.038,-7.0919,-7.0919,-7.0919,-7.0919,-7.1098,-7.2176,-7.2804,-7.2984,-7.3642,-7.427,-7.4689,-7.4869,-7.4869,-7.4869,-7.4869,-7.4869,-7.4869,-7.4869,-7.4869,-7.4869,-7.4869,-7.4869,-7.4869,-7.4869,-7.4869,-7.4869,-7.4869,-7.4869,-7.4869,-7.4869,-7.4869,-7.4869,-7.4869,-7.4869,-7.4869,-7.4869,-7.4869,-7.4869,-7.4869,-7.4869,-7.4869,-7.4869,-7.4869,-7.4869,-7.4869,-7.4839,-7.4779,-7.4659,-7.4629,-7.4599,-7.4569,-7.4629,-7.4599,-7.4569,-7.4599,-7.4659,-7.4599,-7.439,-7.418,-7.4061,-7.3732,-7.3223,-7.2774,-7.2206,-7.1787,-7.1398,-7.1158,-7.1158,-7.1098,-7.1098,-7.0919,-7.0919,-7.0919,-7.0919,-7.0919,-7.0919,-7.0919,-7.0919,-7.0919,-7.0919,-7.0919,-7.0919,-7.0919,-7.0919,-7.0919,-7.0919,-7.0919,-7.0919,-7.0919,-7.0919,-7.0919,-7.0919,-7.0919,-7.0919,-7.0919,-7.0919,-7.0919,-7.0859,-7.0739,-7.056,-7.029,-6.9871,-6.9482,-6.9213,-6.8794,-6.8495,-6.8196,-6.8106,-6.7956,-6.7508,-6.7328,-6.7148,-6.7897,-6.9123,-7.038,-7.0919,-7.0919,-7.0919,-7.0919,-7.1038,-7.1757,-7.2385,-7.2984,-7.3612,-7.427,-7.4869,-7.4869,-7.4869,-7.4869,-7.4869,-7.4869,-7.4869,-7.4869,-7.4869,-7.4869,-7.4869,-7.4869,-7.4869,-7.4869,-7.4869,-7.4869,-7.4869,-7.4869,-7.4869,-7.4869,-7.4869,-7.4869,-7.4869,-7.4869,-7.4869,-7.4869,-7.4869,-7.4869,-7.4869,-7.4869,-7.4869,-7.4869,-7.4869,-7.4869,-7.4869,-7.4869,-7.4869,-7.4869,-7.4869,-7.4869,-7.4869,-7.4869,-7.4869,-7.4869,-7.4869,-7.4869,-7.4869,-7.4599,-7.4629,-7.448,-7.433,-7.3911,-7.3702,-7.3223,-7.2834,-7.2475,-7.2146,-7.2026,-7.1787,-7.1697,-7.1218,-7.1038,-7.0949,-7.0919,-7.0919,-7.0919,-7.0919,-7.0919,-7.0919,-7.0919,-7.0919,-7.0919,-7.0919,-7.0919,-7.0919,-7.0919,-7.0919,-7.0919,-7.0919,-7.0919,-7.0919,-7.0919,-7.0919,-7.0919,-7.0919,-7.0919,-7.0919,-7.0919,-7.0919,-7.0739,-7.053,-7.029,-6.9931,-6.9662,-6.9542,-6.9183,-6.8884,-6.8824,-6.8645,-6.8076,-6.7717,-6.7627]},{"header":{"parameterUnit":"m.s-1","parameterCategory":1,"la1":31.0,"la2":29.5877,"lo1":-88.7671,"lo2":-86.6584,"dy":0.0162,"dx":0.0185,"nx":115,"ny":88,"refTime":"2024-04-07T06:00:00:Z","depth":0,"parameterNumber":3,"parameterNumberName":"V-component_of_WINDS"},"data":[0.0,0.0,0.0,0.0,0.0,0.0,0.0,0.0,0.0,0.0,0.0,0.0,0.0,0.0,0.0,0.0,0.0,0.0,0.0,0.0,0.0,0.0,0.0,0.0,0.0,0.0,0.0,0.0,0.0,0.0,0.0,0.0,0.0,0.0,0.0,0.0,0.0,0.0,0.0,0.0,0.0,0.0,0.0,0.0,0.0,0.0,0.0,0.0,0.0,0.0,0.0,0.0,0.0,0.0,0.0,0.0,0.0,0.0,0.0,0.0,0.0,0.0,0.0,0.0,0.0,0.0,0.0,0.0,0.0,0.0,0.0,0.0,0.0,0.0,0.0,0.0,0.0,0.0,0.0,0.0,0.0,0.0,0.0,0.0,0.0,0.0,0.0,0.0,0.0,0.0,0.0,0.0,0.0,0.0,0.0,0.0,0.0,0.0,0.0,0.0,0.0,0.0,0.0,0.0,0.0,0.0,0.0,0.0,0.0,0.0,0.0,0.0,0.0,0.0,0.0,0.0,0.0,0.0,0.0,0.0,0.0,0.0,0.0,0.0,0.0,0.0,0.0,0.0,0.0,0.0,0.0,0.0,0.0,0.0,0.0,0.0,0.0,0.0,0.0,0.0,0.0,0.0,0.0,0.0,0.0,0.0,0.0,0.0,0.0,0.0,0.0,0.0,0.0,0.0,0.0,0.0,0.0,0.0,0.0,0.0,0.0,0.0,0.0,0.0,0.0,0.0,0.0,0.0,0.0,0.0,0.0,0.0,0.0,0.0,0.0,0.0,0.0,0.0,0.0,0.0,0.0,0.0,0.0,0.0,0.0,0.0,0.0,0.0,0.0,0.0,0.0,0.0,0.0,0.0,0.0,0.0,0.0,0.0,0.0,0.0,0.0,0.0,0.0,0.0,0.0,0.0,0.0,0.0,0.0,0.0,0.0,0.0,0.0,0.0,0.0,0.0,0.0,0.0,0.0,0.0,0.0,0.0,0.0,0.0,0.0,0.0,0.0,0.0,0.0,0.0,0.0,0.0,0.0,0.0,0.0,0.0,0.0,0.0,0.0,0.0,0.0,0.0,0.0,0.0,0.0,0.0,0.0,0.0,0.0,0.0,0.0,0.0,0.0,0.0,0.0,0.0,0.0,0.0,0.0,0.0,0.0,0.0,0.0,0.0,0.0,0.0,0.0,0.0,0.0,0.0,0.0,0.0,0.0,0.0,0.0,0.0,0.0,0.0,0.0,0.0,0.0,0.0,0.0,0.0,0.0,0.0,0.0,0.0,0.0,0.0,0.0,0.0,0.0,0.0,0.0,0.0,0.0,0.0,0.0,0.0,0.0,0.0,0.0,0.0,0.0,0.0,0.0,0.0,0.0,0.0,0.0,0.0,0.0,0.0,0.0,0.0,0.0,0.0,0.0,0.0,0.0,0.0,0.0,0.0,0.0,0.0,0.0,0.0,0.0,0.0,0.0,0.0,0.0,0.0,0.0,0.0,0.0,0.0,0.0,0.0,0.0,0.0,0.0,0.0,0.0,0.0,0.0,0.0,0.0,0.0,0.0,0.0,0.0,0.0,0.0,0.0,0.0,0.0,0.0,0.0,0.0,0.0,0.0,0.0,0.0,0.0,0.0,0.0,0.0,0.0,0.0,0.0,0.0,0.0,0.0,0.0,0.0,0.0,0.0,0.0,0.0,0.0,0.0,0.0,0.0,0.0,0.0,0.0,0.0,0.0,0.0,0.0,0.0,0.0,0.0,0.0,0.0,0.0,0.0,0.0,0.0,0.0,0.0,0.0,0.0,0.0,0.0,0.0,0.0,0.0,0.0,0.0,0.0,0.0,0.0,0.0,0.0,0.0,0.0,0.0,0.0,0.0,0.0,0.0,0.0,0.0,0.0,0.0,0.0,0.0,0.0,0.0,0.0,0.0,0.0,0.0,0.0,0.0,0.0,0.0,0.0,0.0,0.0,0.0,0.0,0.0,0.0,0.0,0.0,0.0,0.0,0.0,0.0,0.0,0.0,0.0,0.0,0.0,0.0,0.0,0.0,0.0,0.0,0.0,0.0,0.0,0.0,0.0,0.0,0.0,0.0,0.0,0.0,0.0,0.0,0.0,0.0,0.0,0.0,0.0,0.0,0.0,0.0,0.0,0.0,0.0,0.0,0.0,0.0,0.0,0.0,0.0,0.0,0.0,0.0,0.0,0.0,0.0,0.0,0.0,0.0,0.0,0.0,0.0,0.0,0.0,0.0,0.0,0.0,0.0,0.0,0.0,0.0,0.0,0.0,0.0,0.0,0.0,0.0,0.0,0.0,0.0,0.0,0.0,0.0,0.0,0.0,0.0,0.0,0.0,0.0,0.0,0.0,0.0,0.0,0.0,0.0,0.0,0.0,0.0,0.0,0.0,0.0,0.0,0.0,0.0,0.0,0.0,0.0,0.0,0.0,0.0,0.0,0.0,0.0,0.0,0.0,0.0,0.0,0.0,0.0,0.0,0.0,0.0,0.0,0.0,0.0,0.0,0.0,0.0,0.0,0.0,0.0,0.0,0.0,0.0,0.0,0.0,0.0,0.0,0.0,0.0,0.0,0.0,0.0,0.0,0.0,0.0,0.0,0.0,0.0,0.0,0.0,0.0,0.0,0.0,0.0,0.0,0.0,0.0,0.0,0.0,0.0,0.0,0.0,0.0,0.0,0.0,0.0,0.0,0.0,0.0,0.0,0.0,0.0,0.0,0.0,0.0,0.0,0.0,0.0,0.0,0.0,0.0,0.0,0.0,0.0,0.0,0.0,0.0,0.0,0.0,0.0,0.0,0.0,0.0,0.0,0.0,0.0,0.0,0.0,0.0,0.0,0.0,0.0,0.0,0.0,0.0,0.0,0.0,0.0,0.0,0.0,0.0,0.0,0.0,0.0,0.0,0.0,0.0,0.0,0.0,0.0,0.0,0.0,0.0,0.0,0.0,0.0,0.0,0.0,0.0,0.0,0.0,0.0,0.0,0.0,0.0,0.0,0.0,0.0,0.0,0.0,0.0,0.0,0.0,0.0,0.0,0.0,0.0,0.0,0.0,0.0,0.0,0.0,0.0,0.0,0.0,0.0,0.0,0.0,0.0,0.0,0.0,0.0,0.0,0.0,0.0,0.0,0.0,0.0,0.0,0.0,0.0,0.0,0.0,0.0,0.0,0.0,0.0,0.0,0.0,0.0,0.0,0.0,0.0,0.0,0.0,0.0,0.0,0.0,0.0,0.0,0.0,0.0,0.0,0.0,0.0,0.0,0.0,0.0,0.0,0.0,0.0,0.0,0.0,0.0,0.0,0.0,0.0,0.0,0.0,0.0,0.0,0.0,0.0,0.0,0.0,0.0,0.0,0.0,0.0,0.0,0.0,0.0,0.0,0.0,0.0,0.0,0.0,0.0,0.0,0.0,0.0,0.0,0.0,0.0,0.0,0.0,0.0,0.0,0.0,0.0,0.0,0.0,0.0,0.0,0.0,0.0,0.0,0.0,0.0,0.0,0.0,0.0,0.0,0.0,0.0,0.0,0.0,0.0,0.0,0.0,0.0,0.0,0.0,0.0,0.0,0.0,0.0,0.0,0.0,0.0,0.0,0.0,0.0,0.0,0.0,0.0,0.0,0.0,0.0,0.0,0.0,0.0,0.0,0.0,0.0,0.0,0.0,0.0,0.0,0.0,0.0,0.0,0.0,0.0,0.0,0.0,0.0,0.0,0.0,0.0,0.0,0.0,0.0,0.0,0.0,0.0,0.0,0.0,0.0,0.0,0.0,0.0,0.0,0.0,0.0,0.0,0.0,0.0,0.0,0.0,0.0,0.0,0.0,0.0,0.0,0.0,0.0,0.0,0.0,0.0,0.0,0.0,0.0,0.0,0.0,0.0,0.0,0.0,0.0,0.0,0.0,0.0,0.0,0.0,0.0,0.0,0.0,0.0,0.0,0.0,0.0,0.0,0.0,0.0,0.0,0.0,0.0,0.0,0.0,0.0,0.0,0.0,0.0,0.0,0.0,0.0,0.0,0.0,0.0,0.0,0.0,0.0,0.0,0.0,0.0,0.0,0.0,0.0,0.0,0.0,0.0,0.0,0.0,0.0,0.0,0.0,0.0,0.0,0.0,0.0,0.0,0.0,0.0,0.0,0.0,0.0,0.0,0.0,0.0,0.0,0.0,0.0,0.0,0.0,0.0,0.0,0.0,0.0,0.0,0.0,0.0,0.0,0.0,0.0,0.0,0.0,0.0,0.0,0.0,0.0,0.0,0.0,0.0,2.5611,0.0,0.0,0.0,0.0,0.0,0.0,0.0,0.0,0.0,0.0,0.0,0.0,0.0,0.0,0.0,0.0,0.0,0.0,0.0,0.0,0.0,0.0,0.0,0.0,0.0,0.0,0.0,0.0,0.0,0.0,0.0,0.0,0.0,0.0,0.0,0.0,0.0,0.0,0.0,0.0,0.0,0.0,0.0,0.0,0.0,0.0,0.0,0.0,0.0,0.0,0.0,0.0,0.0,0.0,0.0,0.0,0.0,0.0,0.0,0.0,0.0,0.0,0.0,0.0,0.0,0.0,0.0,0.0,0.0,0.0,0.0,0.0,0.0,0.0,0.0,0.0,0.0,0.0,0.0,0.0,0.0,0.0,0.0,0.0,0.0,0.0,0.0,0.0,0.0,0.0,0.0,0.0,0.0,0.0,0.0,0.0,0.0,0.0,0.0,0.0,0.0,0.0,0.0,0.0,0.0,0.0,0.0,0.0,0.0,0.0,2.6499,2.6499,2.6499,2.6373,2.6122,0.0,0.0,0.0,0.0,0.0,0.0,0.0,0.0,0.0,0.0,0.0,0.0,0.0,0.0,0.0,0.0,0.0,0.0,0.0,0.0,0.0,0.0,0.0,0.0,0.0,0.0,0.0,0.0,0.0,0.0,0.0,0.0,0.0,0.0,0.0,0.0,0.0,0.0,0.0,0.0,0.0,0.0,0.0,0.0,0.0,0.0,0.0,0.0,0.0,0.0,0.0,0.0,0.0,0.0,0.0,0.0,0.0,0.0,0.0,0.0,0.0,0.0,0.0,0.0,0.0,0.0,0.0,0.0,0.0,0.0,0.0,0.0,0.0,0.0,0.0,0.0,0.0,0.0,0.0,0.0,0.0,0.0,0.0,0.0,0.0,0.0,0.0,0.0,0.0,0.0,0.0,0.0,0.0,0.0,0.0,0.0,0.0,0.0,0.0,0.0,0.0,0.0,0.0,0.0,0.0,0.0,0.0,0.0,0.0,0.0,0.0,0.0,2.6499,2.6499,2.6499,0.0,0.0,0.0,0.0,0.0,0.0,0.0,0.0,0.0,0.0,0.0,0.0,0.0,0.0,0.0,0.0,0.0,0.0,0.0,0.0,0.0,0.0,0.0,0.0,0.0,0.0,0.0,0.0,0.0,0.0,0.0,0.0,0.0,0.0,0.0,0.0,0.0,0.0,0.0,0.0,0.0,0.0,0.0,0.0,0.0,0.0,0.0,0.0,0.0,0.0,0.0,0.0,0.0,0.0,0.0,0.0,0.0,0.0,0.0,0.0,0.0,0.0,0.0,0.0,0.0,0.0,0.0,0.0,0.0,0.0,0.0,0.0,0.0,0.0,0.0,0.0,0.0,0.0,0.0,0.0,0.0,0.0,0.0,0.0,0.0,0.0,0.0,0.0,0.0,0.0,0.0,0.0,0.0,0.0,0.0,0.0,0.0,0.0,0.0,0.0,0.0,0.0,0.0,0.0,0.0,0.0,0.0,0.0,0.0,0.0,2.6499,2.6499,2.6499,0.0,2.6499,0.0,0.0,0.0,0.0,0.0,0.0,0.0,0.0,0.0,0.0,0.0,0.0,0.0,0.0,0.0,0.0,0.0,0.0,0.0,0.0,0.0,0.0,0.0,0.0,0.0,0.0,0.0,0.0,0.0,0.0,0.0,0.0,0.0,0.0,0.0,0.0,0.0,0.0,0.0,0.0,0.0,0.0,0.0,0.0,0.0,0.0,0.0,0.0,0.0,0.0,0.0,0.0,0.0,0.0,0.0,0.0,0.0,0.0,0.0,0.0,0.0,0.0,0.0,0.0,0.0,0.0,0.0,0.0,0.0,0.0,0.0,0.0,0.0,0.0,0.0,0.0,0.0,0.0,0.0,0.0,0.0,0.0,0.0,0.0,0.0,0.0,0.0,0.0,0.0,0.0,0.0,0.0,0.0,0.0,0.0,0.0,0.0,0.0,0.0,0.0,0.0,0.0,0.0,0.0,0.0,0.0,0.0,0.0,0.0,0.0,2.6826,2.6499,2.6499,2.6499,0.0,0.0,0.0,0.0,0.0,0.0,0.0,0.0,0.0,0.0,0.0,0.0,0.0,0.0,0.0,0.0,0.0,0.0,0.0,0.0,0.0,0.0,0.0,0.0,0.0,0.0,0.0,0.0,0.0,0.0,0.0,0.0,0.0,0.0,0.0,0.0,0.0,0.0,0.0,0.0,0.0,0.0,0.0,0.0,0.0,0.0,0.0,0.0,0.0,0.0,0.0,0.0,0.0,0.0,0.0,0.0,0.0,0.0,0.0,0.0,0.0,0.0,0.0,0.0,0.0,0.0,0.0,0.0,0.0,0.0,0.0,0.0,0.0,0.0,0.0,0.0,0.0,0.0,0.0,0.0,0.0,0.0,0.0,0.0,0.0,0.0,0.0,0.0,0.0,0.0,0.0,0.0,0.0,0.0,0.0,0.0,0.0,0.0,0.0,0.0,0.0,0.0,0.0,0.0,0.0,0.0,0.0,0.0,0.0,0.0,2.6876,2.6901,2.6524,2.6499,2.6424,2.6273,0.0,0.0,0.0,0.0,0.0,0.0,0.0,0.0,0.0,0.0,0.0,0.0,0.0,0.0,0.0,0.0,0.0,0.0,0.0,0.0,0.0,0.0,0.0,0.0,0.0,0.0,0.0,0.0,0.0,0.0,0.0,0.0,0.0,0.0,0.0,0.0,0.0,0.0,0.0,0.0,0.0,0.0,0.0,0.0,0.0,0.0,0.0,0.0,0.0,0.0,0.0,0.0,0.0,0.0,0.0,0.0,0.0,0.0,0.0,0.0,0.0,0.0,0.0,0.0,0.0,0.0,0.0,0.0,0.0,0.0,0.0,0.0,0.0,0.0,0.0,0.0,0.0,0.0,0.0,0.0,0.0,0.0,0.0,0.0,0.0,0.0,0.0,0.0,0.0,0.0,0.0,0.0,0.0,0.0,0.0,0.0,0.0,0.0,0.0,0.0,0.0,0.0,0.0,0.0,0.0,0.0,0.0,0.0,2.6499,2.6524,2.6524,2.6499,2.6499,2.6223,0.0,0.0,0.0,0.0,0.0,0.0,0.0,0.0,0.0,0.0,0.0,0.0,0.0,0.0,0.0,0.0,0.0,0.0,0.0,0.0,0.0,0.0,0.0,0.0,0.0,0.0,0.0,0.0,0.0,0.0,0.0,0.0,0.0,0.0,0.0,0.0,0.0,0.0,0.0,0.0,0.0,0.0,0.0,0.0,0.0,0.0,0.0,0.0,0.0,0.0,0.0,0.0,0.0,0.0,0.0,0.0,0.0,0.0,0.0,0.0,0.0,0.0,0.0,0.0,0.0,0.0,0.0,0.0,0.0,0.0,0.0,0.0,0.0,0.0,0.0,0.0,0.0,0.0,0.0,0.0,0.0,0.0,0.0,0.0,0.0,0.0,0.0,0.0,0.0,0.0,0.0,0.0,0.0,0.0,0.0,0.0,0.0,0.0,0.0,0.0,0.0,0.0,0.0,0.0,0.0,0.0,0.0,0.0,0.0,2.6499,2.6499,2.665,2.7002,2.6675,2.6223,0.0,0.0,0.0,0.0,0.0,0.0,0.0,0.0,0.0,0.0,0.0,0.0,0.0,0.0,0.0,0.0,0.0,0.0,0.0,0.0,0.0,0.0,0.0,0.0,0.0,0.0,0.0,0.0,0.0,0.0,0.0,0.0,0.0,0.0,0.0,0.0,0.0,0.0,0.0,0.0,0.0,0.0,0.0,0.0,0.0,0.0,0.0,0.0,0.0,0.0,0.0,0.0,0.0,0.0,0.0,0.0,0.0,0.0,0.0,0.0,0.0,0.0,0.0,0.0,0.0,0.0,0.0,0.0,0.0,0.0,0.0,0.0,0.0,0.0,0.0,0.0,0.0,0.0,0.0,0.0,0.0,0.0,0.0,0.0,0.0,0.0,0.0,0.0,0.0,0.0,0.0,0.0,0.0,0.0,0.0,0.0,0.0,0.0,0.0,0.0,0.0,0.0,0.0,0.0,0.0,0.0,0.0,0.0,0.0,2.6751,0.0,2.7128,2.7278,2.6952,2.6323,0.0,0.0,0.0,0.0,0.0,0.0,0.0,0.0,0.0,0.0,0.0,0.0,0.0,0.0,0.0,0.0,0.0,0.0,0.0,0.0,0.0,0.0,0.0,0.0,0.0,0.0,0.0,0.0,0.0,0.0,0.0,0.0,0.0,0.0,0.0,0.0,0.0,0.0,0.0,0.0,0.0,0.0,0.0,0.0,0.0,0.0,0.0,0.0,0.0,0.0,0.0,0.0,0.0,0.0,0.0,0.0,0.0,0.0,0.0,0.0,0.0,0.0,0.0,0.0,0.0,0.0,0.0,0.0,0.0,0.0,0.0,0.0,0.0,0.0,0.0,0.0,0.0,0.0,0.0,0.0,0.0,0.0,0.0,0.0,0.0,0.0,0.0,0.0,0.0,0.0,0.0,0.0,0.0,0.0,0.0,0.0,0.0,0.0,0.0,0.0,0.0,0.0,0.0,0.0,0.0,0.0,0.0,0.0,2.6826,2.7293,2.7846,2.7896,2.7379,2.7318,2.6515,0.0,0.0,0.0,0.0,0.0,0.0,0.0,0.0,0.0,0.0,0.0,0.0,0.0,0.0,0.0,0.0,0.0,0.0,0.0,0.0,0.0,0.0,0.0,0.0,0.0,0.0,0.0,0.0,0.0,0.0,0.0,0.0,0.0,0.0,0.0,0.0,0.0,0.0,0.0,0.0,0.0,0.0,0.0,0.0,0.0,0.0,0.0,0.0,0.0,0.0,0.0,0.0,0.0,0.0,0.0,0.0,0.0,0.0,0.0,0.0,0.0,0.0,0.0,0.0,0.0,0.0,0.0,0.0,0.0,0.0,0.0,0.0,0.0,0.0,0.0,0.0,0.0,0.0,0.0,0.0,0.0,0.0,0.0,0.0,0.0,0.0,0.0,0.0,0.0,0.0,0.0,0.0,0.0,0.0,0.0,0.0,0.0,0.0,0.0,0.0,0.0,0.0,0.0,0.0,0.0,0.0,0.0,0.0,0.0,2.8448,2.8976,2.9001,2.8448,2.8047,2.7243,0.0,0.0,0.0,0.0,0.0,0.0,0.0,0.0,0.0,0.0,0.0,0.0,0.0,0.0,0.0,0.0,0.0,0.0,0.0,0.0,0.0,0.0,0.0,0.0,0.0,0.0,0.0,0.0,0.0,0.0,0.0,0.0,0.0,0.0,0.0,0.0,0.0,0.0,0.0,0.0,0.0,0.0,0.0,0.0,0.0,0.0,0.0,0.0,0.0,0.0,0.0,0.0,0.0,0.0,0.0,0.0,0.0,0.0,0.0,0.0,0.0,0.0,0.0,0.0,0.0,0.0,0.0,0.0,0.0,0.0,0.0,0.0,0.0,0.0,0.0,0.0,0.0,0.0,0.0,0.0,0.0,0.0,0.0,0.0,0.0,0.0,0.0,0.0,0.0,0.0,0.0,0.0,0.0,0.0,0.0,0.0,0.0,0.0,0.0,0.0,0.0,0.0,0.0,0.0,0.0,0.0,0.0,0.0,0.0,3.1044,3.1235,3.11,3.0601,2.9845,2.8773,2.7399,0.0,0.0,0.0,0.0,0.0,0.0,0.0,0.0,0.0,0.0,0.0,0.0,0.0,0.0,0.0,0.0,0.0,0.0,0.0,0.0,0.0,0.0,0.0,0.0,0.0,0.0,0.0,0.0,0.0,0.0,0.0,0.0,0.0,0.0,0.0,0.0,0.0,0.0,0.0,0.0,0.0,0.0,0.0,0.0,0.0,0.0,0.0,0.0,0.0,0.0,0.0,0.0,0.0,0.0,0.0,0.0,0.0,0.0,0.0,0.0,0.0,0.0,0.0,0.0,0.0,0.0,0.0,0.0,0.0,0.0,0.0,0.0,0.0,0.0,0.0,0.0,0.0,0.0,0.0,0.0,0.0,0.0,0.0,0.0,0.0,0.0,0.0,0.0,0.0,0.0,0.0,0.0,0.0,0.0,0.0,0.0,0.0,0.0,0.0,0.0,0.0,0.0,0.0,0.0,0.0,0.0,0.0,0.0,3.4876,3.457,3.4149,3.3589,3.2472,3.0967,0.0,0.0,0.0,0.0,0.0,0.0,0.0,0.0,0.0,0.0,0.0,0.0,0.0,0.0,0.0,0.0,0.0,0.0,0.0,0.0,0.0,0.0,0.0,0.0,0.0,0.0,0.0,0.0,0.0,0.0,0.0,0.0,0.0,0.0,0.0,0.0,0.0,0.0,0.0,0.0,0.0,0.0,0.0,0.0,0.0,0.0,0.0,0.0,0.0,0.0,0.0,0.0,0.0,0.0,0.0,0.0,0.0,0.0,0.0,0.0,0.0,0.0,0.0,0.0,0.0,0.0,0.0,0.0,0.0,0.0,0.0,0.0,0.0,0.0,0.0,0.0,0.0,0.0,0.0,0.0,0.0,0.0,0.0,0.0,0.0,0.0,0.0,0.0,0.0,0.0,0.0,0.0,0.0,0.0,0.0,0.0,0.0,0.0,0.0,0.0,0.0,0.0,0.0,0.0,0.0,0.0,0.0,0.0,0.0,3.747,3.9389,3.8977,3.6019,3.4768,3.3282,0.0,0.0,0.0,0.0,0.0,0.0,0.0,0.0,0.0,0.0,0.0,0.0,0.0,0.0,0.0,0.0,0.0,0.0,0.0,0.0,0.0,0.0,0.0,0.0,0.0,0.0,0.0,0.0,0.0,0.0,0.0,0.0,0.0,0.0,0.0,0.0,0.0,0.0,0.0,0.0,0.0,0.0,0.0,0.0,0.0,0.0,0.0,0.0,0.0,0.0,0.0,0.0,0.0,0.0,0.0,0.0,0.0,0.0,0.0,0.0,0.0,0.0,0.0,0.0,0.0,0.0,0.0,0.0,0.0,0.0,0.0,0.0,0.0,0.0,0.0,0.0,0.0,0.0,0.0,0.0,0.0,0.0,0.0,0.0,0.0,0.0,0.0,0.0,0.0,0.0,0.0,0.0,0.0,0.0,0.0,0.0,0.0,0.0,0.0,0.0,0.0,0.0,0.0,0.0,0.0,0.0,0.0,0.0,3.7224,4.0208,4.3048,4.3467,4.1305,3.8652,3.6367,0.0,0.0,0.0,0.0,0.0,0.0,0.0,0.0,0.0,0.0,0.0,0.0,0.0,0.0,0.0,0.0,0.0,0.0,0.0,0.0,0.0,0.0,0.0,0.0,0.0,0.0,0.0,0.0,0.0,0.0,0.0,0.0,0.0,0.0,0.0,0.0,0.0,0.0,0.0,0.0,0.0,0.0,0.0,0.0,0.0,0.0,0.0,0.0,0.0,0.0,0.0,0.0,0.0,0.0,0.0,0.0,0.0,0.0,0.0,0.0,0.0,0.0,0.0,0.0,0.0,0.0,0.0,0.0,0.0,0.0,0.0,0.0,0.0,0.0,0.0,0.0,0.0,0.0,0.0,0.0,0.0,0.0,0.0,0.0,0.0,0.0,0.0,0.0,0.0,0.0,0.0,0.0,0.0,0.0,0.0,0.0,0.0,0.0,0.0,0.0,0.0,0.0,0.0,0.0,0.0,0.0,0.0,0.0,3.9616,4.2996,4.5866,4.7444,4.7615,4.3329,3.9884,0.0,0.0,0.0,0.0,0.0,0.0,0.0,0.0,0.0,0.0,0.0,0.0,0.0,0.0,0.0,0.0,0.0,0.0,0.0,0.0,0.0,0.0,0.0,0.0,0.0,0.0,0.0,0.0,0.0,0.0,0.0,0.0,0.0,0.0,0.0,0.0,0.0,0.0,0.0,0.0,0.0,0.0,0.0,0.0,0.0,0.0,0.0,0.0,0.0,0.0,0.0,0.0,0.0,0.0,0.0,0.0,0.0,0.0,0.0,0.0,0.0,0.0,0.0,0.0,0.0,0.0,0.0,0.0,0.0,0.0,0.0,0.0,0.0,0.0,0.0,0.0,0.0,0.0,0.0,0.0,0.0,0.0,0.0,0.0,0.0,0.0,0.0,0.0,0.0,0.0,0.0,0.0,0.0,0.0,0.0,0.0,0.0,0.0,0.0,0.0,0.0,0.0,0.0,0.0,0.0,0.0,0.0,0.0,4.1714,4.5365,4.8047,4.9659,5.0105,4.6428,4.3073,0.0,0.0,0.0,0.0,0.0,0.0,0.0,0.0,0.0,0.0,0.0,0.0,0.0,0.0,0.0,0.0,0.0,0.0,0.0,0.0,0.0,0.0,0.0,0.0,0.0,0.0,0.0,0.0,0.0,0.0,0.0,0.0,0.0,0.0,0.0,0.0,0.0,0.0,0.0,0.0,0.0,0.0,0.0,0.0,0.0,0.0,0.0,0.0,2.455,0.0,0.0,0.0,0.0,0.0,0.0,0.0,0.0,0.0,0.0,0.0,0.0,0.0,0.0,0.0,0.0,0.0,0.0,0.0,0.0,0.0,0.0,0.0,0.0,0.0,0.0,0.0,0.0,0.0,0.0,0.0,0.0,0.0,0.0,0.0,0.0,0.0,0.0,0.0,0.0,0.0,0.0,0.0,0.0,0.0,0.0,0.0,0.0,0.0,0.0,0.0,0.0,0.0,0.0,0.0,0.0,0.0,0.0,0.0,4.3855,4.751,5.0455,5.2095,5.2268,4.9728,4.6417,0.0,0.0,0.0,0.0,0.0,0.0,0.0,0.0,0.0,0.0,0.0,0.0,0.0,0.0,0.0,0.0,0.0,0.0,0.0,0.0,0.0,0.0,0.0,0.0,0.0,0.0,0.0,0.0,0.0,0.0,0.0,0.0,0.0,0.0,0.0,0.0,0.0,0.0,0.0,0.0,0.0,0.0,0.0,0.0,0.0,0.0,0.0,0.0,0.0,0.0,0.0,0.0,0.0,0.0,0.0,0.0,0.0,0.0,0.0,0.0,0.0,0.0,0.0,0.0,0.0,0.0,0.0,0.0,0.0,0.0,0.0,0.0,0.0,0.0,0.0,0.0,0.0,0.0,0.0,0.0,0.0,0.0,0.0,0.0,0.0,0.0,0.0,0.0,0.0,0.0,0.0,0.0,0.0,0.0,0.0,0.0,0.0,0.0,0.0,0.0,0.0,0.0,0.0,0.0,0.0,0.0,0.0,4.1792,4.5953,4.9527,5.2567,5.4174,5.4175,5.2478,4.9308,4.4678,0.0,0.0,0.0,0.0,0.0,0.0,0.0,0.0,0.0,0.0,0.0,0.0,0.0,0.0,0.0,0.0,0.0,0.0,0.0,0.0,0.0,0.0,0.0,0.0,0.0,0.0,0.0,0.0,0.0,0.0,0.0,0.0,0.0,0.0,0.0,0.0,0.0,0.0,2.5109,2.6565,0.0,0.0,0.0,0.0,0.0,0.0,0.0,0.0,2.6751,0.0,0.0,0.0,0.0,0.0,0.0,0.0,0.0,0.0,0.0,0.0,0.0,0.0,0.0,0.0,0.0,0.0,0.0,0.0,0.0,0.0,0.0,0.0,0.0,0.0,0.0,0.0,0.0,0.0,0.0,0.0,0.0,0.0,0.0,0.0,0.0,0.0,0.0,0.0,0.0,0.0,0.0,0.0,0.0,0.0,0.0,0.0,0.0,0.0,0.0,0.0,0.0,0.0,0.0,0.0,0.0,3.9197,4.3782,4.789,5.1375,5.3497,5.4715,5.5086,5.2793,4.9902,4.6477,0.0,0.0,0.0,0.0,0.0,0.0,0.0,0.0,0.0,0.0,0.0,0.0,0.0,0.0,0.0,0.0,0.0,0.0,0.0,0.0,0.0,0.0,0.0,0.0,0.0,0.0,0.0,0.0,0.0,0.0,0.0,0.0,0.0,0.0,0.0,0.0,0.0,0.0,0.0,2.7896,2.8587,0.0,0.0,0.0,0.0,0.0,0.0,0.0,0.0,2.7444,0.0,0.0,0.0,0.0,0.0,0.0,0.0,0.0,0.0,0.0,0.0,0.0,0.0,0.0,0.0,0.0,0.0,0.0,0.0,0.0,0.0,0.0,0.0,0.0,0.0,0.0,0.0,0.0,0.0,0.0,0.0,0.0,0.0,0.0,0.0,0.0,0.0,0.0,0.0,0.0,0.0,0.0,0.0,0.0,0.0,0.0,0.0,0.0,0.0,0.0,0.0,0.0,0.0,0.0,0.0,4.0186,4.501,4.9109,5.2296,5.4743,5.5729,5.5084,5.3187,5.0412,0.0,0.0,0.0,0.0,0.0,0.0,0.0,0.0,0.0,0.0,0.0,0.0,0.0,0.0,0.0,0.0,0.0,0.0,0.0,0.0,0.0,0.0,0.0,0.0,0.0,0.0,0.0,0.0,0.0,0.0,0.0,0.0,0.0,0.0,0.0,0.0,0.0,0.0,0.0,0.0,2.9289,3.0206,3.0206,0.0,0.0,0.0,0.0,0.0,0.0,2.9578,2.9126,0.0,0.0,0.0,0.0,0.0,0.0,0.0,0.0,0.0,0.0,0.0,0.0,0.0,0.0,0.0,0.0,0.0,0.0,0.0,0.0,0.0,0.0,0.0,0.0,0.0,0.0,0.0,0.0,0.0,0.0,0.0,0.0,0.0,0.0,0.0,0.0,0.0,0.0,0.0,0.0,0.0,0.0,0.0,0.0,0.0,0.0,0.0,0.0,0.0,0.0,0.0,0.0,0.0,0.0,0.0,4.1174,4.6188,5.0169,5.3104,5.5873,5.654,5.4914,5.3453,5.056,0.0,0.0,0.0,0.0,0.0,0.0,0.0,0.0,0.0,0.0,0.0,0.0,0.0,0.0,0.0,0.0,0.0,0.0,0.0,0.0,0.0,0.0,0.0,0.0,0.0,0.0,0.0,0.0,0.0,0.0,0.0,0.0,0.0,0.0,0.0,0.0,0.0,0.0,0.0,0.0,0.0,3.1813,3.2014,3.2064,0.0,0.0,0.0,0.0,3.1838,3.1461,0.0,0.0,0.0,0.0,0.0,0.0,0.0,0.0,0.0,0.0,0.0,0.0,0.0,0.0,0.0,0.0,0.0,0.0,0.0,0.0,0.0,0.0,0.0,0.0,0.0,0.0,0.0,0.0,0.0,0.0,0.0,0.0,0.0,0.0,0.0,0.0,0.0,0.0,0.0,0.0,0.0,0.0,0.0,0.0,0.0,0.0,0.0,0.0,0.0,0.0,0.0,0.0,0.0,0.0,0.0,0.0,4.2978,4.7526,5.1268,5.4282,5.6272,5.6624,5.523,5.3059,4.9875,0.0,0.0,0.0,0.0,0.0,0.0,0.0,0.0,0.0,0.0,0.0,0.0,0.0,0.0,0.0,0.0,0.0,0.0,0.0,0.0,0.0,0.0,0.0,0.0,0.0,0.0,0.0,0.0,0.0,0.0,0.0,0.0,0.0,0.0,0.0,0.0,0.0,0.0,0.0,0.0,0.0,3.3244,3.4198,3.4349,3.4148,0.0,0.0,3.3545,3.3596,3.3144,0.0,0.0,0.0,0.0,0.0,0.0,0.0,0.0,0.0,0.0,0.0,0.0,0.0,0.0,0.0,0.0,0.0,0.0,0.0,0.0,0.0,0.0,0.0,0.0,0.0,0.0,0.0,0.0,0.0,0.0,0.0,0.0,0.0,0.0,0.0,0.0,0.0,0.0,0.0,0.0,0.0,0.0,0.0,0.0,0.0,0.0,0.0,0.0,0.0,0.0,0.0,0.0,0.0,0.0,0.0,3.8913,4.4031,4.8815,5.2603,5.5249,5.7163,5.7104,5.5012,5.304,4.9895,0.0,0.0,0.0,0.0,0.0,0.0,0.0,0.0,0.0,0.0,0.0,0.0,0.0,0.0,0.0,0.0,0.0,0.0,0.0,0.0,0.0,0.0,0.0,0.0,0.0,0.0,0.0,0.0,0.0,0.0,0.0,0.0,0.0,0.0,0.0,0.0,0.0,0.0,0.0,0.0,0.0,0.0,3.5881,3.6107,0.0,0.0,0.0,3.5881,3.6182,0.0,0.0,0.0,0.0,0.0,0.0,0.0,0.0,0.0,0.0,0.0,0.0,0.0,0.0,0.0,0.0,0.0,0.0,0.0,0.0,0.0,0.0,0.0,0.0,0.0,0.0,0.0,0.0,0.0,0.0,0.0,0.0,0.0,0.0,0.0,0.0,0.0,0.0,0.0,0.0,0.0,0.0,0.0,0.0,0.0,0.0,0.0,0.0,0.0,0.0,0.0,0.0,0.0,0.0,0.0,0.0,0.0,4.4851,4.9853,5.3658,5.5982,5.7794,5.7506,5.504,5.3177,0.0,0.0,0.0,0.0,0.0,0.0,0.0,0.0,0.0,0.0,0.0,0.0,0.0,0.0,0.0,0.0,0.0,0.0,0.0,0.0,0.0,0.0,0.0,0.0,0.0,0.0,0.0,2.4613,0.0,0.0,0.0,0.0,0.0,0.0,0.0,0.0,0.0,0.0,0.0,0.0,0.0,0.0,3.5328,3.7513,3.7939,3.8165,0.0,0.0,3.8115,3.8391,3.7586,3.6676,0.0,0.0,0.0,0.0,0.0,0.0,0.0,0.0,0.0,0.0,0.0,0.0,0.0,0.0,0.0,0.0,0.0,0.0,0.0,0.0,0.0,0.0,0.0,0.0,0.0,0.0,0.0,0.0,0.0,0.0,0.0,0.0,0.0,0.0,0.0,0.0,0.0,0.0,0.0,0.0,0.0,0.0,0.0,0.0,0.0,0.0,0.0,0.0,0.0,0.0,0.0,0.0,0.0,0.0,4.0614,4.5566,5.0475,5.4045,5.6249,5.7848,5.7713,5.5694,5.3416,5.0032,0.0,0.0,0.0,0.0,0.0,0.0,0.0,0.0,0.0,0.0,0.0,0.0,0.0,0.0,0.0,0.0,0.0,0.0,0.0,0.0,0.0,0.0,0.0,0.0,0.0,0.0,0.0,0.0,0.0,0.0,0.0,0.0,0.0,0.0,0.0,0.0,0.0,0.0,0.0,0.0,0.0,3.7036,3.922,3.9973,4.03,0.0,4.03,4.0124,3.9647,3.8843,3.7726,3.6155,0.0,0.0,0.0,0.0,0.0,0.0,0.0,0.0,0.0,0.0,0.0,0.0,0.0,0.0,0.0,0.0,0.0,0.0,0.0,0.0,0.0,0.0,0.0,0.0,0.0,0.0,0.0,0.0,0.0,0.0,0.0,0.0,0.0,0.0,0.0,0.0,0.0,0.0,0.0,0.0,0.0,0.0,0.0,0.0,0.0,0.0,0.0,0.0,0.0,0.0,0.0,0.0,0.0,4.2026,4.6284,5.1444,5.4975,5.675,5.8196,5.8011,5.6042,5.3544,5.0421,0.0,0.0,0.0,0.0,0.0,0.0,0.0,0.0,0.0,0.0,0.0,0.0,0.0,0.0,0.0,0.0,0.0,0.0,0.0,0.0,0.0,0.0,0.0,0.0,0.0,0.0,0.0,0.0,2.8103,2.8084,2.7475,0.0,0.0,0.0,0.0,0.0,0.0,0.0,0.0,0.0,0.0,3.7688,3.9873,4.0676,0.0,0.0,4.1389,4.114,4.0991,3.9931,3.8704,3.7544,3.537,0.0,0.0,0.0,0.0,0.0,0.0,0.0,0.0,0.0,0.0,0.0,0.0,0.0,0.0,0.0,0.0,0.0,0.0,0.0,0.0,0.0,0.0,0.0,0.0,0.0,0.0,0.0,0.0,0.0,0.0,0.0,0.0,0.0,0.0,0.0,0.0,0.0,0.0,0.0,0.0,0.0,0.0,0.0,0.0,0.0,0.0,0.0,0.0,0.0,0.0,0.0,0.0,4.3219,4.7066,5.2237,5.5654,5.7064,5.8231,5.8052,5.6466,5.3892,5.105,0.0,0.0,0.0,0.0,0.0,0.0,0.0,0.0,0.0,0.0,0.0,0.0,0.0,0.0,0.0,0.0,0.0,0.0,0.0,0.0,0.0,0.0,0.0,0.0,0.0,0.0,0.0,0.0,2.9518,2.9183,2.845,0.0,0.0,0.0,0.0,0.0,0.0,0.0,0.0,0.0,0.0,3.8442,4.0475,4.1326,4.1907,4.2187,4.2103,4.1755,4.1273,4.0364,3.9331,3.826,0.0,0.0,0.0,0.0,0.0,0.0,0.0,0.0,0.0,0.0,0.0,0.0,0.0,0.0,0.0,0.0,0.0,0.0,0.0,0.0,0.0,0.0,0.0,0.0,0.0,0.0,0.0,3.7259,0.0,0.0,3.5415,0.0,0.0,0.0,0.0,0.0,0.0,0.0,0.0,0.0,0.0,0.0,0.0,0.0,0.0,0.0,0.0,0.0,0.0,0.0,0.0,0.0,0.0,4.3908,4.7941,5.2718,5.5807,5.7034,5.7782,5.7812,5.7004,5.4521,5.1935,4.9209,0.0,0.0,0.0,0.0,0.0,0.0,0.0,0.0,0.0,0.0,0.0,0.0,0.0,0.0,0.0,0.0,0.0,0.0,0.0,0.0,0.0,0.0,0.0,0.0,0.0,0.0,2.9987,3.004,2.9898,0.0,0.0,0.0,0.0,0.0,0.0,0.0,0.0,0.0,0.0,3.7437,3.9421,4.1,4.2233,4.266,4.2263,4.2406,4.2011,4.0438,4.0055,3.9424,0.0,0.0,0.0,0.0,0.0,0.0,0.0,0.0,0.0,0.0,0.0,0.0,0.0,0.0,0.0,0.0,0.0,0.0,0.0,0.0,0.0,0.0,0.0,0.0,0.0,0.0,0.0,4.1538,4.0959,0.0,0.0,0.0,0.0,0.0,0.0,0.0,0.0,0.0,0.0,0.0,4.5848,4.5878,0.0,0.0,0.0,0.0,0.0,0.0,0.0,0.0,0.0,0.0,0.0,0.0,4.4935,4.8238,5.2845,5.5628,5.6466,5.7573,5.7603,5.6496,5.4341,5.09,4.6112,0.0,0.0,0.0,0.0,0.0,0.0,0.0,0.0,0.0,0.0,0.0,0.0,0.0,0.0,0.0,0.0,0.0,0.0,0.0,0.0,0.0,0.0,0.0,0.0,0.0,3.1723,0.0,0.0,0.0,0.0,0.0,0.0,0.0,0.0,0.0,0.0,0.0,3.3822,3.583,3.8015,3.9747,4.0676,4.143,4.1831,0.0,0.0,0.0,0.0,0.0,0.0,0.0,0.0,0.0,0.0,0.0,0.0,0.0,0.0,3.1662,2.9829,2.9352,2.9227,2.9227,0.0,0.0,0.0,0.0,0.0,0.0,0.0,0.0,0.0,0.0,0.0,0.0,0.0,0.0,4.5285,0.0,4.3772,0.0,0.0,0.0,0.0,0.0,0.0,0.0,0.0,4.7249,4.8386,4.9643,4.9883,4.9478,0.0,4.7013,4.4344,0.0,0.0,0.0,0.0,0.0,0.0,0.0,0.0,4.5998,4.8985,5.3084,5.5508,5.6218,5.7214,5.7244,5.6218,5.4012,5.0481,4.5514,4.3688,4.1504,0.0,0.0,0.0,0.0,0.0,0.0,0.0,0.0,0.0,0.0,0.0,0.0,0.0,0.0,0.0,0.0,0.0,0.0,0.0,0.0,0.0,0.0,0.0,3.2876,0.0,0.0,0.0,0.0,0.0,0.0,0.0,0.0,0.0,3.2204,3.3492,3.5077,3.6709,3.8517,3.9898,4.045,0.0,0.0,0.0,0.0,0.0,0.0,0.0,3.9687,3.9146,3.8672,3.8201,3.7806,3.7333,3.6812,3.6461,0.0,0.0,3.2591,3.2039,3.2039,3.2039,3.1997,3.219,3.2742,3.2842,3.2893,0.0,0.0,0.0,0.0,0.0,0.0,0.0,0.0,4.9418,4.9075,0.0,4.71,0.0,0.0,0.0,0.0,4.271,4.4556,0.0,0.0,4.9763,5.1033,5.2306,5.2995,5.2636,5.1379,5.0614,4.9269,4.7249,4.291,0.0,0.0,0.0,0.0,0.0,0.0,4.701,5.0166,5.3533,5.5508,5.6137,5.6765,5.6765,5.6017,5.3533,5.0631,4.7519,4.6052,4.4137,4.1602,3.9559,0.0,0.0,0.0,0.0,0.0,0.0,0.0,0.0,0.0,0.0,0.0,0.0,0.0,0.0,0.0,0.0,0.0,0.0,0.0,0.0,3.3699,0.0,0.0,0.0,0.0,0.0,0.0,0.0,0.0,0.0,0.0,3.4605,3.5178,3.616,3.7814,0.0,0.0,0.0,0.0,4.105,4.0601,4.0711,4.0565,3.95,3.9548,3.9519,3.9007,0.0,0.0,3.9698,3.9722,3.9697,3.9722,3.9622,3.8718,3.5554,3.4926,3.4851,3.4806,3.4851,3.5006,3.5483,3.5633,3.5759,5.5683,0.0,0.0,0.0,0.0,5.1105,5.1882,5.2748,5.3294,5.2845,5.1738,5.09,0.0,0.0,0.0,0.0,0.0,0.0,4.9434,5.1768,5.2665,5.3773,5.511,5.5688,5.5538,5.473,5.3623,5.2546,5.1379,4.8267,4.5304,4.2512,0.0,0.0,0.0,0.0,4.8596,5.099,5.4192,5.5748,5.5478,5.6526,5.6107,5.4072,5.2396,5.0631,4.8745,4.7429,4.5723,4.3569,4.2043,0.0,0.0,0.0,0.0,0.0,0.0,0.0,0.0,0.0,0.0,0.0,0.0,0.0,0.0,0.0,0.0,0.0,0.0,0.0,3.5448,3.5668,3.5461,0.0,0.0,0.0,0.0,0.0,0.0,0.0,0.0,0.0,3.718,3.7278,3.7638,0.0,0.0,3.9747,3.9898,4.0074,4.0249,4.0475,4.0711,0.0,4.0969,4.1022,4.1076,4.0871,4.0788,4.0729,4.0852,4.0877,4.0824,4.0877,4.0877,4.0526,3.962,3.8467,3.7739,3.7688,3.7688,3.7864,3.8366,3.8492,3.8542,6.1983,5.7451,5.5275,5.455,5.497,5.5359,5.6226,5.7334,5.7184,5.6675,5.5807,5.4401,5.2755,5.096,5.0032,0.0,0.0,0.0,5.2217,5.4012,5.5209,5.6166,5.6974,5.7872,5.7812,5.6915,5.5628,5.464,5.3952,5.1588,4.9224,4.6817,0.0,0.0,4.6322,4.8386,5.0421,5.2426,5.5119,5.6226,5.5598,5.5837,5.5059,5.3264,5.2157,5.099,4.9703,4.8626,4.7279,4.5574,4.3988,4.2201,0.0,0.0,0.0,0.0,0.0,0.0,0.0,0.0,0.0,0.0,0.0,3.1689,3.2587,0.0,0.0,0.0,3.5785,3.6641,3.7606,3.7379,0.0,0.0,0.0,0.0,0.0,0.0,0.0,3.6079,3.7071,3.8009,3.8916,3.9222,3.9371,3.9496,3.9998,4.035,4.035,0.0,4.045,4.0724,4.0933,4.114,4.1493,4.1544,4.1594,4.1875,4.1764,4.1756,4.1957,4.1982,4.1982,4.1982,4.1982,4.1982,4.1982,4.1153,4.0325,3.9948,3.9848,3.9973,4.03,4.035,4.035,6.7119,6.5054,6.0599,5.9069,5.9428,5.9458,6.0505,6.2061,6.0894,6.0296,5.9997,5.7633,5.6137,5.5359,5.4072,0.0,5.2725,5.3952,5.491,5.5658,5.7453,5.8321,5.8411,5.9548,5.9458,5.8261,5.6944,5.5987,5.5269,5.3384,5.2396,5.2276,4.9344,4.8446,4.9629,5.081,5.2426,5.4341,5.6226,5.6885,5.6308,5.485,5.3832,5.3204,5.2456,5.1468,5.0255,4.9553,4.864,4.7339,4.5484,4.3868,4.247,0.0,0.0,0.0,0.0,0.0,0.0,0.0,0.0,0.0,0.0,0.0,0.0,0.0,0.0,0.0,3.8826,0.0,3.9624,3.8859,0.0,0.0,0.0,3.7028,3.6438,3.7122,3.7689,3.7598,0.0,0.0,4.0133,4.091,4.1204,4.0701,4.1053,4.1275,4.1275,4.125,4.13,4.1326,4.1351,4.143,4.1555,4.1555,4.1706,4.2187,4.2288,4.2439,4.2811,4.2911,4.2961,4.2911,4.2961,4.2961,4.2961,4.2836,4.266,4.1605,4.1401,4.1401,4.1426,4.1426,4.1401,6.9662,6.8585,6.5981,6.3827,6.2181,6.263,6.2839,6.2839,6.3019,6.2241,6.0835,6.0236,5.9009,5.7393,5.6555,5.6376,5.6735,5.6982,5.7812,5.8919,5.9398,5.9907,6.0386,6.0176,5.9907,5.9548,5.8291,5.7304,5.6585,5.5179,5.4221,5.3713,5.2935,5.2456,5.2276,5.3084,5.4221,5.5688,5.7124,5.7543,5.6825,5.461,5.3354,5.3174,5.1558,5.0524,5.0196,4.9134,4.8147,4.7339,4.6381,4.5035,4.324,4.1444,0.0,0.0,0.0,0.0,0.0,0.0,0.0,0.0,0.0,3.5549,3.7349,0.0,3.8242,0.0,4.0389,4.0792,4.0673,4.0055,0.0,0.0,3.9078,3.8884,3.9218,3.9298,3.953,3.9982,4.0363,4.0664,4.0983,4.1584,4.1961,4.1781,4.1505,4.1275,4.1275,4.1275,4.1426,4.1856,4.1957,4.2108,4.2484,4.2585,4.2585,4.2816,4.2841,4.2836,4.2961,4.2986,4.2986,4.2986,4.2986,4.2986,4.2986,4.2986,4.2911,4.2635,4.2585,4.2585,4.2585,4.2585,4.2585,7.1517,7.029,6.9183,6.7388,6.5263,6.4994,6.4874,6.4844,6.4874,6.4126,6.281,6.1942,6.0775,5.9458,5.9039,5.9099,5.9428,5.9458,5.9847,6.0535,6.0864,6.0864,6.0655,6.0565,6.0206,5.9608,5.862,5.7932,5.7483,5.6256,5.5448,5.5089,5.5089,5.5029,5.497,5.5628,5.6316,5.7034,5.7453,5.7334,5.6645,5.4401,5.2905,5.2306,5.096,5.0046,4.9823,4.8835,4.8117,4.7728,4.683,4.5693,4.4317,4.2701,4.1063,0.0,0.0,0.0,0.0,0.0,0.0,0.0,0.0,0.0,0.0,0.0,4.0771,4.2158,4.2661,4.2795,4.2556,4.1959,4.1388,4.0999,4.0723,4.0612,4.0715,4.0721,4.0823,4.1092,4.1317,4.1541,4.1681,4.2238,4.2564,4.259,4.2258,4.2057,4.2082,4.2057,4.2183,4.2514,4.2564,4.2665,4.2936,4.2986,4.2986,4.2986,4.2986,4.2986,4.2986,4.2986,4.2986,4.2986,4.2986,4.2986,4.2986,4.2986,4.2986,4.2986,4.2986,4.2986,4.2986,4.2986,4.2986,7.2834,7.1158,7.0979,6.9812,6.8016,6.6789,6.652,6.6939,6.64,6.5712,6.4934,6.3139,6.1972,6.1373,6.1373,6.1373,6.1373,6.1373,6.1373,6.1403,6.1972,6.1553,6.0386,6.0864,6.0446,5.9219,5.856,5.8201,5.8028,5.6974,5.6376,5.6368,5.6376,5.6705,5.7244,5.7992,5.8321,5.8231,5.7483,5.6795,5.6166,5.4221,5.2546,5.1289,5.0481,4.9823,4.9209,4.8506,4.8177,4.8117,4.707,4.6142,4.5424,4.3718,4.244,0.0,3.9918,0.0,0.0,0.0,0.0,0.0,0.0,0.0,0.0,4.262,4.3588,4.484,4.504,4.4936,4.4612,4.3787,4.309,4.2461,4.2285,4.2061,4.167,4.1788,4.1799,4.153,4.1957,4.2313,4.2338,4.274,4.2986,4.3062,4.3062,4.3087,4.3162,4.3037,4.2911,4.2986,4.2986,4.2936,4.2961,4.2986,4.2986,4.2986,4.2986,4.2986,4.2986,4.2986,4.2986,4.2986,4.2986,4.2986,4.2986,4.2986,4.2986,4.2986,4.2986,4.2986,4.2986,4.2986,4.2986,7.3373,7.2445,7.1368,7.0111,6.8734,6.7956,6.7358,6.6969,6.6849,6.6131,6.4994,6.4066,6.3288,6.272,6.272,6.272,6.272,6.272,6.272,6.269,6.2839,6.248,6.1702,6.1313,6.0685,5.9907,5.9219,5.865,5.8112,5.7872,5.7483,5.6944,5.7483,5.7812,5.7992,0.0,0.0,0.0,5.7723,5.6795,5.6137,5.4221,5.2546,5.1259,5.0062,0.0,4.8476,4.7848,4.7489,4.7489,4.7249,0.0,0.0,0.0,0.0,0.0,0.0,0.0,0.0,0.0,0.0,0.0,4.4501,4.453,4.4616,4.5663,4.6526,4.6904,4.6434,4.5967,4.5532,4.4633,4.3969,4.3859,4.3282,4.2982,4.3336,4.2996,4.2715,4.266,4.276,4.2836,4.2861,4.2911,4.3162,4.3564,4.3639,4.384,4.4217,4.3539,4.3011,4.2986,4.2986,4.2986,4.2986,4.2986,4.2986,4.2986,4.2986,4.2986,4.3011,4.2986,4.2986,4.2986,4.2986,4.2986,4.2986,4.2986,4.2986,4.2986,4.2986,4.2986,4.2986,4.2986,4.2986,7.2803,7.1852,7.1169,6.9951,0.0,6.808,6.7522,6.6753,6.6937,6.643,6.5443,6.4455,6.3827,6.3528,6.3199,6.3137,6.3137,6.3137,6.3137,6.3079,6.2905,6.2311,6.1357,6.0859,6.0231,5.9389,5.9061,5.8841,5.862,5.8238,5.7932,5.7603,5.7932,5.8141,5.8141,5.88,5.9099,5.9099,5.7483,5.6166,5.5179,5.3563,5.2067,5.0734,4.9793,0.0,0.0,0.0,0.0,0.0,0.0,0.0,0.0,4.6292,0.0,4.4844,4.4796,4.4755,4.4631,4.5257,4.5786,4.615,4.7123,4.7344,4.6472,4.7347,4.8072,4.846,4.7932,4.7531,4.735,4.6374,4.5608,4.5332,4.4535,4.4163,4.4387,4.4074,4.379,4.379,4.379,4.379,4.379,4.379,4.389,4.4166,4.4217,4.4292,4.4493,4.3915,4.3313,4.3037,4.2986,4.2986,4.2986,4.2986,4.2986,4.2986,4.2986,4.3087,4.3338,4.3162,4.3062,4.3288,4.3162,4.2986,4.2986,4.2986,4.2986,4.2986,4.2986,4.2986,4.2986,4.2986,4.2986,7.1777,7.0602,7.0573,6.9457,6.7601,6.7601,6.7059,6.6257,6.6661,0.0,0.0,6.4547,6.395,6.3801,6.3174,6.2933,6.2963,6.2963,6.3021,6.3021,6.2731,6.1903,6.0689,6.0286,5.9608,5.8707,5.8614,5.8719,5.9045,5.8507,5.8291,5.8238,5.8291,5.8231,5.8141,5.8141,5.8261,5.8501,5.6885,5.5418,5.4221,5.2905,5.1588,5.0226,4.9733,4.9134,4.852,4.7938,4.7638,4.7668,4.7668,4.7355,4.6834,4.7282,4.7268,4.6705,4.7241,4.748,4.7244,4.7879,4.8077,4.7608,4.8846,4.9194,4.8072,4.8635,4.9267,4.9783,4.9273,4.886,4.8784,4.7809,4.6895,4.6308,4.554,4.5081,4.5081,4.4792,4.4568,4.4618,4.4568,4.4618,4.4568,4.4568,4.4669,4.4744,4.4769,4.4794,4.4719,4.4317,4.3815,4.3463,4.3413,4.3338,4.3288,4.3338,4.3288,4.3363,4.3338,4.3438,4.374,4.3564,4.3489,4.3865,4.3564,4.3363,4.3288,4.3237,4.3137,4.3137,4.3037,4.2986,4.2986,4.2986,4.2986,7.061,6.9424,6.9424,6.8325,6.6533,6.6525,6.5998,6.5343,6.6195,6.6058,6.5069,6.436,6.374,6.3179,6.2529,6.2234,6.2234,6.2556,6.2673,6.2673,6.2615,6.2025,6.0995,6.0176,5.9359,5.8713,5.8434,5.8445,5.8719,5.8901,5.8979,5.8949,5.8979,5.868,5.8171,5.8141,5.7603,5.6585,5.5748,5.497,5.4192,5.2875,5.1588,5.0285,5.0106,4.9793,4.9209,4.909,4.903,4.903,4.903,4.8865,4.8551,4.864,4.8413,4.7959,4.8424,4.8635,4.8381,4.9262,4.971,4.946,4.9667,4.9882,5.0092,5.0705,5.0919,5.0583,4.9728,4.8888,4.7974,4.7089,4.633,4.5737,4.5336,4.5106,4.5157,4.4868,4.4694,4.4694,4.4618,4.4669,4.4719,4.4694,4.4895,4.5246,4.5372,4.5372,4.5271,4.4869,4.4518,4.4418,4.4392,4.4392,4.4267,4.4367,4.4292,4.4392,4.4317,4.4317,4.4468,4.4367,4.4342,4.4468,4.4367,4.4317,4.4317,4.3991,4.374,4.3639,4.3313,4.3037,4.3011,4.2986,4.2986,6.8299,6.72,6.7143,6.627,6.4832,6.4519,6.3961,6.3319,6.4138,6.4573,6.4571,6.3835,6.3134,6.2435,6.1797,6.1454,6.1315,6.1434,6.1613,6.1791,6.1642,6.1054,6.0118,5.9445,5.8693,5.7946,5.78,5.7821,5.7977,5.8029,5.8085,5.814,5.8335,5.8406,5.8381,5.7696,5.7146,5.6675,5.5329,5.4341,5.3653,5.2366,5.1379,5.078,5.0405,5.0046,4.9793,4.9464,4.9209,4.9073,4.9073,4.907,4.898,4.9287,4.9403,4.9243,4.9803,4.9853,4.9301,4.9094,4.9241,4.9721,4.9529,4.972,5.0547,5.0306,5.0069,5.0009,4.939,4.8761,4.8246,4.7362,4.6669,4.6254,4.5961,4.5784,4.5725,4.5607,4.5547,4.5547,4.5547,4.5522,4.5547,4.5547,4.5623,4.5899,4.5924,4.5924,4.5924,4.5698,4.5296,4.4769,4.4618,4.4618,4.4585,4.4618,4.4618,4.4618,4.4618,4.4769,4.497,4.4895,4.4794,4.4995,4.4869,4.4644,4.4644,4.4418,4.4166,4.3815,4.3639,4.3363,4.3112,4.2986,4.2785,6.5829,6.4762,6.4735,6.4051,6.2917,6.2258,6.1694,6.1383,6.1734,6.2403,6.3047,6.2584,6.2203,6.1692,6.092,6.0421,6.0242,6.0255,6.0381,6.0595,6.0531,5.994,5.9058,5.864,5.7926,5.7203,5.7151,5.7136,5.711,5.7223,5.7193,5.7163,5.7416,5.7749,5.8044,5.7124,5.6581,5.6377,5.4832,5.3824,5.3414,5.2127,5.1498,5.1618,5.0926,5.0611,5.07,5.0236,4.9753,4.9597,4.9503,4.9475,4.9417,4.9814,4.996,4.9842,5.0285,5.0347,4.9744,4.9035,4.8881,4.9595,4.9356,4.9461,5.0062,4.9438,4.9087,4.9301,4.8881,4.8452,4.8163,4.7593,4.6993,4.6721,4.6481,4.625,4.6301,4.6326,4.6326,4.6326,4.6326,4.6276,4.6326,4.6326,4.6276,4.6276,4.6326,4.6326,4.6326,4.6376,4.6075,4.5497,4.5196,4.5271,4.5137,4.5397,4.5397,4.5246,4.5246,4.5422,4.5598,4.5296,4.5196,4.5547,4.5347,4.5146,4.4987,4.4895,4.4694,4.4342,4.4016,4.3589,4.3087,4.2986,4.2685,6.3823,6.2868,6.2789,6.21,6.0933,5.9837,5.9568,5.9734,5.9498,5.9402,5.9697,6.0563,6.0955,6.0733,5.9709,5.9155,5.9145,5.9186,5.9245,5.9307,5.9555,5.9341,5.8578,5.7758,5.7141,5.6796,5.6731,5.6572,5.637,5.6902,5.7023,5.6566,5.6737,5.6619,5.6156,5.6261,5.5761,5.4682,5.3867,5.3635,5.4022,5.2815,5.2396,5.2995,5.2126,5.1921,5.2318,5.1984,5.1628,5.1608,5.13,5.1006,5.0554,5.0303,4.9707,4.8812,4.9064,4.9216,4.9435,4.9837,4.9831,4.9473,4.9352,4.9308,4.9132,4.8961,4.9023,4.9199,4.8647,4.7997,4.7383,4.713,4.6822,4.6496,4.6376,4.6326,4.6326,4.6326,4.6326,4.6326,4.6326,4.6326,4.6351,4.6426,4.6401,4.6476,4.6502,4.6502,4.6527,4.6803,4.7029,4.6817,4.6817,4.6853,4.6853,4.7305,4.7104,4.6817,4.6792,4.6677,4.6401,4.6225,4.62,4.615,4.6125,4.5999,4.5924,4.5773,4.5397,4.502,4.4443,4.3639,4.3137,4.2986,4.271,6.2196,6.1469,6.1469,6.082,5.9653,5.8752,5.8329,5.8284,5.8329,5.8258,5.8115,5.8561,5.8828,5.8868,5.8387,5.796,5.7488,5.7455,5.7418,5.735,5.7642,5.7606,5.7157,5.6966,5.6476,5.5831,5.579,5.5545,5.5162,5.4998,5.5062,5.5086,5.4932,5.5096,5.548,5.5311,5.511,5.4929,5.4007,5.3588,5.3605,5.2477,5.1894,5.21,5.1824,5.1645,5.1758,5.1505,5.12,5.0709,5.0582,5.0336,5.0011,4.9878,4.9639,4.9346,4.9244,4.9272,4.9385,4.9256,4.9235,4.926,4.9124,4.9126,4.9305,4.9014,4.8935,4.8989,4.8599,4.8144,4.7902,4.7597,4.7252,4.6878,4.6803,4.6677,4.6351,4.6326,4.6326,4.6326,4.6326,4.6451,4.6753,4.7079,4.723,4.7255,4.723,4.7205,4.7255,4.7456,4.7556,4.7631,4.7857,4.7908,4.7707,4.7732,4.7782,4.7682,4.7606,4.7456,4.728,4.6928,4.6803,4.6717,4.6552,4.6376,4.625,4.615,4.5899,4.5472,4.4618,4.3639,4.3087,4.2986,4.2861,6.0941,6.038,6.0202,5.9666,5.8697,5.7922,5.7435,5.7091,5.7354,5.7282,5.7091,5.7091,5.7149,5.7235,5.7266,5.6999,5.6474,5.6332,5.6142,5.5948,5.6225,5.6172,5.5736,5.5908,5.563,5.5024,5.4971,5.4693,5.4149,5.3657,5.3618,5.3887,5.3562,5.3815,5.4575,5.4169,5.4074,5.4228,5.3387,5.2911,5.2631,5.1638,5.129,5.1667,5.1443,5.1259,5.128,5.0938,5.0516,4.993,4.9687,4.9474,4.9249,4.9326,4.9438,4.9436,4.9308,4.924,4.924,4.8935,4.8926,4.9431,4.9341,4.9464,4.9841,4.969,4.9464,4.9504,4.9128,4.8888,4.8244,4.8032,4.7732,4.7405,4.7355,4.7154,4.6828,4.6753,4.6778,4.6753,4.6853,4.6878,4.728,4.7631,4.7832,4.7832,4.7857,4.7908,4.7958,4.8008,4.8159,4.8159,4.8611,4.8711,4.8284,4.836,4.8309,4.8159,4.8159,4.8083,4.7983,4.7531,4.7179,4.7029,4.6728,4.6476,4.6351,4.625,4.6125,4.5497,4.4719,4.389,4.3388,4.3162,4.3011,6.0088,5.9535,5.8956,5.8504,5.7901,5.7272,5.6744,5.6365,5.634,5.6292,5.6365,5.6292,5.6267,5.6337,5.655,5.6553,5.647,5.6287,5.5883,5.5407,5.5721,5.5434,5.4578,5.4552,5.4443,5.4216,5.4485,5.4374,5.404,5.3518,5.3295,5.3333,5.3076,5.2949,5.3094,5.2863,5.2391,5.2064,5.185,5.1489,5.0928,5.0345,5.0843,5.2054,5.1324,5.0946,5.1343,5.0574,5.0016,4.9987,4.9395,4.8992,4.8726,4.8878,4.8919,4.86,4.8724,4.8863,4.8938,4.9277,4.978,5.0218,5.0268,5.0544,5.0971,5.0971,5.0921,5.1096,5.0534,4.968,4.8473,4.8184,4.8033,4.7908,4.7883,4.7832,4.7807,4.7682,4.7832,4.7782,4.7732,4.7782,4.7857,4.7883,4.8033,4.8033,4.7983,4.8008,4.8134,4.846,4.8686,4.8837,4.9113,4.9364,4.8912,4.8962,4.9063,4.8912,4.8686,4.8611,4.8184,4.7832,4.7581,4.7305,4.7079,4.6803,4.6476,4.62,4.6024,4.5598,4.5095,4.4418,4.3689,4.3288,4.3087,5.9684,5.9408,5.8554,5.8077,5.7801,5.6897,5.6394,5.6219,5.6219,5.6219,5.6219,5.6219,5.6219,5.6219,5.6283,5.615,5.5796,5.5736,5.5426,5.4918,5.5241,5.5183,5.496,5.5073,5.4868,5.4312,5.4329,5.4023,5.3326,5.2791,5.2644,5.2741,5.2385,5.2182,5.223,5.2186,5.192,5.1619,5.125,5.0935,5.0664,5.0112,5.0168,5.0721,5.0089,4.9655,4.9702,4.9331,4.909,4.9021,4.8813,4.8759,4.8765,4.9003,4.9044,4.8962,4.9178,4.9439,4.9791,4.9992,5.0368,5.0896,5.0971,5.1046,5.1222,5.1272,5.1272,5.1247,5.1122,5.0594,5.0142,4.9439,4.8837,4.8535,4.846,4.8335,4.8008,4.7908,4.7908,4.7958,4.8209,4.846,4.851,4.8761,4.8987,4.8987,4.8987,4.8962,4.8987,4.9188,4.9264,4.9314,4.9439,4.954,4.9364,4.9414,4.949,4.9389,4.9264,4.9238,4.8962,4.856,4.8309,4.7782,4.7506,4.7079,4.6677,4.6326,4.61,4.5698,4.5221,4.4719,4.3966,4.3589,4.3313,5.9408,5.9156,5.8453,5.7926,5.7549,5.6796,5.6369,5.6219,5.6219,5.6219,5.6219,5.6219,5.6219,5.6219,5.6219,5.6018,5.5666,5.5641,5.5365,5.4934,5.5122,5.5118,5.5011,5.5197,5.4994,5.448,5.4359,5.3942,5.3206,5.2804,5.2664,5.2666,5.2202,5.1946,5.1893,5.1574,5.1357,5.1137,5.0621,5.0338,5.0286,4.9796,4.9512,4.9419,4.8953,4.8813,4.8813,4.8636,4.8496,4.8438,4.8394,4.8467,4.8844,4.8976,4.9153,4.9381,4.9668,5.0017,5.0368,5.0569,5.0946,5.1498,5.1548,5.1599,5.1749,5.18,5.18,5.18,5.1599,5.1548,5.1373,5.0695,4.9916,4.9414,4.9289,4.9063,4.8535,4.8485,4.8485,4.856,4.8812,4.9012,4.9088,4.9364,4.9515,4.959,4.959,4.959,4.959,4.959,4.959,4.959,4.9565,4.9715,4.9766,4.9916,4.9741,4.9615,4.9766,4.9791,4.954,4.9188,4.8812,4.8284,4.7807,4.7305,4.6878,4.6502,4.615,4.5799,4.5472,4.5045,4.4443,4.3915,4.3539,5.9207,5.878,5.8654,5.8001,5.7148,5.6947,5.6671,5.6244,5.6219,5.6219,5.6219,5.6219,5.6219,5.6219,5.6219,5.6194,5.6143,5.6118,5.5867,5.5415,5.5462,5.5211,5.4808,5.4905,5.4829,5.4632,5.4607,5.4306,5.3733,5.3658,5.3406,5.2904,5.2495,5.2169,5.2118,5.1204,5.0559,5.0373,5.001,4.9719,4.9515,4.9229,4.8976,4.8838,4.8397,4.8553,4.929,4.8723,4.8364,4.8404,4.8156,4.8184,4.8812,4.895,4.9152,4.9654,5.0117,5.0419,5.0544,5.1021,5.1523,5.2,5.2126,5.2277,5.2628,5.2754,5.2754,5.2678,5.2377,5.2101,5.2026,5.1624,5.1021,5.0519,5.0293,4.9992,4.9665,4.9565,4.9565,4.949,4.949,4.9565,4.959,4.9565,4.959,4.959,4.959,4.959,4.959,4.959,4.959,4.959,4.9615,4.9715,5.0067,5.0368,5.0067,4.9841,5.0092,5.0193,4.9741,4.9364,4.9113,4.8636,4.8234,4.7732,4.7079,4.6702,4.6451,4.6125,4.5773,4.5347,4.4719,4.4116,4.3639,5.9182,5.8679,5.8303,5.7725,5.7022,5.6646,5.6344,5.6219,5.6219,5.6219,5.6219,5.6219,5.6219,5.6219,5.6219,5.6219,5.6219,5.6219,5.6118,5.5968,5.5942,5.5842,5.5717,5.5691,5.5491,5.5114,5.4737,5.4557,5.4336,5.4285,5.4009,5.3532,5.3281,5.2804,5.2176,5.1724,5.1247,5.0469,5.0243,4.9992,4.964,4.9439,4.9339,4.9314,4.9163,4.9254,4.9419,4.8585,4.8259,4.8674,4.8573,4.8761,4.9264,4.969,4.9967,5.0193,5.0695,5.1222,5.1548,5.1749,5.2101,5.2528,5.2678,5.2729,5.2904,5.2955,5.298,5.2955,5.2754,5.2678,5.2628,5.2528,5.2,5.1122,5.067,5.0393,5.0142,4.9841,4.9615,4.959,4.959,4.959,4.959,4.959,4.959,4.959,4.959,4.959,4.959,4.959,4.959,4.959,4.964,4.9741,5.0167,5.0569,5.0645,5.0419,5.0519,5.0393,4.9967,4.9565,4.9289,4.9012,4.8586,4.8109,4.7456,4.6968,4.6803,4.6476,4.6175,4.5573,4.4844,4.4317,4.389,5.9182,5.8679,5.8127,5.7575,5.6923,5.6445,5.6219,5.6219,5.6219,5.6219,5.6219,5.6219,5.6219,5.6219,5.6219,5.6219,5.6219,5.6219,5.6319,5.6445,5.6269,5.6219,5.6219,5.6219,5.6068,5.5717,5.534,5.5064,5.4888,5.4863,5.4587,5.411,5.4009,5.3607,5.2754,5.2477,5.1925,5.1147,5.0845,5.0569,5.0293,5.0218,5.0218,5.0218,5.0218,5.0218,5.0167,4.9515,4.9138,4.9138,4.9264,4.9565,4.9916,5.0393,5.072,5.0845,5.1247,5.1749,5.2101,5.2452,5.2829,5.3155,5.3406,5.3532,5.3532,5.3532,5.3532,5.3532,5.3331,5.3206,5.3206,5.3005,5.2603,5.2,5.1423,5.087,5.0519,5.0117,4.9816,4.969,4.959,4.959,4.959,4.959,4.959,4.959,4.959,4.959,4.959,4.959,4.9615,4.9615,4.9615,4.9866,5.0268,5.0695,5.1147,5.1071,5.0971,5.0619,5.0193,4.9766,4.9439,4.9213,4.8862,4.8586,4.7983,4.7631,4.733,4.6954,4.6577,4.6024,4.5422,4.4769,4.4267,5.9182,5.8679,5.8177,5.76,5.7022,5.652,5.6269,5.6219,5.6219,5.6219,5.6219,5.6219,5.6219,5.6219,5.6219,5.6219,5.6219,5.6219,5.6495,5.6721,5.657,5.6369,5.6495,5.652,5.647,5.6394,5.6344,5.6018,5.5591,5.5566,5.5164,5.4662,5.4587,5.431,5.3708,5.3231,5.2678,5.2101,5.1599,5.1297,5.1197,5.1197,5.1197,5.1172,5.1147,5.1147,5.1071,5.0971,5.0594,4.9916,5.0167,5.0419,5.0569,5.1021,5.1322,5.1348,5.1875,5.2201,5.2452,5.3155,5.3683,5.3758,5.4135,5.4561,5.4411,5.4336,5.4361,5.4336,5.4009,5.3758,5.3658,5.3432,5.3105,5.2904,5.2277,5.1548,5.0645,5.0469,5.0268,4.9841,4.9665,4.9615,4.964,4.959,4.959,4.959,4.959,4.959,4.964,4.9665,4.9665,4.9741,4.9866,5.0243,5.0745,5.1147,5.1548,5.1548,5.1373,5.0971,5.0393,4.9916,4.959,4.9364,4.9188,4.8912,4.8586,4.8184,4.7757,4.7355,4.6954,4.6552,4.5974,4.5296,4.4694,5.9182,5.873,5.8579,5.7951,5.7097,5.6872,5.657,5.6244,5.6219,5.6244,5.6219,5.6219,5.6219,5.6219,5.6219,5.6219,5.6244,5.6244,5.652,5.6947,5.6922,5.7072,5.7374,5.7449,5.7424,5.7399,5.7323,5.7148,5.6646,5.6545,5.6093,5.5214,5.5214,5.4913,5.4336,5.3808,5.3256,5.2729,5.2176,5.1699,5.1373,5.1348,5.1272,5.1272,5.1322,5.1322,5.1297,5.1272,5.1197,5.0896,5.0946,5.1046,5.1096,5.1574,5.19,5.2051,5.2729,5.3256,5.3406,5.3934,5.431,5.4336,5.4536,5.4561,5.4561,5.4587,5.4561,5.4536,5.4386,5.4336,5.431,5.4185,5.3934,5.3457,5.2729,5.19,5.1247,5.1046,5.082,5.0318,5.0218,5.0042,4.9766,4.964,4.964,4.9615,4.959,4.959,4.964,4.9941,5.0067,5.0318,5.0544,5.087,5.1247,5.1624,5.19,5.1975,5.1749,5.1373,5.0695,4.9992,4.9741,4.9515,4.9439,4.9213,4.8937,4.8586,4.8159,4.7832,4.7431,4.7054,4.6376,4.5698,4.5146,5.9332,5.9031,5.8805,5.8353,5.7725,5.7499,5.7072,5.662,5.6545,5.642,5.6244,5.6219,5.6219,5.6219,5.6219,5.6369,5.652,5.6545,5.7022,5.7725,5.8001,5.8027,5.7951,5.7901,5.7901,5.7901,5.7901,5.77,5.7449,5.7399,5.6897,5.6269,5.6093,5.5691,5.4913,5.4612,5.4009,5.3356,5.2904,5.2503,5.2026,5.1975,5.1975,5.1975,5.1975,5.1975,5.1975,5.1975,5.18,5.1473,5.1473,5.1624,5.1674,5.2151,5.2528,5.2754,5.3381,5.3783,5.4135,5.4587,5.4888,5.4963,5.5089,5.5239,5.529,5.5265,5.5265,5.529,5.5064,5.4938,5.4863,5.4712,5.431,5.3733,5.313,5.2452,5.1724,5.1624,5.1373,5.0971,5.0745,5.0569,5.0017,4.9941,4.9816,4.9665,4.959,4.959,4.964,5.0117,5.0494,5.072,5.0996,5.1272,5.1599,5.195,5.2251,5.2327,5.2151,5.1774,5.0996,5.0193,4.9866,4.9715,4.964,4.9515,4.9238,4.8987,4.8812,4.8435,4.8008,4.7506,4.6853,4.6225,4.5673,5.9533,5.9458,5.8981,5.878,5.8604,5.8177,5.765,5.7198,5.7123,5.6897,5.657,5.642,5.6545,5.6394,5.6595,5.6696,5.7123,5.7123,5.7725,5.8428,5.893,5.893,5.8303,5.8278,5.8252,5.8227,5.8077,5.8052,5.8001,5.7976,5.7675,5.7173,5.7072,5.6545,5.5792,5.5491,5.4888,5.411,5.3783,5.3532,5.3181,5.308,5.3105,5.308,5.308,5.3105,5.3105,5.3055,5.2703,5.1699,5.2,5.2151,5.2251,5.2703,5.3155,5.3582,5.3858,5.4235,5.4637,5.5139,5.5465,5.5541,5.5892,5.6194,5.6068,5.6018,5.6018,5.5993,5.5742,5.5516,5.539,5.5013,5.4486,5.3984,5.3733,5.3181,5.2503,5.2201,5.1975,5.1448,5.1373,5.1096,5.072,5.0469,5.0368,5.0268,5.0142,5.0167,5.0218,5.0494,5.077,5.0946,5.1272,5.1599,5.1925,5.2251,5.2503,5.2678,5.2452,5.2076,5.1297,5.0594,5.0142,4.9866,4.969,4.959,4.954,4.9364,4.9238,4.9012,4.856,4.8033,4.7456,4.6828,4.6225,5.9885,5.9483,5.9382,5.9106,5.873,5.8579,5.8227,5.7725,5.77,5.7625,5.7524,5.7499,5.7499,5.7499,5.7424,5.7625,5.77,5.7775,5.8102,5.8679,5.9257,5.9382,5.9131,5.9081,5.9106,5.9081,5.9131,5.893,5.8654,5.8504,5.8252,5.7775,5.7675,5.7374,5.6721,5.6194,5.5742,5.5064,5.4612,5.431,5.416,5.411,5.411,5.411,5.4135,5.4185,5.421,5.421,5.4084,5.3758,5.3181,5.2829,5.2904,5.3256,5.3607,5.3934,5.4587,5.5039,5.5265,5.5666,5.6018,5.5993,5.6093,5.6219,5.6219,5.6219,5.6219,5.6194,5.6093,5.5968,5.5917,5.5516,5.4988,5.4486,5.4009,5.3507,5.2904,5.2729,5.2452,5.2101,5.1925,5.1724,5.1197,5.1096,5.0996,5.0921,5.087,5.0896,5.0921,5.0946,5.1172,5.1348,5.1724,5.2076,5.2302,5.2553,5.2678,5.2785,5.2678,5.2377,5.1599,5.1021,5.0569,5.0092,4.964,4.959,4.959,4.959,4.9439,4.9264,4.9038,4.8435,4.7857,4.728,4.6677,5.9985,5.9508,5.9508,5.9332,5.9106,5.9081,5.878,5.8353,5.8278,5.8127,5.7926,5.7901,5.7901,5.7901,5.7901,5.8001,5.8303,5.8554,5.8805,5.9131,5.9408,5.9483,5.9508,5.9508,5.9508,5.9508,5.9483,5.9307,5.9131,5.9031,5.8805,5.8328,5.8278,5.7976,5.7424,5.6897,5.6344,5.5767,5.5239,5.4863,5.4612,5.4561,5.4561,5.4561,5.4561,5.4561,5.4536,5.4536,5.4561,5.4411,5.4034,5.3683,5.3708,5.3959,5.421,5.4587,5.4963,5.5541,5.5767,5.6018,5.6194,5.6219,5.6219,5.6219,5.6219,5.6219,5.6219,5.6219,5.6194,5.6194,5.6194,5.6018,5.5516,5.5013,5.4436,5.3884,5.3406,5.308,5.2854,5.2553,5.2477,5.2201,5.19,5.1699,5.1448,5.1272,5.1172,5.1172,5.1272,5.1348,5.1649,5.1925,5.2277,5.2553,5.2754,5.2785,5.276,5.2836,5.2785,5.2528,5.1975,5.1473,5.1021,5.0444,4.9841,4.9615,4.959,4.959,4.959,4.9464,4.9188,4.8686,4.8209,4.7657,4.7004,6.0085,5.9508,5.9508,5.9508,5.9508,5.9483,5.9232,5.888,5.8855,5.8629,5.8227,5.8127,5.8303,5.8177,5.8227,5.8453,5.883,5.9182,5.9382,5.9433,5.9458,5.9508,5.9508,5.9508,5.9508,5.9508,5.9508,5.9458,5.9458,5.9458,5.9207,5.888,5.883,5.8529,5.8001,5.7575,5.7097,5.657,5.6018,5.5566,5.5164,5.5039,5.4938,5.4963,5.4963,5.4988,5.4988,5.4963,5.4888,5.4884,5.4813,5.4813,5.4787,5.4737,5.4863,5.534,5.5465,5.5742,5.6018,5.6194,5.6219,5.6219,5.6344,5.6269,5.6244,5.6319,5.6344,5.6244,5.6219,5.6219,5.6194,5.6143,5.5892,5.544,5.4938,5.4461,5.3909,5.3381,5.308,5.281,5.2779,5.2528,5.2377,5.2201,5.1925,5.1674,5.1574,5.1523,5.1649,5.1724,5.2,5.2151,5.2402,5.2628,5.2829,5.2861,5.2861,5.2861,5.2861,5.2703,5.2327,5.1925,5.1398,5.0619,5.0092,4.9866,4.964,4.959,4.959,4.959,4.9439,4.9038,4.856,4.8058,4.738,6.0437,5.9508,5.9508,5.9508,5.9508,5.9508,5.9433,5.9382,5.9332,5.9307,5.9207,5.9207,5.9156,5.9156,5.9207,5.9307,5.9332,5.9458,5.9508,5.9508,5.9508,5.9508,5.9508,5.9508,5.9508,5.9508,5.9508,5.9508,5.9508,5.9483,5.9408,5.9357,5.9332,5.9056,5.8704,5.8428,5.8027,5.7499,5.6972,5.6595,5.642,5.6068,5.5792,5.5792,5.5742,5.5767,5.5842,5.5892,5.5942,5.5942,5.5942,5.5917,5.5767,5.5465,5.539,5.5491,5.5792,5.6068,5.6269,5.6269,5.6219,5.6319,5.6646,5.6646,5.6495,5.662,5.6671,5.6394,5.6269,5.6244,5.6219,5.6219,5.5942,5.5541,5.5265,5.4988,5.4461,5.3934,5.3457,5.3231,5.308,5.2879,5.2703,5.2603,5.2452,5.2302,5.2277,5.2277,5.2352,5.2302,5.2277,5.2352,5.2402,5.2628,5.2829,5.2904,5.2861,5.2861,5.2861,5.2861,5.2603,5.2302,5.1749,5.1071,5.0469,5.0067,4.9891,4.9665,4.959,4.959,4.949,4.9389,4.8837,4.8259,4.7807,6.0537,5.9508,5.9508,5.9508,5.9508,5.9508,5.9508,5.9508,5.9508,5.9508,5.9508,5.9508,5.9508,5.9508,5.9508,5.9508,5.9508,5.9508,5.9508,5.9508,5.9508,5.9508,5.9508,5.9508,5.9508,5.9508,5.9508,5.9508,5.9508,5.9508,5.9508,5.9483,5.9508,5.9357,5.9106,5.8805,5.8629,5.8227,5.7801,5.7474,5.7424,5.6922,5.657,5.6294,5.6244,5.6219,5.6219,5.6219,5.6194,5.6194,5.6194,5.6219,5.6219,5.6244,5.6093,5.5942,5.6118,5.6394,5.657,5.6646,5.6771,5.7097,5.7349,5.7349,5.7223,5.7298,5.7198,5.6796,5.662,5.6495,5.6269,5.6244,5.6068,5.5842,5.5591,5.529,5.4963,5.4461,5.4084,5.3683,5.3306,5.308,5.2861,5.2785,5.2836,5.2861,5.2886,5.2861,5.2886,5.2779,5.2578,5.2603,5.2628,5.2703,5.2854,5.2879,5.2861,5.2861,5.2861,5.2861,5.281,5.2578,5.2176,5.1649,5.1071,5.0469,4.9891,4.9615,4.9615,4.959,4.954,4.9389,4.8937,4.8485,4.8058,6.0412,5.9508,5.9508,5.9508,5.9508,5.9508,5.9508,5.9508,5.9508,5.9508,5.9508,5.9508,5.9508,5.9508,5.9508,5.9508,5.9508,5.9508,5.9508,5.9508,5.9508,5.9508,5.9508,5.9508,5.9508,5.9508,5.9709,5.9583,5.9508,5.9508,5.9508,5.9508,5.9508,5.9508,5.9382,5.9106,5.8905,5.8704,5.8353,5.8052,5.7801,5.7449,5.7022,5.662,5.6545,5.662,5.6671,5.6696,5.6696,5.6671,5.6646,5.6595,5.6646,5.6972,5.6972,5.6646,5.657,5.6821,5.7047,5.7223,5.7374,5.7675,5.7951,5.7976,5.7851,5.7725,5.7675,5.7298,5.7198,5.6972,5.657,5.642,5.6319,5.6118,5.5817,5.5541,5.5415,5.5114,5.4787,5.431,5.3683,5.3482,5.3532,5.3482,5.3582,5.3281,5.3281,5.303,5.303,5.2886,5.2804,5.2785,5.2785,5.2785,5.2836,5.2836,5.2861,5.2861,5.2861,5.2861,5.2861,5.2785,5.2427,5.2,5.1574,5.0971,5.0268,4.9665,4.9615,4.959,4.959,4.9464,4.9188,4.8862,4.846,6.006,5.9508,5.9508,5.9508,5.9508,5.9508,5.9508,5.9508,5.9508,5.9508,5.9508,5.9508,5.9508,5.9508,5.9508,5.9508,5.9508,5.9508,5.9508,5.9508,5.9508,5.9508,5.9508,5.9508,5.9508,5.9583,5.996,5.9885,5.9684,5.9583,5.9533,5.9558,5.9533,5.9508,5.9483,5.9357,5.9408,5.9307,5.888,5.8403,5.8001,5.7851,5.7725,5.7625,5.76,5.7549,5.7474,5.7474,5.7524,5.7575,5.7625,5.7675,5.77,5.7725,5.7775,5.7725,5.77,5.7725,5.7775,5.7801,5.7876,5.8152,5.8378,5.8303,5.8227,5.8077,5.8027,5.7851,5.7801,5.7549,5.7097,5.6947,5.6696,5.6445,5.6219,5.6093,5.5968,5.5641,5.534,5.5189,5.4637,5.4486,5.4436,5.4361,5.4235,5.3884,5.3557,5.3356,5.3256,5.3281,5.3281,5.3356,5.3331,5.3331,5.3155,5.313,5.2936,5.2911,5.2886,5.2886,5.2861,5.281,5.2678,5.2251,5.1875,5.1473,5.0845,5.0268,4.9816,4.969,4.9816,4.9741,4.9565,4.9213,4.8837,5.9709,5.9508,5.9508,5.9508,5.9508,5.9508,5.9508,5.9508,5.9508,5.9508,5.9508,5.9508,5.9508,5.9508,5.9508,5.9508,5.9508,5.9508,5.9508,5.9508,5.9508,5.9508,5.9508,5.9508,5.9508,5.9633,5.9985,6.0211,5.9985,5.996,5.996,5.991,5.9659,5.9508,5.9508,5.9508,5.9483,5.9433,5.9232,5.888,5.8504,5.8328,5.8202,5.7951,5.7926,5.7951,5.7951,5.7901,5.7901,5.7901,5.7901,5.7901,5.7976,5.8152,5.8353,5.8378,5.8654,5.8654,5.8428,5.8378,5.8504,5.8755,5.9006,5.9031,5.883,5.8755,5.8604,5.8378,5.8378,5.8102,5.7675,5.7549,5.7198,5.6897,5.6646,5.642,5.6294,5.6093,5.5842,5.5742,5.5641,5.5415,5.5139,5.4863,5.4687,5.4386,5.4185,5.4059,5.4009,5.4059,5.4034,5.3984,5.3934,5.3858,5.3607,5.3457,5.3231,5.3155,5.3005,5.3005,5.2886,5.276,5.2754,5.2578,5.2226,5.18,5.1348,5.0921,5.0494,5.0268,5.0067,4.9967,4.9841,4.9565,4.9238,5.9508,5.9508,5.9508,5.9508,5.9508,5.9508,5.9508,5.9508,5.9508,5.9508,5.9508,5.9508,5.9508,5.9508,5.9508,5.9508,5.9508,5.9508,5.9508,5.9508,5.9508,5.9508,5.9508,5.9508,5.9508,5.9533,6.0311,6.0537,6.0613,6.0638,6.0663,6.0337,5.996,5.9659,5.9533,5.9508,5.9508,5.9483,5.9458,5.9257,5.8981,5.8905,5.8679,5.8453,5.8303,5.8303,5.8278,5.8353,5.8353,5.8378,5.8403,5.8453,5.8504,5.873,5.8905,5.8956,5.9182,5.9207,5.9006,5.8956,5.9131,5.9357,5.9508,5.9408,5.9408,5.9483,5.9382,5.893,5.8905,5.8629,5.8252,5.8102,5.7801,5.7424,5.7072,5.6771,5.6495,5.6344,5.6168,5.6018,5.5968,5.6043,5.5742,5.534,5.5089,5.4863,5.4762,5.4712,5.4662,5.4708,5.4536,5.4411,5.4361,5.426,5.411,5.3858,5.3607,5.3432,5.3306,5.3206,5.3256,5.3181,5.308,5.2854,5.2578,5.2377,5.2076,5.1624,5.1172,5.087,5.0594,5.0318,5.0092,4.9816,4.959,5.9508,5.9508,5.9508,5.9508,5.9508,5.9508,5.9508,5.9508,5.9508,5.9508,5.9508,5.9508,5.9508,5.9508,5.9508,5.9508,5.9508,5.9508,5.9533,5.9533,5.9508,5.9608,5.9684,5.9734,5.9659,5.9834,6.0613,6.109,6.124,6.1592,6.1165,6.0462,6.0362,5.9985,5.9734,5.9709,5.9558,5.9533,5.9508,5.9483,5.9382,5.9357,5.9307,5.9307,5.9332,5.9382,5.9357,5.9257,5.9182,5.9182,5.9156,5.9156,5.9131,5.9232,5.9307,5.9357,5.9382,5.9408,5.9332,5.9307,5.9408,5.9483,5.9508,5.9508,5.9508,5.9508,5.9433,5.9357,5.9307,5.9131,5.883,5.8604,5.8378,5.7976,5.76,5.7323,5.6997,5.6646,5.647,5.6294,5.6344,5.657,5.6495,5.6118,5.5666,5.5415,5.5315,5.529,5.5039,5.4963,5.4838,5.4737,5.4687,5.4637,5.4587,5.4386,5.426,5.4135,5.4009,5.3833,5.3733,5.3632,5.3557,5.3206,5.2955,5.2904,5.2754,5.2176,5.1699,5.1398,5.1122,5.0896,5.0494,5.0117,4.9891,5.9508,5.9508,5.9508,5.9508,5.9508,5.9508,5.9508,5.9508,5.9508,5.9508,5.9508,5.9508,5.9508,5.9508,5.9508,5.9508,5.9508,5.9508,5.9709,5.991,6.001,6.0211,6.0362,6.0462,6.0563,6.0663,6.1291,6.1692,6.1743,6.2195,6.2019,6.1492,6.104,6.0788,6.0512,6.0085,5.9809,5.9533,5.9508,5.9508,5.9508,5.9508,5.9508,5.9508,5.9508,5.9508,5.9483,5.9483,5.9483,5.9508,5.9508,5.9508,5.9508,5.9508,5.9508,5.9508,5.9508,5.9508,5.9508,5.9508,5.9508,5.9508,5.9508,5.9508,5.9508,5.9508,5.9508,5.9483,5.9508,5.9332,5.9282,5.9156,5.8981,5.8529,5.8152,5.7851,5.7549,5.7198,5.7047,5.6947,5.7148,5.7374,5.7198,5.6947,5.6445,5.6018,5.5942,5.5817,5.5541,5.539,5.5315,5.529,5.529,5.5164,5.5114,5.5039,5.4938,5.4813,5.4687,5.4486,5.431,5.4235,5.411,5.3708,5.3331,5.3206,5.298,5.2603,5.2226,5.1925,5.1699,5.1548,5.1046,5.0494,5.0268,5.9508,5.9508,5.9508,5.9508,5.9508,5.9508,5.9508,5.9508,5.9508,5.9508,5.9508,5.9508,5.9508,5.9508,5.9508,5.9659,5.9734,5.9834,6.0136,6.0387,6.0638,6.0839,6.1065,6.114,6.104,6.1316,6.1692,6.1969,6.1969,6.2546,6.2496,6.2169,6.1868,6.1592,6.0989,6.0613,6.0035,5.9633,5.9508,5.9508,5.9508,5.9508,5.9508,5.9508,5.9508,5.9508,5.9508,5.9508,5.9508,5.9508,5.9508,5.9508,5.9508,5.9508,5.9508,5.9508,5.9508,5.9508,5.9508,5.9508,5.9508,5.9508,5.9508,5.9508,5.9508,5.9508,5.9508,5.9508,5.9508,5.9508,5.9508,5.9408,5.9332,5.893,5.8604,5.8328,5.8102,5.7826,5.775,5.7675,5.7801,5.7775,5.7675,5.7399,5.6872,5.6394,5.6118,5.6043,5.5993,5.5892,5.5942,5.5942,5.5968,5.5842,5.5717,5.5591,5.5516,5.5516,5.5365,5.5114,5.4938,5.4863,5.4612,5.416,5.3808,5.3557,5.3256,5.2929,5.2678,5.2427,5.2176,5.19,5.1624,5.1122,5.0845,5.9508,5.9508,5.9508,5.9508,5.9508,5.9508,5.9508,5.9508,5.9508,5.9508,5.9508,5.9508,5.9533,5.9558,5.9633,5.9885,6.0261,6.0337,6.0613,6.104,6.1165,6.1215,6.1316,6.1391,6.1542,6.1391,6.1818,6.2169,6.2094,6.2571,6.2722,6.2747,6.2496,6.2144,6.124,6.0638,6.0085,5.9608,5.9633,5.9583,5.9583,5.9558,5.9508,5.9508,5.9508,5.9508,5.9508,5.9508,5.9508,5.9508,5.9508,5.9508,5.9508,5.9508,5.9508,5.9508,5.9508,5.9508,5.9508,5.9508,5.9508,5.9508,5.9508,5.9508,5.9508,5.9508,5.9508,5.9508,5.9508,5.9508,5.9508,5.9483,5.9433,5.9307,5.9006,5.883,5.8604,5.8504,5.8428,5.8403,5.8152,5.7951,5.7926,5.7775,5.7248,5.6796,5.6369,5.6269,5.642,5.6495,5.662,5.6445,5.6445,5.6219,5.6068,5.6118,5.6093,5.6118,5.5968,5.5641,5.5491,5.5415,5.5064,5.4612,5.4361,5.4135,5.3733,5.3306,5.3155,5.2955,5.2452,5.2151,5.195,5.1724,5.1423,5.9508,5.9508,5.9508,5.9508,5.9508,5.9508,5.9508,5.9508,5.9508,5.9508,5.9508,5.9508,5.9734,5.9935,6.0085,6.0362,6.0814,6.0914,6.119,6.1667,6.1718,6.1994,6.2119,6.2144,6.2195,6.232,6.2521,6.2521,6.2571,6.2772,6.2797,6.2822,6.2772,6.2446,6.1893,6.1441,6.1165,6.0663,6.0311,6.0035,5.9985,5.9734,5.9558,5.9558,5.9533,5.9533,5.9508,5.9508,5.9508,5.9508,5.9508,5.9508,5.9508,5.9508,5.9508,5.9508,5.9508,5.9508,5.9508,5.9508,5.9508,5.9508,5.9508,5.9508,5.9508,5.9508,5.9508,5.9508,5.9508,5.9508,5.9508,5.9508,5.9458,5.9458,5.9307,5.9282,5.9156,5.9131,5.9081,5.9131,5.8981,5.8654,5.8529,5.8428,5.7976,5.77,5.7374,5.7223,5.7298,5.7323,5.7374,5.6972,5.6796,5.6545,5.642,5.6545,5.6445,5.6319,5.6219,5.6043,5.5942,5.5842,5.5616,5.5189,5.4938,5.4712,5.4235,5.3858,5.3758,5.3507,5.308,5.2678,5.2452,5.2226,5.1925,5.9508,5.9508,5.9508,5.9508,5.9508,5.9508,5.9508,5.9508,5.9508,5.9583,5.9759,5.9809,6.0085,6.0487,6.0663,6.0914,6.1441,6.1466,6.1768,6.2245,6.2295,6.2471,6.2672,6.2822,6.2672,6.2822,6.2822,6.2797,6.2772,6.2822,6.2822,6.2822,6.2822,6.2647,6.2295,6.2044,6.1642,6.1115,6.0738,6.0638,6.0537,6.0311,6.0035,5.9885,5.9784,5.9709,5.9558,5.9508,5.9508,5.9508,5.9508,5.9508,5.9508,5.9508,5.9508,5.9508,5.9508,5.9508,5.9508,5.9508,5.9508,5.9508,5.9508,5.9508,5.9508,5.9508,5.9508,5.9508,5.9508,5.9508,5.9508,5.9508,5.9508,5.9508,5.9483,5.9458,5.9458,5.9382,5.9382,5.9458,5.9458,5.9207,5.9056,5.9006,5.878,5.8604,5.8453,5.8278,5.8052,5.8001,5.7926,5.7575,5.7323,5.7173,5.7047,5.7047,5.6872,5.6545,5.6495,5.6495,5.6194,5.6043,5.5892,5.5742,5.539,5.5039,5.4687,5.4411,5.4285,5.411,5.3833,5.3432,5.303,5.2754,5.2477,5.9458,5.9483,5.9483,5.9508,5.9508,5.9508,5.9508,5.9508,5.9533,5.9809,6.0286,6.0286,6.0663,6.1115,6.1215,6.1517,6.1943,6.2019,6.232,6.2621,6.2672,6.2797,6.2797,6.2822,6.2822,6.2822,6.2822,6.2822,6.2822,6.2822,6.2822,6.2822,6.2822,6.2747,6.2571,6.232,6.1918,6.1617,6.1316,6.124,6.114,6.104,6.0688,6.0462,6.0337,6.0085,5.9859,5.9659,5.9583,5.9533,5.9508,5.9508,5.9508,5.9508,5.9508,5.9508,5.9508,5.9508,5.9508,5.9508,5.9508,5.9508,5.9508,5.9508,5.9508,5.9508,5.9508,5.9508,5.9508,5.9508,5.9508,5.9508,5.9508,5.9508,5.9508,5.9483,5.9483,5.9483,5.9483,5.9483,5.9483,5.9382,5.9357,5.9332,5.9207,5.9156,5.8956,5.878,5.8579,5.8378,5.8278,5.8077,5.7901,5.7876,5.7775,5.7549,5.7399,5.7097,5.7047,5.6997,5.6646,5.6369,5.6319,5.6143,5.5742,5.5415,5.5214,5.4988,5.4762,5.4587,5.4461,5.411,5.3658,5.3406,5.3155,5.8956,5.8981,5.9332,5.9508,5.9508,5.9508,5.9508,5.9533,5.9885,6.0211,6.0337,6.0763,6.124,6.1743,6.1768,6.2119,6.2395,6.2596,6.2672,6.2797,6.2822,6.2822,6.2822,6.2822,6.2822,6.2822,6.2822,6.2822,6.2822,6.2822,6.2822,6.2822,6.2822,6.2822,6.2772,6.2672,6.2446,6.222,6.1918,6.1818,6.1667,6.1492,6.119,6.1014,6.0939,6.0613,6.0236,6.0085,5.996,5.9633,5.9558,5.9508,5.9508,5.9508,5.9508,5.9508,5.9508,5.9508,5.9508,5.9508,5.9558,5.9583,5.9558,5.9508,5.9508,5.9508,5.9508,5.9508,5.9508,5.9508,5.9508,5.9508,5.9508,5.9508,5.9508,5.9508,5.9508,5.9508,5.9508,5.9508,5.9508,5.9508,5.9508,5.9483,5.9382,5.9458,5.9408,5.9207,5.9056,5.8855,5.8704,5.8529,5.8453,5.8428,5.8102,5.7876,5.7775,5.7675,5.765,5.7575,5.7349,5.7097,5.6897,5.6595,5.6219,5.6018,5.5892,5.5641,5.534,5.5214,5.5064,5.4687,5.4336,5.4059,5.3783,5.873,5.8805,5.9282,5.9508,5.9508,5.9508,5.9508,5.9608,6.0085,6.0412,6.0713,6.124,6.1793,6.227,6.2345,6.2496,6.2772,6.2772,6.2797,6.2797,6.2822,6.2822,6.2822,6.2822,6.2822,6.2822,6.2822,6.2822,6.2822,6.2822,6.2822,6.2822,6.2822,6.2822,6.2797,6.2797,6.2797,6.2672,6.2521,6.237,6.2169,6.1943,6.1793,6.1542,6.1517,6.119,6.0763,6.0663,6.0437,6.0186,6.0161,6.0161,6.0186,6.0186,6.0186,6.0236,6.0261,6.0286,6.0286,6.0261,6.006,5.9885,5.9809,5.9684,5.9558,5.9508,5.9508,5.9508,5.9508,5.9508,5.9508,5.9508,5.9508,5.9508,5.9508,5.9508,5.9508,5.9508,5.9508,5.9508,5.9508,5.9508,5.9508,5.9508,5.9508,5.9508,5.9508,5.9433,5.9357,5.9282,5.9182,5.9056,5.9006,5.8956,5.8604,5.8353,5.8353,5.8303,5.8227,5.8127,5.7976,5.77,5.7349,5.7047,5.6721,5.6495,5.6244,5.6168,5.5968,5.5792,5.5641,5.544,5.5064,5.4637,5.4361,5.8604,5.8679,5.9257,5.9508,5.9508,5.9508,5.9508,5.9558,6.0085,6.0638,6.1165,6.1793,6.232,6.2647,6.2697,6.2722,6.2822,6.2822,6.2822,6.2822,6.2822,6.2822,6.2822,6.2822,6.2822,6.2822,6.2822,6.2822,6.2822,6.2822,6.2822,6.2822,6.2822,6.2822,6.2822,6.2822,6.2822,6.2797,6.2772,6.2697,6.2722,6.2697,6.2596,6.2169,6.1994,6.1818,6.1391,6.124,6.1215,6.119,6.114,6.1065,6.104,6.1014,6.104,6.104,6.0914,6.0914,6.0889,6.0889,6.0713,6.0537,6.0387,6.0111,5.991,5.9558,5.9508,5.9508,5.9508,5.9508,5.9508,5.9508,5.9508,5.9508,5.9508,5.9508,5.9508,5.9508,5.9508,5.9508,5.9508,5.9508,5.9508,5.9508,5.9508,5.9508,5.9508,5.9508,5.9508,5.9508,5.9458,5.9408,5.9332,5.9257,5.9232,5.9031,5.9006,5.8956,5.8805,5.8704,5.8529,5.8177,5.7775,5.7424,5.7072,5.6771,5.652,5.6394,5.6244,5.6118,5.6043,5.6143,5.5817,5.529,5.4963,5.77,5.8177,5.9106,5.9508,5.9508,5.9508,5.9508,5.9533,6.0085,6.0663,6.1291,6.2119,6.2672,6.2797,6.2822,6.2822,6.2822,6.2822,6.2822,6.2822,6.2822,6.2822,6.2822,6.2822,6.2822,6.2822,6.2822,6.2822,6.2822,6.2822,6.2822,6.2822,6.2822,6.2822,6.2822,6.2822,6.2822,6.2822,6.2822,6.2822,6.2822,6.2822,6.2722,6.2621,6.2546,6.2295,6.1969,6.1818,6.1542,6.1291,6.119,6.1165,6.1165,6.1215,6.119,6.119,6.1316,6.1341,6.1341,6.1366,6.1215,6.109,6.0914,6.0588,6.0236,5.9759,5.9533,5.9533,5.9508,5.9508,5.9508,5.9508,5.9508,5.9508,5.9508,5.9508,5.9508,5.9508,5.9508,5.9508,5.9508,5.9508,5.9508,5.9508,5.9508,5.9508,5.9508,5.9508,5.9508,5.9508,5.9508,5.9458,5.9458,5.9458,5.9508,5.9483,5.9332,5.9332,5.9207,5.9131,5.9031,5.873,5.8328,5.7801,5.7374,5.7173,5.6897,5.647,5.6369,5.6369,5.6319,5.6369,5.6244,5.5792,5.5541,5.7374,5.8001,5.9056,5.9508,5.9508,5.9508,5.9508,5.9633,6.0362,6.0889,6.1266,6.2044,6.2596,6.2772,6.2822,6.2822,6.2822,6.2822,6.2822,6.2822,6.2822,6.2822,6.2822,6.2822,6.2822,6.2822,6.2822,6.2822,6.2822,6.2822,6.2822,6.2822,6.2822,6.2822,6.2822,6.2822,6.2822,6.2822,6.2822,6.2822,6.2822,6.2822,6.2822,6.2822,6.2747,6.2596,6.2546,6.237,6.222,6.1994,6.1994,6.1994,6.2019,6.2019,6.1969,6.1969,6.1969,6.1918,6.1868,6.1818,6.1718,6.1642,6.1542,6.1266,6.0839,6.0387,5.9935,5.9859,5.9558,5.9508,5.9508,5.9508,5.9508,5.9508,5.9508,5.9508,5.9508,5.9508,5.9508,5.9508,5.9508,5.9508,5.9508,5.9508,5.9508,5.9508,5.9508,5.9508,5.9508,5.9508,5.9508,5.9508,5.9508,5.9508,5.9508,5.9508,5.9458,5.9483,5.9508,5.9408,5.9257,5.9156,5.8905,5.8378,5.7976,5.7775,5.7449,5.7022,5.6746,5.6746,5.6646,5.6545,5.6394,5.6269,5.6018,5.7298,5.8001,5.9056,5.9508,5.9508,5.9508,5.9508,5.9659,6.0563,6.109,6.124,6.1793,6.232,6.2672,6.2822,6.2822,6.2822,6.2822,6.2822,6.2822,6.2822,6.2822,6.2822,6.2822,6.2822,6.2822,6.2822,6.2822,6.2822,6.2822,6.2822,6.2822,6.2822,6.2822,6.2822,6.2822,6.2822,6.2822,6.2822,6.2822,6.2822,6.2822,6.2822,6.2822,6.2822,6.2822,6.2822,6.2822,6.2797,6.2747,6.2647,6.2621,6.2596,6.2571,6.2621,6.2596,6.2571,6.2596,6.2647,6.2596,6.2421,6.2245,6.2144,6.1868,6.1441,6.1065,6.0588,6.0236,5.991,5.9709,5.9709,5.9659,5.9659,5.9508,5.9508,5.9508,5.9508,5.9508,5.9508,5.9508,5.9508,5.9508,5.9508,5.9508,5.9508,5.9508,5.9508,5.9508,5.9508,5.9508,5.9508,5.9508,5.9508,5.9508,5.9508,5.9508,5.9508,5.9508,5.9508,5.9508,5.9458,5.9357,5.9207,5.8981,5.8629,5.8303,5.8077,5.7725,5.7474,5.7223,5.7148,5.7022,5.6646,5.6495,5.6344,5.6972,5.8001,5.9056,5.9508,5.9508,5.9508,5.9508,5.9608,6.0211,6.0738,6.124,6.1768,6.232,6.2822,6.2822,6.2822,6.2822,6.2822,6.2822,6.2822,6.2822,6.2822,6.2822,6.2822,6.2822,6.2822,6.2822,6.2822,6.2822,6.2822,6.2822,6.2822,6.2822,6.2822,6.2822,6.2822,6.2822,6.2822,6.2822,6.2822,6.2822,6.2822,6.2822,6.2822,6.2822,6.2822,6.2822,6.2822,6.2822,6.2822,6.2822,6.2822,6.2822,6.2822,6.2822,6.2822,6.2822,6.2822,6.2822,6.2822,6.2596,6.2621,6.2496,6.237,6.2019,6.1843,6.1441,6.1115,6.0814,6.0537,6.0437,6.0236,6.0161,5.9759,5.9608,5.9533,5.9508,5.9508,5.9508,5.9508,5.9508,5.9508,5.9508,5.9508,5.9508,5.9508,5.9508,5.9508,5.9508,5.9508,5.9508,5.9508,5.9508,5.9508,5.9508,5.9508,5.9508,5.9508,5.9508,5.9508,5.9508,5.9508,5.9357,5.9182,5.8981,5.8679,5.8453,5.8353,5.8052,5.7801,5.775,5.76,5.7123,5.6821,5.6746]}]]